[[{"header":{"parameterUnit":"m.s-1","parameterCategory":1,"la1":31.0,"la2":29.5877,"lo1":-88.7671,"lo2":-86.6584,"dy":0.0162,"dx":0.0185,"nx":115,"ny":88,"refTime":"2023-05-12T06:00:00:Z","depth":0,"parameterNumber":2,"parameterNumberName":"U-component_of_WINDS"},"data":[0.0,0.0,0.0,0.0,0.0,0.0,0.0,0.0,0.0,0.0,0.0,0.0,0.0,0.0,0.0,0.0,0.0,0.0,0.0,0.0,0.0,0.0,0.0,0.0,0.0,0.0,0.0,0.0,0.0,0.0,0.0,0.0,0.0,0.0,0.0,0.0,0.0,0.0,0.0,0.0,0.0,0.0,0.0,0.0,0.0,0.0,0.0,0.0,0.0,0.0,0.0,0.0,0.0,0.0,0.0,0.0,0.0,0.0,0.0,0.0,0.0,0.0,0.0,0.0,0.0,0.0,0.0,0.0,0.0,0.0,0.0,0.0,0.0,0.0,0.0,0.0,0.0,0.0,0.0,0.0,0.0,0.0,0.0,0.0,0.0,0.0,0.0,0.0,0.0,0.0,0.0,0.0,0.0,0.0,0.0,0.0,0.0,0.0,0.0,0.0,0.0,0.0,0.0,0.0,0.0,0.0,0.0,0.0,0.0,0.0,0.0,0.0,0.0,0.0,0.0,0.0,0.0,0.0,0.0,0.0,0.0,0.0,0.0,0.0,0.0,0.0,0.0,0.0,0.0,0.0,0.0,0.0,0.0,0.0,0.0,0.0,0.0,0.0,0.0,0.0,0.0,0.0,0.0,0.0,0.0,0.0,0.0,0.0,0.0,0.0,0.0,0.0,0.0,0.0,0.0,0.0,0.0,0.0,0.0,0.0,0.0,0.0,0.0,0.0,0.0,0.0,0.0,0.0,0.0,0.0,0.0,0.0,0.0,0.0,0.0,0.0,0.0,0.0,0.0,0.0,0.0,0.0,0.0,0.0,0.0,0.0,0.0,0.0,0.0,0.0,0.0,0.0,0.0,0.0,0.0,0.0,0.0,0.0,0.0,0.0,0.0,0.0,0.0,0.0,0.0,0.0,0.0,0.0,0.0,0.0,0.0,0.0,0.0,0.0,0.0,0.0,0.0,0.0,0.0,0.0,0.0,0.0,0.0,0.0,0.0,0.0,0.0,0.0,0.0,0.0,0.0,0.0,0.0,0.0,0.0,0.0,0.0,0.0,0.0,0.0,0.0,0.0,0.0,0.0,0.0,0.0,0.0,0.0,0.0,0.0,0.0,0.0,0.0,0.0,0.0,0.0,0.0,0.0,0.0,0.0,0.0,0.0,0.0,0.0,0.0,0.0,0.0,0.0,0.0,0.0,0.0,0.0,0.0,0.0,0.0,0.0,0.0,0.0,0.0,0.0,0.0,0.0,0.0,0.0,0.0,0.0,0.0,0.0,0.0,0.0,0.0,0.0,0.0,0.0,0.0,0.0,0.0,0.0,0.0,0.0,0.0,0.0,0.0,0.0,0.0,0.0,0.0,0.0,0.0,0.0,0.0,0.0,0.0,0.0,0.0,0.0,0.0,0.0,0.0,0.0,0.0,0.0,0.0,0.0,0.0,0.0,0.0,0.0,0.0,0.0,0.0,0.0,0.0,0.0,0.0,0.0,0.0,0.0,0.0,0.0,0.0,0.0,0.0,0.0,0.0,0.0,0.0,0.0,0.0,0.0,0.0,0.0,0.0,0.0,0.0,0.0,0.0,0.0,0.0,0.0,0.0,0.0,0.0,0.0,0.0,0.0,0.0,0.0,0.0,0.0,0.0,0.0,0.0,0.0,0.0,0.0,0.0,0.0,0.0,0.0,0.0,0.0,0.0,0.0,0.0,0.0,0.0,0.0,0.0,0.0,0.0,0.0,0.0,0.0,0.0,0.0,0.0,0.0,0.0,0.0,0.0,0.0,0.0,0.0,0.0,0.0,0.0,0.0,0.0,0.0,0.0,0.0,0.0,0.0,0.0,0.0,0.0,0.0,0.0,0.0,0.0,0.0,0.0,0.0,0.0,0.0,0.0,0.0,0.0,0.0,0.0,0.0,0.0,0.0,0.0,0.0,0.0,0.0,0.0,0.0,0.0,0.0,0.0,0.0,0.0,0.0,0.0,0.0,0.0,0.0,0.0,0.0,0.0,0.0,0.0,0.0,0.0,0.0,0.0,0.0,0.0,0.0,0.0,0.0,0.0,0.0,0.0,0.0,0.0,0.0,0.0,0.0,0.0,0.0,0.0,0.0,0.0,0.0,0.0,0.0,0.0,0.0,0.0,0.0,0.0,0.0,0.0,0.0,0.0,0.0,0.0,0.0,0.0,0.0,0.0,0.0,0.0,0.0,0.0,0.0,0.0,0.0,0.0,0.0,0.0,0.0,0.0,0.0,0.0,0.0,0.0,0.0,0.0,0.0,0.0,0.0,0.0,0.0,0.0,0.0,0.0,0.0,0.0,0.0,0.0,0.0,0.0,0.0,0.0,0.0,0.0,0.0,0.0,0.0,0.0,0.0,0.0,0.0,0.0,0.0,0.0,0.0,0.0,0.0,0.0,0.0,0.0,0.0,0.0,0.0,0.0,0.0,0.0,0.0,0.0,0.0,0.0,0.0,0.0,0.0,0.0,0.0,0.0,0.0,0.0,0.0,0.0,0.0,0.0,0.0,0.0,0.0,0.0,0.0,0.0,0.0,0.0,0.0,0.0,0.0,0.0,0.0,0.0,0.0,0.0,0.0,0.0,0.0,0.0,0.0,0.0,0.0,0.0,0.0,0.0,0.0,0.0,0.0,0.0,0.0,0.0,0.0,0.0,0.0,0.0,0.0,0.0,0.0,0.0,0.0,0.0,0.0,0.0,0.0,0.0,0.0,0.0,0.0,0.0,0.0,0.0,0.0,0.0,0.0,0.0,0.0,0.0,0.0,0.0,0.0,0.0,0.0,0.0,0.0,0.0,0.0,0.0,0.0,0.0,0.0,0.0,0.0,0.0,0.0,0.0,0.0,0.0,0.0,0.0,0.0,0.0,0.0,0.0,0.0,0.0,0.0,0.0,0.0,0.0,0.0,0.0,0.0,0.0,0.0,0.0,0.0,0.0,0.0,0.0,0.0,0.0,0.0,0.0,0.0,0.0,0.0,0.0,0.0,0.0,0.0,0.0,0.0,0.0,0.0,0.0,0.0,0.0,0.0,0.0,0.0,0.0,0.0,0.0,0.0,0.0,0.0,0.0,0.0,0.0,0.0,0.0,0.0,0.0,0.0,0.0,0.0,0.0,0.0,0.0,0.0,0.0,0.0,0.0,0.0,0.0,0.0,0.0,0.0,0.0,0.0,0.0,0.0,0.0,0.0,0.0,0.0,0.0,0.0,0.0,0.0,0.0,0.0,0.0,0.0,0.0,0.0,0.0,0.0,0.0,0.0,0.0,0.0,0.0,0.0,0.0,0.0,0.0,0.0,0.0,0.0,0.0,0.0,0.0,0.0,0.0,0.0,0.0,0.0,0.0,0.0,0.0,0.0,0.0,0.0,0.0,0.0,0.0,0.0,0.0,0.0,0.0,0.0,0.0,0.0,0.0,0.0,0.0,0.0,0.0,0.0,0.0,0.0,0.0,0.0,0.0,0.0,0.0,0.0,0.0,0.0,0.0,0.0,0.0,0.0,0.0,0.0,0.0,0.0,0.0,0.0,0.0,0.0,0.0,0.0,0.0,0.0,0.0,0.0,0.0,0.0,0.0,0.0,0.0,0.0,0.0,0.0,0.0,0.0,0.0,0.0,0.0,0.0,0.0,0.0,0.0,0.0,0.0,0.0,0.0,0.0,0.0,0.0,0.0,0.0,0.0,0.0,0.0,0.0,0.0,0.0,0.0,0.0,0.0,0.0,0.0,0.0,0.0,0.0,0.0,0.0,0.0,0.0,0.0,0.0,0.0,0.0,0.0,0.0,0.0,0.0,0.0,0.0,0.0,0.0,0.0,0.0,0.0,0.0,0.0,0.0,0.0,0.0,0.0,0.0,0.0,0.0,0.0,0.0,0.0,0.0,0.0,0.0,0.0,0.0,0.0,0.0,0.0,0.0,0.0,0.0,0.0,0.0,0.0,0.0,0.0,0.0,0.0,0.0,0.0,0.0,0.0,0.0,0.0,0.0,0.0,0.0,0.0,0.0,0.0,0.0,0.0,0.0,0.0,0.0,0.0,0.0,0.0,0.0,0.0,0.0,0.0,0.0,0.0,0.0,0.0,0.0,0.0,0.0,0.0,0.0,0.0,0.0,0.0,0.0,0.0,0.0,0.0,0.0,0.0,0.0,0.0,0.0,0.0,0.0,0.0,0.0,0.0,0.0,0.0,0.0,0.0,0.0,0.0,0.0,0.0,0.0,0.0,0.0,0.0,0.0,0.0,0.0,0.0,0.0,0.0,0.0,1.003,0.0,0.0,0.0,0.0,0.0,0.0,0.0,0.0,0.0,0.0,0.0,0.0,0.0,0.0,0.0,0.0,0.0,0.0,0.0,0.0,0.0,0.0,0.0,0.0,0.0,0.0,0.0,0.0,0.0,0.0,0.0,0.0,0.0,0.0,0.0,0.0,0.0,0.0,0.0,0.0,0.0,0.0,0.0,0.0,0.0,0.0,0.0,0.0,0.0,0.0,0.0,0.0,0.0,0.0,0.0,0.0,0.0,0.0,0.0,0.0,0.0,0.0,0.0,0.0,0.0,0.0,0.0,0.0,0.0,0.0,0.0,0.0,0.0,0.0,0.0,0.0,0.0,0.0,0.0,0.0,0.0,0.0,0.0,0.0,0.0,0.0,0.0,0.0,0.0,0.0,0.0,0.0,0.0,0.0,0.0,0.0,0.0,0.0,0.0,0.0,0.0,0.0,0.0,0.0,0.0,0.0,0.0,0.0,0.0,0.0,0.9904,0.9886,0.9875,0.9916,0.997,0.0,0.0,0.0,0.0,0.0,0.0,0.0,0.0,0.0,0.0,0.0,0.0,0.0,0.0,0.0,0.0,0.0,0.0,0.0,0.0,0.0,0.0,0.0,0.0,0.0,0.0,0.0,0.0,0.0,0.0,0.0,0.0,0.0,0.0,0.0,0.0,0.0,0.0,0.0,0.0,0.0,0.0,0.0,0.0,0.0,0.0,0.0,0.0,0.0,0.0,0.0,0.0,0.0,0.0,0.0,0.0,0.0,0.0,0.0,0.0,0.0,0.0,0.0,0.0,0.0,0.0,0.0,0.0,0.0,0.0,0.0,0.0,0.0,0.0,0.0,0.0,0.0,0.0,0.0,0.0,0.0,0.0,0.0,0.0,0.0,0.0,0.0,0.0,0.0,0.0,0.0,0.0,0.0,0.0,0.0,0.0,0.0,0.0,0.0,0.0,0.0,0.0,0.0,0.0,0.0,0.0,0.0,0.0,0.0,0.0,0.0,0.0,1.0325,1.0548,1.1001,0.0,0.0,0.0,0.0,0.0,0.0,0.0,0.0,0.0,0.0,0.0,0.0,0.0,0.0,0.0,0.0,0.0,0.0,0.0,0.0,0.0,0.0,0.0,0.0,0.0,0.0,0.0,0.0,0.0,0.0,0.0,0.0,0.0,0.0,0.0,0.0,0.0,0.0,0.0,0.0,0.0,0.0,0.0,0.0,0.0,0.0,0.0,0.0,0.0,0.0,0.0,0.0,0.0,0.0,0.0,0.0,0.0,0.0,0.0,0.0,0.0,0.0,0.0,0.0,0.0,0.0,0.0,0.0,0.0,0.0,0.0,0.0,0.0,0.0,0.0,0.0,0.0,0.0,0.0,0.0,0.0,0.0,0.0,0.0,0.0,0.0,0.0,0.0,0.0,0.0,0.0,0.0,0.0,0.0,0.0,0.0,0.0,0.0,0.0,0.0,0.0,0.0,0.0,0.0,0.0,0.0,0.0,0.0,0.0,0.0,1.0402,1.1829,1.1927,0.0,1.4076,0.0,0.0,0.0,0.0,0.0,0.0,0.0,0.0,0.0,0.0,0.0,0.0,0.0,0.0,0.0,0.0,0.0,0.0,0.0,0.0,0.0,0.0,0.0,0.0,0.0,0.0,0.0,0.0,0.0,0.0,0.0,0.0,0.0,0.0,0.0,0.0,0.0,0.0,0.0,0.0,0.0,0.0,0.0,0.0,0.0,0.0,0.0,0.0,0.0,0.0,0.0,0.0,0.0,0.0,0.0,0.0,0.0,0.0,0.0,0.0,0.0,0.0,0.0,0.0,0.0,0.0,0.0,0.0,0.0,0.0,0.0,0.0,0.0,0.0,0.0,0.0,0.0,0.0,0.0,0.0,0.0,0.0,0.0,0.0,0.0,0.0,0.0,0.0,0.0,0.0,0.0,0.0,0.0,0.0,0.0,0.0,0.0,0.0,0.0,0.0,0.0,0.0,0.0,0.0,0.0,0.0,0.0,0.0,0.0,0.0,1.0412,1.2002,1.2107,1.2267,0.0,0.0,0.0,0.0,0.0,0.0,0.0,0.0,0.0,0.0,0.0,0.0,0.0,0.0,0.0,0.0,0.0,0.0,0.0,0.0,0.0,0.0,0.0,0.0,0.0,0.0,0.0,0.0,0.0,0.0,0.0,0.0,0.0,0.0,0.0,0.0,0.0,0.0,0.0,0.0,0.0,0.0,0.0,0.0,0.0,0.0,0.0,0.0,0.0,0.0,0.0,0.0,0.0,0.0,0.0,0.0,0.0,0.0,0.0,0.0,0.0,0.0,0.0,0.0,0.0,0.0,0.0,0.0,0.0,0.0,0.0,0.0,0.0,0.0,0.0,0.0,0.0,0.0,0.0,0.0,0.0,0.0,0.0,0.0,0.0,0.0,0.0,0.0,0.0,0.0,0.0,0.0,0.0,0.0,0.0,0.0,0.0,0.0,0.0,0.0,0.0,0.0,0.0,0.0,0.0,0.0,0.0,0.0,0.0,0.0,1.049,1.1005,1.2505,1.1843,1.1463,1.162,0.0,0.0,0.0,0.0,0.0,0.0,0.0,0.0,0.0,0.0,0.0,0.0,0.0,0.0,0.0,0.0,0.0,0.0,0.0,0.0,0.0,0.0,0.0,0.0,0.0,0.0,0.0,0.0,0.0,0.0,0.0,0.0,0.0,0.0,0.0,0.0,0.0,0.0,0.0,0.0,0.0,0.0,0.0,0.0,0.0,0.0,0.0,0.0,0.0,0.0,0.0,0.0,0.0,0.0,0.0,0.0,0.0,0.0,0.0,0.0,0.0,0.0,0.0,0.0,0.0,0.0,0.0,0.0,0.0,0.0,0.0,0.0,0.0,0.0,0.0,0.0,0.0,0.0,0.0,0.0,0.0,0.0,0.0,0.0,0.0,0.0,0.0,0.0,0.0,0.0,0.0,0.0,0.0,0.0,0.0,0.0,0.0,0.0,0.0,0.0,0.0,0.0,0.0,0.0,0.0,0.0,0.0,0.0,1.3726,1.2507,1.2555,1.399,1.1277,1.0813,0.0,0.0,0.0,0.0,0.0,0.0,0.0,0.0,0.0,0.0,0.0,0.0,0.0,0.0,0.0,0.0,0.0,0.0,0.0,0.0,0.0,0.0,0.0,0.0,0.0,0.0,0.0,0.0,0.0,0.0,0.0,0.0,0.0,0.0,0.0,0.0,0.0,0.0,0.0,0.0,0.0,0.0,0.0,0.0,0.0,0.0,0.0,0.0,0.0,0.0,0.0,0.0,0.0,0.0,0.0,0.0,0.0,0.0,0.0,0.0,0.0,0.0,0.0,0.0,0.0,0.0,0.0,0.0,0.0,0.0,0.0,0.0,0.0,0.0,0.0,0.0,0.0,0.0,0.0,0.0,0.0,0.0,0.0,0.0,0.0,0.0,0.0,0.0,0.0,0.0,0.0,0.0,0.0,0.0,0.0,0.0,0.0,0.0,0.0,0.0,0.0,0.0,0.0,0.0,0.0,0.0,0.0,0.0,0.0,1.1134,1.1644,1.191,1.1964,1.1438,1.1324,0.0,0.0,0.0,0.0,0.0,0.0,0.0,0.0,0.0,0.0,0.0,0.0,0.0,0.0,0.0,0.0,0.0,0.0,0.0,0.0,0.0,0.0,0.0,0.0,0.0,0.0,0.0,0.0,0.0,0.0,0.0,0.0,0.0,0.0,0.0,0.0,0.0,0.0,0.0,0.0,0.0,0.0,0.0,0.0,0.0,0.0,0.0,0.0,0.0,0.0,0.0,0.0,0.0,0.0,0.0,0.0,0.0,0.0,0.0,0.0,0.0,0.0,0.0,0.0,0.0,0.0,0.0,0.0,0.0,0.0,0.0,0.0,0.0,0.0,0.0,0.0,0.0,0.0,0.0,0.0,0.0,0.0,0.0,0.0,0.0,0.0,0.0,0.0,0.0,0.0,0.0,0.0,0.0,0.0,0.0,0.0,0.0,0.0,0.0,0.0,0.0,0.0,0.0,0.0,0.0,0.0,0.0,0.0,0.0,1.0567,0.0,1.1916,1.1449,1.1484,1.1149,0.0,0.0,0.0,0.0,0.0,0.0,0.0,0.0,0.0,0.0,0.0,0.0,0.0,0.0,0.0,0.0,0.0,0.0,0.0,0.0,0.0,0.0,0.0,0.0,0.0,0.0,0.0,0.0,0.0,0.0,0.0,0.0,0.0,0.0,0.0,0.0,0.0,0.0,0.0,0.0,0.0,0.0,0.0,0.0,0.0,0.0,0.0,0.0,0.0,0.0,0.0,0.0,0.0,0.0,0.0,0.0,0.0,0.0,0.0,0.0,0.0,0.0,0.0,0.0,0.0,0.0,0.0,0.0,0.0,0.0,0.0,0.0,0.0,0.0,0.0,0.0,0.0,0.0,0.0,0.0,0.0,0.0,0.0,0.0,0.0,0.0,0.0,0.0,0.0,0.0,0.0,0.0,0.0,0.0,0.0,0.0,0.0,0.0,0.0,0.0,0.0,0.0,0.0,0.0,0.0,0.0,0.0,0.0,1.0506,1.2585,1.261,1.2632,1.2833,1.1325,1.0222,0.0,0.0,0.0,0.0,0.0,0.0,0.0,0.0,0.0,0.0,0.0,0.0,0.0,0.0,0.0,0.0,0.0,0.0,0.0,0.0,0.0,0.0,0.0,0.0,0.0,0.0,0.0,0.0,0.0,0.0,0.0,0.0,0.0,0.0,0.0,0.0,0.0,0.0,0.0,0.0,0.0,0.0,0.0,0.0,0.0,0.0,0.0,0.0,0.0,0.0,0.0,0.0,0.0,0.0,0.0,0.0,0.0,0.0,0.0,0.0,0.0,0.0,0.0,0.0,0.0,0.0,0.0,0.0,0.0,0.0,0.0,0.0,0.0,0.0,0.0,0.0,0.0,0.0,0.0,0.0,0.0,0.0,0.0,0.0,0.0,0.0,0.0,0.0,0.0,0.0,0.0,0.0,0.0,0.0,0.0,0.0,0.0,0.0,0.0,0.0,0.0,0.0,0.0,0.0,0.0,0.0,0.0,0.0,0.0,1.0428,1.0929,1.1686,1.2629,1.0792,1.0606,0.0,0.0,0.0,0.0,0.0,0.0,0.0,0.0,0.0,0.0,0.0,0.0,0.0,0.0,0.0,0.0,0.0,0.0,0.0,0.0,0.0,0.0,0.0,0.0,0.0,0.0,0.0,0.0,0.0,0.0,0.0,0.0,0.0,0.0,0.0,0.0,0.0,0.0,0.0,0.0,0.0,0.0,0.0,0.0,0.0,0.0,0.0,0.0,0.0,0.0,0.0,0.0,0.0,0.0,0.0,0.0,0.0,0.0,0.0,0.0,0.0,0.0,0.0,0.0,0.0,0.0,0.0,0.0,0.0,0.0,0.0,0.0,0.0,0.0,0.0,0.0,0.0,0.0,0.0,0.0,0.0,0.0,0.0,0.0,0.0,0.0,0.0,0.0,0.0,0.0,0.0,0.0,0.0,0.0,0.0,0.0,0.0,0.0,0.0,0.0,0.0,0.0,0.0,0.0,0.0,0.0,0.0,0.0,0.0,1.0415,1.088,1.1564,1.2466,1.12,1.1159,1.2489,0.0,0.0,0.0,0.0,0.0,0.0,0.0,0.0,0.0,0.0,0.0,0.0,0.0,0.0,0.0,0.0,0.0,0.0,0.0,0.0,0.0,0.0,0.0,0.0,0.0,0.0,0.0,0.0,0.0,0.0,0.0,0.0,0.0,0.0,0.0,0.0,0.0,0.0,0.0,0.0,0.0,0.0,0.0,0.0,0.0,0.0,0.0,0.0,0.0,0.0,0.0,0.0,0.0,0.0,0.0,0.0,0.0,0.0,0.0,0.0,0.0,0.0,0.0,0.0,0.0,0.0,0.0,0.0,0.0,0.0,0.0,0.0,0.0,0.0,0.0,0.0,0.0,0.0,0.0,0.0,0.0,0.0,0.0,0.0,0.0,0.0,0.0,0.0,0.0,0.0,0.0,0.0,0.0,0.0,0.0,0.0,0.0,0.0,0.0,0.0,0.0,0.0,0.0,0.0,0.0,0.0,0.0,0.0,1.2212,1.2336,1.2424,1.2392,1.2364,1.1844,0.0,0.0,0.0,0.0,0.0,0.0,0.0,0.0,0.0,0.0,0.0,0.0,0.0,0.0,0.0,0.0,0.0,0.0,0.0,0.0,0.0,0.0,0.0,0.0,0.0,0.0,0.0,0.0,0.0,0.0,0.0,0.0,0.0,0.0,0.0,0.0,0.0,0.0,0.0,0.0,0.0,0.0,0.0,0.0,0.0,0.0,0.0,0.0,0.0,0.0,0.0,0.0,0.0,0.0,0.0,0.0,0.0,0.0,0.0,0.0,0.0,0.0,0.0,0.0,0.0,0.0,0.0,0.0,0.0,0.0,0.0,0.0,0.0,0.0,0.0,0.0,0.0,0.0,0.0,0.0,0.0,0.0,0.0,0.0,0.0,0.0,0.0,0.0,0.0,0.0,0.0,0.0,0.0,0.0,0.0,0.0,0.0,0.0,0.0,0.0,0.0,0.0,0.0,0.0,0.0,0.0,0.0,0.0,0.0,1.353,1.4489,1.509,1.5226,1.3316,1.2892,0.0,0.0,0.0,0.0,0.0,0.0,0.0,0.0,0.0,0.0,0.0,0.0,0.0,0.0,0.0,0.0,0.0,0.0,0.0,0.0,0.0,0.0,0.0,0.0,0.0,0.0,0.0,0.0,0.0,0.0,0.0,0.0,0.0,0.0,0.0,0.0,0.0,0.0,0.0,0.0,0.0,0.0,0.0,0.0,0.0,0.0,0.0,0.0,0.0,0.0,0.0,0.0,0.0,0.0,0.0,0.0,0.0,0.0,0.0,0.0,0.0,0.0,0.0,0.0,0.0,0.0,0.0,0.0,0.0,0.0,0.0,0.0,0.0,0.0,0.0,0.0,0.0,0.0,0.0,0.0,0.0,0.0,0.0,0.0,0.0,0.0,0.0,0.0,0.0,0.0,0.0,0.0,0.0,0.0,0.0,0.0,0.0,0.0,0.0,0.0,0.0,0.0,0.0,0.0,0.0,0.0,0.0,0.0,1.305,1.4831,1.6666,1.7712,1.7909,1.5301,1.4115,0.0,0.0,0.0,0.0,0.0,0.0,0.0,0.0,0.0,0.0,0.0,0.0,0.0,0.0,0.0,0.0,0.0,0.0,0.0,0.0,0.0,0.0,0.0,0.0,0.0,0.0,0.0,0.0,0.0,0.0,0.0,0.0,0.0,0.0,0.0,0.0,0.0,0.0,0.0,0.0,0.0,0.0,0.0,0.0,0.0,0.0,0.0,0.0,0.0,0.0,0.0,0.0,0.0,0.0,0.0,0.0,0.0,0.0,0.0,0.0,0.0,0.0,0.0,0.0,0.0,0.0,0.0,0.0,0.0,0.0,0.0,0.0,0.0,0.0,0.0,0.0,0.0,0.0,0.0,0.0,0.0,0.0,0.0,0.0,0.0,0.0,0.0,0.0,0.0,0.0,0.0,0.0,0.0,0.0,0.0,0.0,0.0,0.0,0.0,0.0,0.0,0.0,0.0,0.0,0.0,0.0,0.0,0.0,1.4417,1.5905,1.8374,1.9758,1.9817,1.7484,1.5296,0.0,0.0,0.0,0.0,0.0,0.0,0.0,0.0,0.0,0.0,0.0,0.0,0.0,0.0,0.0,0.0,0.0,0.0,0.0,0.0,0.0,0.0,0.0,0.0,0.0,0.0,0.0,0.0,0.0,0.0,0.0,0.0,0.0,0.0,0.0,0.0,0.0,0.0,0.0,0.0,0.0,0.0,0.0,0.0,0.0,0.0,0.0,0.0,0.0,0.0,0.0,0.0,0.0,0.0,0.0,0.0,0.0,0.0,0.0,0.0,0.0,0.0,0.0,0.0,0.0,0.0,0.0,0.0,0.0,0.0,0.0,0.0,0.0,0.0,0.0,0.0,0.0,0.0,0.0,0.0,0.0,0.0,0.0,0.0,0.0,0.0,0.0,0.0,0.0,0.0,0.0,0.0,0.0,0.0,0.0,0.0,0.0,0.0,0.0,0.0,0.0,0.0,0.0,0.0,0.0,0.0,0.0,0.0,1.3963,1.5936,1.7918,1.9028,1.9196,1.7151,1.5626,0.0,0.0,0.0,0.0,0.0,0.0,0.0,0.0,0.0,0.0,0.0,0.0,0.0,0.0,0.0,0.0,0.0,0.0,0.0,0.0,0.0,0.0,0.0,0.0,0.0,0.0,0.0,0.0,0.0,0.0,0.0,0.0,0.0,0.0,0.0,0.0,0.0,0.0,0.0,0.0,0.0,0.0,0.0,0.0,0.0,0.0,0.0,0.0,1.5871,0.0,0.0,0.0,0.0,0.0,0.0,0.0,0.0,0.0,0.0,0.0,0.0,0.0,0.0,0.0,0.0,0.0,0.0,0.0,0.0,0.0,0.0,0.0,0.0,0.0,0.0,0.0,0.0,0.0,0.0,0.0,0.0,0.0,0.0,0.0,0.0,0.0,0.0,0.0,0.0,0.0,0.0,0.0,0.0,0.0,0.0,0.0,0.0,0.0,0.0,0.0,0.0,0.0,0.0,0.0,0.0,0.0,0.0,0.0,1.4583,1.6339,1.7883,1.8753,1.8776,1.6946,1.5781,0.0,0.0,0.0,0.0,0.0,0.0,0.0,0.0,0.0,0.0,0.0,0.0,0.0,0.0,0.0,0.0,0.0,0.0,0.0,0.0,0.0,0.0,0.0,0.0,0.0,0.0,0.0,0.0,0.0,0.0,0.0,0.0,0.0,0.0,0.0,0.0,0.0,0.0,0.0,0.0,0.0,0.0,0.0,0.0,0.0,0.0,0.0,0.0,0.0,0.0,0.0,0.0,0.0,0.0,0.0,0.0,0.0,0.0,0.0,0.0,0.0,0.0,0.0,0.0,0.0,0.0,0.0,0.0,0.0,0.0,0.0,0.0,0.0,0.0,0.0,0.0,0.0,0.0,0.0,0.0,0.0,0.0,0.0,0.0,0.0,0.0,0.0,0.0,0.0,0.0,0.0,0.0,0.0,0.0,0.0,0.0,0.0,0.0,0.0,0.0,0.0,0.0,0.0,0.0,0.0,0.0,0.0,1.412,1.5334,1.674,1.7887,1.8491,1.846,1.658,1.5637,1.5748,0.0,0.0,0.0,0.0,0.0,0.0,0.0,0.0,0.0,0.0,0.0,0.0,0.0,0.0,0.0,0.0,0.0,0.0,0.0,0.0,0.0,0.0,0.0,0.0,0.0,0.0,0.0,0.0,0.0,0.0,0.0,0.0,0.0,0.0,0.0,0.0,0.0,0.0,1.3464,1.4691,0.0,0.0,0.0,0.0,0.0,0.0,0.0,0.0,1.6104,0.0,0.0,0.0,0.0,0.0,0.0,0.0,0.0,0.0,0.0,0.0,0.0,0.0,0.0,0.0,0.0,0.0,0.0,0.0,0.0,0.0,0.0,0.0,0.0,0.0,0.0,0.0,0.0,0.0,0.0,0.0,0.0,0.0,0.0,0.0,0.0,0.0,0.0,0.0,0.0,0.0,0.0,0.0,0.0,0.0,0.0,0.0,0.0,0.0,0.0,0.0,0.0,0.0,0.0,0.0,0.0,1.358,1.3779,1.4787,1.6582,1.7225,1.753,1.7483,1.5601,1.4601,1.4692,0.0,0.0,0.0,0.0,0.0,0.0,0.0,0.0,0.0,0.0,0.0,0.0,0.0,0.0,0.0,0.0,0.0,0.0,0.0,0.0,0.0,0.0,0.0,0.0,0.0,0.0,0.0,0.0,0.0,0.0,0.0,0.0,0.0,0.0,0.0,0.0,0.0,0.0,0.0,1.4015,1.4665,0.0,0.0,0.0,0.0,0.0,0.0,0.0,0.0,1.6492,0.0,0.0,0.0,0.0,0.0,0.0,0.0,0.0,0.0,0.0,0.0,0.0,0.0,0.0,0.0,0.0,0.0,0.0,0.0,0.0,0.0,0.0,0.0,0.0,0.0,0.0,0.0,0.0,0.0,0.0,0.0,0.0,0.0,0.0,0.0,0.0,0.0,0.0,0.0,0.0,0.0,0.0,0.0,0.0,0.0,0.0,0.0,0.0,0.0,0.0,0.0,0.0,0.0,0.0,0.0,1.3489,1.3879,1.478,1.6217,1.6174,1.6104,1.6088,1.4523,1.3604,0.0,0.0,0.0,0.0,0.0,0.0,0.0,0.0,0.0,0.0,0.0,0.0,0.0,0.0,0.0,0.0,0.0,0.0,0.0,0.0,0.0,0.0,0.0,0.0,0.0,0.0,0.0,0.0,0.0,0.0,0.0,0.0,0.0,0.0,0.0,0.0,0.0,0.0,0.0,0.0,1.4332,1.4977,1.5433,0.0,0.0,0.0,0.0,0.0,0.0,1.6541,1.6836,0.0,0.0,0.0,0.0,0.0,0.0,0.0,0.0,0.0,0.0,0.0,0.0,0.0,0.0,0.0,0.0,0.0,0.0,0.0,0.0,0.0,0.0,0.0,0.0,0.0,0.0,0.0,0.0,0.0,0.0,0.0,0.0,0.0,0.0,0.0,0.0,0.0,0.0,0.0,0.0,0.0,0.0,0.0,0.0,0.0,0.0,0.0,0.0,0.0,0.0,0.0,0.0,0.0,0.0,0.0,1.3107,1.3899,1.472,1.5545,1.518,1.4812,1.4552,1.3299,1.2431,0.0,0.0,0.0,0.0,0.0,0.0,0.0,0.0,0.0,0.0,0.0,0.0,0.0,0.0,0.0,0.0,0.0,0.0,0.0,0.0,0.0,0.0,0.0,0.0,0.0,0.0,0.0,0.0,0.0,0.0,0.0,0.0,0.0,0.0,0.0,0.0,0.0,0.0,0.0,0.0,0.0,1.561,1.6238,1.6475,0.0,0.0,0.0,0.0,1.6235,1.692,0.0,0.0,0.0,0.0,0.0,0.0,0.0,0.0,0.0,0.0,0.0,0.0,0.0,0.0,0.0,0.0,0.0,0.0,0.0,0.0,0.0,0.0,0.0,0.0,0.0,0.0,0.0,0.0,0.0,0.0,0.0,0.0,0.0,0.0,0.0,0.0,0.0,0.0,0.0,0.0,0.0,0.0,0.0,0.0,0.0,0.0,0.0,0.0,0.0,0.0,0.0,0.0,0.0,0.0,0.0,0.0,1.2447,1.343,1.4081,1.4313,1.4599,1.4196,1.3083,1.1756,1.0825,0.0,0.0,0.0,0.0,0.0,0.0,0.0,0.0,0.0,0.0,0.0,0.0,0.0,0.0,0.0,0.0,0.0,0.0,0.0,0.0,0.0,0.0,0.0,0.0,0.0,0.0,0.0,0.0,0.0,0.0,0.0,0.0,0.0,0.0,0.0,0.0,0.0,0.0,0.0,0.0,0.0,1.5912,1.5437,1.6027,1.6267,0.0,0.0,1.757,1.6657,1.7888,0.0,0.0,0.0,0.0,0.0,0.0,0.0,0.0,0.0,0.0,0.0,0.0,0.0,0.0,0.0,0.0,0.0,0.0,0.0,0.0,0.0,0.0,0.0,0.0,0.0,0.0,0.0,0.0,0.0,0.0,0.0,0.0,0.0,0.0,0.0,0.0,0.0,0.0,0.0,0.0,0.0,0.0,0.0,0.0,0.0,0.0,0.0,0.0,0.0,0.0,0.0,0.0,0.0,0.0,0.0,1.2307,1.2532,1.2912,1.3261,1.3572,1.3455,1.3136,1.2584,1.1381,1.0877,0.0,0.0,0.0,0.0,0.0,0.0,0.0,0.0,0.0,0.0,0.0,0.0,0.0,0.0,0.0,0.0,0.0,0.0,0.0,0.0,0.0,0.0,0.0,0.0,0.0,0.0,0.0,0.0,0.0,0.0,0.0,0.0,0.0,0.0,0.0,0.0,0.0,0.0,0.0,0.0,0.0,0.0,1.5723,1.5935,0.0,0.0,0.0,1.7459,1.6769,0.0,0.0,0.0,0.0,0.0,0.0,0.0,0.0,0.0,0.0,0.0,0.0,0.0,0.0,0.0,0.0,0.0,0.0,0.0,0.0,0.0,0.0,0.0,0.0,0.0,0.0,0.0,0.0,0.0,0.0,0.0,0.0,0.0,0.0,0.0,0.0,0.0,0.0,0.0,0.0,0.0,0.0,0.0,0.0,0.0,0.0,0.0,0.0,0.0,0.0,0.0,0.0,0.0,0.0,0.0,0.0,0.0,1.2449,1.2374,1.2452,1.267,1.2458,1.2192,1.1872,1.1092,0.0,0.0,0.0,0.0,0.0,0.0,0.0,0.0,0.0,0.0,0.0,0.0,0.0,0.0,0.0,0.0,0.0,0.0,0.0,0.0,0.0,0.0,0.0,0.0,0.0,0.0,0.0,1.2274,0.0,0.0,0.0,0.0,0.0,0.0,0.0,0.0,0.0,0.0,0.0,0.0,0.0,0.0,1.6345,1.6329,1.6418,1.6739,0.0,0.0,1.7606,1.6997,1.9138,2.0284,0.0,0.0,0.0,0.0,0.0,0.0,0.0,0.0,0.0,0.0,0.0,0.0,0.0,0.0,0.0,0.0,0.0,0.0,0.0,0.0,0.0,0.0,0.0,0.0,0.0,0.0,0.0,0.0,0.0,0.0,0.0,0.0,0.0,0.0,0.0,0.0,0.0,0.0,0.0,0.0,0.0,0.0,0.0,0.0,0.0,0.0,0.0,0.0,0.0,0.0,0.0,0.0,0.0,0.0,0.0,1.177,1.1893,1.1711,1.1277,1.1887,1.165,1.0486,1.0551,1.0426,0.0,0.0,0.0,0.0,0.0,0.0,0.0,0.0,0.0,0.0,0.0,0.0,0.0,0.0,0.0,0.0,0.0,0.0,0.0,0.0,0.0,0.0,0.0,0.0,0.0,0.0,0.0,0.0,0.0,0.0,0.0,0.0,0.0,0.0,0.0,0.0,0.0,0.0,0.0,0.0,0.0,1.782,1.7048,1.7783,1.8097,0.0,0.0,1.8436,1.7568,1.8866,1.9796,1.9198,0.0,0.0,0.0,0.0,0.0,0.0,0.0,0.0,0.0,0.0,0.0,0.0,0.0,0.0,0.0,0.0,0.0,0.0,0.0,0.0,0.0,0.0,0.0,0.0,0.0,0.0,0.0,0.0,0.0,0.0,0.0,0.0,0.0,0.0,0.0,0.0,0.0,0.0,0.0,0.0,0.0,0.0,0.0,0.0,0.0,0.0,0.0,0.0,0.0,0.0,0.0,0.0,0.0,1.1378,1.1396,1.1312,1.1182,1.0987,1.1336,1.1317,1.0922,1.0556,1.0551,0.0,0.0,0.0,0.0,0.0,0.0,0.0,0.0,0.0,0.0,0.0,0.0,0.0,0.0,0.0,0.0,0.0,0.0,0.0,0.0,0.0,0.0,0.0,0.0,0.0,0.0,0.0,0.0,0.7419,0.776,0.7487,0.0,0.0,0.0,0.0,0.0,0.0,0.0,0.0,0.0,0.0,1.6819,1.6815,1.734,0.0,0.0,1.8068,1.8344,1.8086,1.9381,2.0043,1.8999,1.9515,0.0,0.0,0.0,0.0,0.0,0.0,0.0,0.0,0.0,0.0,0.0,0.0,0.0,0.0,0.0,0.0,0.0,0.0,0.0,0.0,0.0,0.0,0.0,0.0,0.0,0.0,0.0,0.0,0.0,0.0,0.0,0.0,0.0,0.0,0.0,0.0,0.0,0.0,0.0,0.0,0.0,0.0,0.0,0.0,0.0,0.0,0.0,0.0,0.0,0.0,0.0,0.0,1.1545,1.1491,1.1428,1.1284,1.1099,1.1252,1.1276,1.1161,1.0669,1.0744,0.0,0.0,0.0,0.0,0.0,0.0,0.0,0.0,0.0,0.0,0.0,0.0,0.0,0.0,0.0,0.0,0.0,0.0,0.0,0.0,0.0,0.0,0.0,0.0,0.0,0.0,0.0,0.0,0.6904,0.7727,0.7738,0.0,0.0,0.0,0.0,0.0,0.0,0.0,0.0,0.0,0.0,1.6436,1.6797,1.7169,1.7516,1.7855,1.81,1.8277,1.838,1.9278,1.9625,1.8677,0.0,0.0,0.0,0.0,0.0,0.0,0.0,0.0,0.0,0.0,0.0,0.0,0.0,0.0,0.0,0.0,0.0,0.0,0.0,0.0,0.0,0.0,0.0,0.0,0.0,0.0,0.0,0.0,0.0,0.0,1.0993,0.0,0.0,0.0,0.0,0.0,0.0,0.0,0.0,0.0,0.0,0.0,0.0,0.0,0.0,0.0,0.0,0.0,0.0,0.0,0.0,0.0,0.0,1.216,1.218,1.2313,1.2143,1.1587,1.171,1.1478,1.0924,1.0889,1.0889,1.0914,0.0,0.0,0.0,0.0,0.0,0.0,0.0,0.0,0.0,0.0,0.0,0.0,0.0,0.0,0.0,0.0,0.0,0.0,0.0,0.0,0.0,0.0,0.0,0.0,0.0,0.0,1.2071,0.9105,0.7498,0.0,0.0,0.0,0.0,0.0,0.0,0.0,0.0,0.0,0.0,1.6793,1.7237,1.7146,1.759,1.7861,1.7861,1.8092,1.8323,1.8375,1.8333,1.8253,0.0,0.0,0.0,0.0,0.0,0.0,0.0,0.0,0.0,0.0,0.0,0.0,0.0,0.0,0.0,0.0,0.0,0.0,0.0,0.0,0.0,0.0,0.0,0.0,0.0,0.0,0.0,1.0213,1.0417,0.0,0.0,0.0,0.0,0.0,0.0,0.0,0.0,0.0,0.0,0.0,1.0874,1.146,0.0,0.0,0.0,0.0,0.0,0.0,0.0,0.0,0.0,0.0,0.0,0.0,1.1902,1.2239,1.2067,1.1705,1.1154,1.1175,1.0978,1.0516,1.0403,1.0422,1.0569,0.0,0.0,0.0,0.0,0.0,0.0,0.0,0.0,0.0,0.0,0.0,0.0,0.0,0.0,0.0,0.0,0.0,0.0,0.0,0.0,0.0,0.0,0.0,0.0,0.0,1.377,0.0,0.0,0.0,0.0,0.0,0.0,0.0,0.0,0.0,0.0,0.0,1.5544,1.6085,1.614,1.6012,1.5771,1.7019,1.7679,0.0,0.0,0.0,0.0,0.0,0.0,0.0,0.0,0.0,0.0,0.0,0.0,0.0,0.0,1.9155,1.9202,1.9714,2.0146,2.0151,0.0,0.0,0.0,0.0,0.0,0.0,0.0,0.0,0.0,0.0,0.0,0.0,0.0,0.0,1.0297,0.0,1.0475,0.0,0.0,0.0,0.0,0.0,0.0,0.0,0.0,1.13,1.1416,1.1308,1.1693,1.1693,0.0,1.1399,1.1502,0.0,0.0,0.0,0.0,0.0,0.0,0.0,0.0,1.2067,1.2225,1.23,1.2048,1.1514,1.1312,1.0989,1.0515,1.0168,1.0046,1.0122,1.0507,1.0603,0.0,0.0,0.0,0.0,0.0,0.0,0.0,0.0,0.0,0.0,0.0,0.0,0.0,0.0,0.0,0.0,0.0,0.0,0.0,0.0,0.0,0.0,0.0,1.3761,0.0,0.0,0.0,0.0,0.0,0.0,0.0,0.0,0.0,1.5781,1.5189,1.5005,1.5821,1.5669,1.5486,1.5552,0.0,0.0,0.0,0.0,0.0,0.0,0.0,1.8313,1.8263,1.8432,1.8685,1.9012,1.921,1.9366,1.9474,0.0,0.0,1.9488,1.9993,2.0442,2.0539,2.0752,2.0916,2.0891,2.0727,2.0592,0.0,0.0,0.0,0.0,0.0,0.0,0.0,0.0,1.0512,1.0626,0.0,1.0663,0.0,0.0,0.0,0.0,0.0,1.0591,0.0,0.0,1.185,1.2203,1.2191,1.2222,1.2119,1.1917,1.1632,1.1389,1.121,1.142,0.0,0.0,0.0,0.0,0.0,0.0,1.2621,1.2191,1.2997,1.3165,1.2555,1.2035,1.1456,1.0843,1.0174,0.978,0.9666,1.0433,1.0874,1.0838,1.1462,0.0,0.0,0.0,0.0,0.0,0.0,0.0,0.0,0.0,0.0,0.0,0.0,0.0,0.0,0.0,0.0,0.0,0.0,0.0,0.0,1.3312,0.0,0.0,0.0,0.0,0.0,0.0,0.0,0.0,0.0,0.0,1.4927,1.472,1.4745,1.5327,0.0,0.0,0.0,0.0,1.7028,1.7066,1.7506,1.7828,1.7771,1.8234,1.858,1.8453,0.0,0.0,1.9183,1.9241,1.9341,1.9524,1.9744,1.994,2.0018,2.012,2.0262,2.0486,2.0644,2.0639,2.0546,2.0438,2.0311,0.9775,0.0,0.0,0.0,0.0,1.0077,1.0426,1.0855,1.1206,1.1273,1.1117,1.1055,0.0,0.0,0.0,0.0,0.0,0.0,1.1261,1.1729,1.2298,1.2476,1.2299,1.2722,1.2733,1.2426,1.2584,1.2473,1.2119,1.2374,1.1965,1.0952,0.0,0.0,0.0,0.0,1.2272,1.2849,1.2929,1.2668,1.2103,1.1576,1.0866,0.9921,1.0074,1.0154,1.011,1.0337,1.0758,1.1345,1.1917,0.0,0.0,0.0,0.0,0.0,0.0,0.0,0.0,0.0,0.0,0.0,0.0,0.0,0.0,0.0,0.0,0.0,0.0,0.0,1.3638,1.437,1.4644,0.0,0.0,0.0,0.0,0.0,0.0,0.0,0.0,0.0,1.5164,1.5065,1.5111,0.0,0.0,1.5352,1.5259,1.6543,1.7365,1.6943,1.7853,0.0,1.8689,1.8953,1.9141,1.9046,1.9391,1.9673,1.9633,1.9987,2.0265,2.021,2.0263,2.0408,2.0739,2.0885,2.0975,2.1072,2.1266,2.1435,2.1421,2.1337,2.1306,1.0373,1.0075,0.9739,0.9715,0.993,1.0151,1.0479,1.0913,1.1397,1.1542,1.1436,1.1585,1.1375,1.0948,1.071,0.0,0.0,0.0,1.1695,1.2362,1.2648,1.2847,1.2991,1.3355,1.3407,1.3173,1.3396,1.3329,1.2924,1.2735,1.223,1.1451,0.0,0.0,1.1607,1.1891,1.223,1.2625,1.2693,1.2544,1.221,1.1692,1.1003,1.0183,1.0449,1.061,1.0622,1.0777,1.1101,1.1623,1.2197,1.2188,0.0,0.0,0.0,0.0,0.0,0.0,0.0,0.0,0.0,0.0,0.0,1.3976,1.3664,0.0,0.0,0.0,1.4118,1.4363,1.4657,1.4915,0.0,0.0,0.0,0.0,0.0,0.0,0.0,1.4956,1.5353,1.5626,1.5644,1.5835,1.5948,1.578,1.5544,1.5368,1.5365,0.0,1.7441,1.7085,1.8076,1.8876,1.8979,1.9077,1.9238,1.9457,1.9959,2.0273,2.0226,2.0477,2.0677,2.0644,2.0553,2.0587,2.0878,2.0966,2.1095,2.1395,2.162,2.1741,2.1745,2.1679,2.1602,1.1154,1.0679,0.9825,0.972,1.0132,1.0112,1.0359,1.0802,1.1317,1.1561,1.1622,1.2036,1.2037,1.1694,1.1257,0.0,1.0954,1.146,1.2087,1.281,1.2843,1.3195,1.3868,1.3868,1.3879,1.3917,1.3928,1.3791,1.3462,1.2655,1.221,1.2151,1.2236,1.1872,1.1121,1.2083,1.2377,1.1841,1.2404,1.2668,1.2628,1.2206,1.1676,1.1099,1.1135,1.1167,1.1179,1.1523,1.1722,1.1798,1.2404,1.2691,1.2548,0.0,0.0,0.0,0.0,0.0,0.0,0.0,0.0,0.0,0.0,0.0,0.0,0.0,0.0,0.0,1.5191,0.0,1.5983,1.5157,0.0,0.0,0.0,1.5125,1.6185,1.6174,1.6128,1.6242,0.0,0.0,1.6341,1.6901,1.7091,1.653,1.5927,1.5794,1.6474,1.7165,1.756,1.762,1.8375,1.8935,1.907,1.9076,1.929,1.9822,2.0407,2.0755,2.0747,2.0729,2.0751,2.0769,2.0629,2.0561,2.0686,2.0662,2.0763,2.1472,2.1584,2.1585,2.1534,2.1349,2.127,1.1404,1.1263,1.0791,1.0587,1.0594,1.0924,1.1129,1.1282,1.1696,1.1718,1.1463,1.1569,1.1378,1.0952,1.0858,1.0971,1.1292,1.1417,1.1726,1.2197,1.2215,1.243,1.2781,1.2769,1.2911,1.3157,1.3315,1.3183,1.2761,1.2697,1.233,1.1753,1.1533,1.1346,1.1246,1.1753,1.2053,1.2104,1.2484,1.2516,1.2105,1.2363,1.2053,1.1131,1.1512,1.1716,1.1716,1.18,1.1993,1.2318,1.2863,1.2633,1.1471,1.2188,0.0,0.0,0.0,0.0,0.0,0.0,0.0,0.0,0.0,1.3915,1.3971,0.0,1.3493,0.0,1.472,1.5679,1.632,1.6277,0.0,0.0,1.6559,1.6709,1.7086,1.7388,1.7555,1.7477,1.7609,1.7677,1.7662,1.7838,1.7907,1.7761,1.7699,1.7767,1.8046,1.8553,1.8944,1.9014,1.9569,2.0086,2.0039,2.0191,2.0303,2.0526,2.0692,2.0802,2.0818,2.0778,2.0794,2.0794,2.0769,2.0736,2.0761,2.0758,2.0774,2.095,2.0901,2.0787,2.0787,2.0794,2.0859,1.1501,1.1485,1.1302,1.1146,1.1068,1.1023,1.1008,1.1038,1.1493,1.1557,1.1353,1.1559,1.1405,1.0974,1.1189,1.1315,1.1377,1.1583,1.1859,1.2169,1.2169,1.2341,1.263,1.263,1.2776,1.3033,1.3156,1.3133,1.2994,1.2862,1.256,1.2129,1.1747,1.1553,1.1518,1.1479,1.1624,1.1916,1.2282,1.2324,1.2018,1.2448,1.2429,1.1886,1.214,1.2214,1.1996,1.1963,1.1938,1.1931,1.2579,1.2452,1.1399,1.2093,1.2168,0.0,0.0,0.0,0.0,0.0,0.0,0.0,0.0,0.0,0.0,0.0,1.4154,1.4426,1.5357,1.6036,1.624,1.6316,1.6418,1.6578,1.6987,1.735,1.7654,1.8106,1.8463,1.8597,1.8445,1.8412,1.8605,1.8676,1.8676,1.8712,1.9,1.9028,1.8594,1.8966,1.9408,1.9448,1.999,2.0318,2.0098,2.0457,2.0651,2.0408,2.0352,2.0447,2.0715,2.055,2.0431,2.0715,2.0785,2.0744,2.0687,2.065,2.0608,2.0521,2.0247,2.0161,2.0541,2.0687,2.0744,1.154,1.1622,1.1589,1.1551,1.1517,1.0894,1.0599,1.0606,1.106,1.1243,1.1226,1.1623,1.1573,1.1238,1.1631,1.1594,1.1238,1.1631,1.1961,1.2215,1.2227,1.2386,1.2701,1.2738,1.2849,1.3013,1.304,1.318,1.3408,1.2932,1.2674,1.2626,1.2188,1.1899,1.172,1.1244,1.1185,1.1586,1.2011,1.2182,1.2142,1.2466,1.2644,1.2706,1.2733,1.2575,1.2172,1.2098,1.1887,1.1458,1.2099,1.2295,1.1882,1.1951,1.2306,0.0,1.23,0.0,0.0,0.0,0.0,0.0,0.0,0.0,0.0,1.4934,1.5123,1.6064,1.6277,1.6311,1.6155,1.6043,1.6171,1.6641,1.7126,1.7577,1.8049,1.8519,1.8969,1.9378,1.8927,1.8761,1.9169,1.9269,1.9255,1.9262,1.9727,1.9701,1.8772,1.9097,1.9569,1.9442,1.9936,2.0238,1.9913,2.0247,2.0423,1.9901,1.9711,1.9878,2.0368,2.0115,1.9973,2.051,2.0665,2.0661,2.0568,2.051,2.0451,2.0417,2.0001,1.9872,2.0489,2.0601,2.0658,1.1802,1.2359,1.2043,1.1901,1.187,1.1485,1.1159,1.0899,1.1019,1.0903,1.0662,1.0756,1.0731,1.0662,1.0744,1.0744,1.0641,1.0731,1.095,1.125,1.1255,1.1414,1.169,1.1909,1.1992,1.1989,1.2215,1.2326,1.2387,1.2288,1.2084,1.1827,1.1455,1.1321,1.1379,0.0,0.0,0.0,1.2087,1.2357,1.2334,1.2256,1.2213,1.224,1.2395,0.0,1.2427,1.2506,1.2516,1.242,1.2466,0.0,0.0,0.0,0.0,0.0,0.0,0.0,0.0,0.0,0.0,0.0,1.4609,1.4922,1.5177,1.496,1.5237,1.629,1.5977,1.6045,1.6885,1.6967,1.7145,1.7651,1.7804,1.8072,1.8577,1.8779,1.8921,1.8996,1.8984,1.9014,1.9113,1.9134,1.9143,1.9181,1.9609,1.9838,1.9521,1.9844,2.0172,2.0218,2.0347,2.0481,2.0491,2.0129,1.9949,1.9609,1.9197,1.904,1.9222,1.9515,1.9696,2.0036,2.0365,2.0711,2.0736,2.0728,2.0695,2.0687,2.0577,2.0513,2.0478,2.0048,1.9864,1.1545,0.0,1.1748,1.1636,0.0,1.1323,1.1056,1.0779,1.1118,1.1151,1.1006,1.0998,1.0998,1.0976,1.0809,1.0846,1.099,1.083,1.099,1.1455,1.162,1.1716,1.1801,1.211,1.2136,1.1902,1.2026,1.2088,1.2088,1.2088,1.2024,1.1846,1.1669,1.1626,1.1696,1.1593,1.1542,1.1551,1.2024,1.2263,1.2303,1.234,1.2395,1.2491,1.2528,0.0,0.0,0.0,0.0,0.0,0.0,0.0,0.0,0.0,0.0,1.358,1.3907,1.4156,1.4249,1.4293,1.4357,1.4499,1.4996,1.537,1.5584,1.5776,1.6134,1.6669,1.6493,1.6568,1.712,1.7222,1.7313,1.7578,1.7686,1.7868,1.8117,1.8295,1.8481,1.8669,1.8769,1.887,1.9073,1.9106,1.9106,1.9101,1.9314,1.95,1.9533,2.0083,2.0533,2.0458,2.0543,2.0603,2.0671,2.046,2.0169,2.0115,1.9617,1.9381,1.968,1.9657,1.9743,2.0137,2.0523,2.0728,2.0662,2.0638,2.0645,2.0572,2.0304,2.0209,2.0334,2.0254,2.0212,1.1226,1.1147,1.1319,1.1272,1.1082,1.1019,1.0843,1.0631,0.0,0.0,0.0,1.1225,1.1233,1.121,1.0954,1.0977,1.1202,1.0989,1.1176,1.1712,1.2015,1.2086,1.1989,1.2259,1.2191,1.1826,1.1796,1.1797,1.1806,1.1797,1.1794,1.1806,1.1785,1.1834,1.1955,1.2163,1.2067,1.1679,1.195,1.213,1.2217,1.2392,1.2584,1.2784,1.2689,1.2701,1.2883,1.289,1.2871,1.2823,1.3153,1.317,1.2829,1.356,1.3836,1.3514,1.3824,1.4104,1.4257,1.4236,1.4384,1.4835,1.5322,1.5718,1.6021,1.6531,1.6873,1.6947,1.7052,1.7126,1.7188,1.7233,1.723,1.7248,1.7427,1.756,1.7601,1.7757,1.8059,1.8319,1.8387,1.8514,1.8808,1.886,1.8898,1.8941,1.9021,1.9157,1.931,1.9957,2.0375,2.039,2.0441,2.0535,2.0529,2.0382,2.0481,2.0259,1.9686,1.9585,2.0058,1.9916,1.9852,2.0317,2.065,2.0712,2.0603,2.0586,2.0527,2.0475,1.9998,1.975,2.038,2.0663,2.0707,1.1136,1.1674,1.1476,1.1381,1.1335,1.1094,1.0954,1.0871,1.041,1.0215,1.02,1.0222,1.0222,1.0215,1.0165,1.0165,1.0208,1.0336,1.0588,1.0952,1.113,1.1189,1.1173,1.1202,1.106,1.0742,1.0677,1.0631,1.0652,1.0652,1.0652,1.0665,1.0631,1.0914,1.1406,1.189,1.2144,1.2194,1.212,1.2155,1.2281,1.2165,1.2157,1.2296,1.234,1.2383,1.2488,1.2499,1.2717,1.3194,1.3168,1.3452,1.4155,1.4305,1.4538,1.4797,1.4889,1.4924,1.4971,1.4959,1.5095,1.5434,1.5557,1.5766,1.6133,1.6247,1.6437,1.6701,1.6765,1.6892,1.7157,1.7274,1.7347,1.7437,1.757,1.7696,1.7798,1.7858,1.7932,1.8023,1.7979,1.8009,1.8119,1.8119,1.8218,1.8356,1.8698,1.9137,1.959,1.9729,1.9791,2.0008,2.0102,2.0061,2.0001,1.9487,1.9373,1.9105,1.8711,1.855,1.8935,1.9205,1.9477,1.9861,2.0356,2.0654,2.0687,2.0761,2.0703,2.067,2.0505,2.0569,2.0704,2.0738,2.0605,1.0806,1.0983,1.1013,1.093,1.0788,1.0666,1.0535,1.0399,1.0235,1.0302,1.0548,1.055,1.061,1.0686,1.0524,1.0583,1.0859,1.0746,1.0877,1.1242,1.1448,1.1428,1.1242,1.14,1.1211,1.0734,1.0682,1.0584,1.0405,1.041,1.041,1.041,1.041,1.0537,1.0812,1.1053,1.1217,1.1283,1.1886,1.2273,1.2392,1.2254,1.2254,1.246,1.2449,1.2589,1.2934,1.2945,1.3137,1.3563,1.3518,1.3638,1.3989,1.4272,1.453,1.4709,1.4949,1.5108,1.5108,1.5108,1.5153,1.5311,1.5322,1.5412,1.558,1.5957,1.6276,1.6414,1.6414,1.6489,1.6652,1.6735,1.6903,1.716,1.7326,1.7533,1.775,1.7862,1.7912,1.7912,1.7912,1.7912,1.7912,1.7979,1.8069,1.8222,1.8509,1.887,1.9306,1.9236,1.9323,1.9866,1.9997,1.9969,1.9889,1.9687,1.95,1.9453,1.9168,1.9046,1.9166,1.9438,1.9555,1.9767,2.0112,2.0258,2.0275,2.0402,2.0494,2.0536,2.0595,2.0661,2.0687,2.0509,2.0162,1.0677,1.0508,1.0623,1.055,1.0315,1.0315,1.0161,1.0015,1.0219,1.0497,1.0801,1.0787,1.0905,1.1099,1.0809,1.0952,1.1358,1.1166,1.1196,1.1512,1.1692,1.1609,1.1321,1.1451,1.1227,1.0748,1.0663,1.0493,1.0264,1.0241,1.0241,1.0247,1.0301,1.0335,1.0348,1.0377,1.041,1.0474,1.1367,1.1993,1.2261,1.2286,1.2397,1.2627,1.2532,1.2669,1.313,1.3132,1.3254,1.3555,1.3579,1.3589,1.3622,1.3987,1.4222,1.4245,1.4547,1.4823,1.4937,1.5051,1.5108,1.5108,1.5108,1.5108,1.5142,1.5603,1.5991,1.6057,1.6068,1.61,1.6253,1.6326,1.6486,1.682,1.701,1.7233,1.7481,1.7679,1.7801,1.7788,1.796,1.8089,1.7987,1.8156,1.8328,1.83,1.8478,1.8697,1.8822,1.8764,1.8963,1.9361,1.9584,1.9626,1.9734,1.9596,1.9573,1.9719,1.9663,1.9582,1.9671,1.965,1.9691,1.9747,1.9769,1.9834,1.9846,2.0054,2.0218,2.0252,2.0375,2.0536,2.0687,2.024,1.9838,1.102,1.099,1.0755,1.055,1.0333,1.0327,1.0292,1.0268,1.0292,1.0309,1.0408,1.0124,1.0289,1.0593,1.0398,1.0574,1.0993,1.1136,1.1218,1.1239,1.1142,1.1076,1.1007,1.0547,1.0253,1.0174,0.9972,0.9879,0.9817,0.9795,0.9758,0.9788,1.0013,1.0113,1.0124,1.0283,1.0384,1.041,1.0517,1.0914,1.1569,1.2064,1.2369,1.2517,1.2406,1.2357,1.2434,1.2298,1.2427,1.2846,1.2887,1.3112,1.3515,1.3644,1.3668,1.367,1.3717,1.394,1.4443,1.4857,1.5085,1.5108,1.5108,1.5108,1.5108,1.5176,1.5334,1.558,1.5657,1.5845,1.6225,1.6367,1.6488,1.6659,1.682,1.695,1.7023,1.7261,1.7434,1.7434,1.8092,1.8524,1.8024,1.833,1.8625,1.852,1.872,1.8931,1.8988,1.8642,1.839,1.8462,1.8407,1.8658,1.8983,1.8695,1.8777,1.91,1.9195,1.9281,1.9351,1.9117,1.8924,1.9437,1.942,1.9299,1.9662,2.0008,1.9953,1.9921,2.0119,2.0461,2.0633,2.0335,1.9949,0.9679,0.9707,1.007,1.0349,1.0539,1.0707,1.0665,1.0556,1.0707,1.0773,1.0755,1.062,1.0566,1.0604,1.0605,1.0761,1.1028,1.1217,1.1303,1.13,1.1096,1.0979,1.0949,1.059,1.0294,1.0112,0.9978,0.9853,0.9727,0.9701,0.9701,0.9708,0.9824,0.9757,0.9598,0.9648,0.9626,0.9472,0.9775,1.0084,1.0438,1.1246,1.1927,1.2323,1.2323,1.2295,1.2295,1.2258,1.2274,1.2378,1.2393,1.2476,1.2693,1.2965,1.3124,1.3136,1.3432,1.3823,1.4361,1.4581,1.48,1.5085,1.5108,1.5108,1.5108,1.5108,1.5165,1.5289,1.5368,1.5547,1.5812,1.5969,1.6133,1.6349,1.6489,1.6639,1.6899,1.7023,1.7105,1.7144,1.7672,1.805,1.7886,1.8345,1.8761,1.8799,1.8825,1.8798,1.9002,1.8687,1.8544,1.8625,1.8439,1.8303,1.8535,1.8395,1.8482,1.8903,1.9106,1.9132,1.8759,1.8584,1.8543,1.8924,1.8657,1.8562,1.88,1.9062,1.9167,1.9303,1.9799,2.0237,2.0512,2.0679,2.0602,0.8727,0.8799,0.9325,0.9796,1.0164,1.0353,1.0336,1.02,1.0358,1.047,1.0527,1.0478,1.0377,1.0331,1.0816,1.1207,1.1447,1.1576,1.1653,1.1619,1.138,1.1253,1.1213,1.0858,1.0624,1.0452,1.0321,1.0142,0.9955,0.9941,0.9935,0.9943,0.9854,0.9653,0.9371,0.9264,0.9071,0.8871,0.9198,0.9458,0.9692,1.04,1.1209,1.194,1.2163,1.2237,1.2258,1.2237,1.2209,1.2122,1.2088,1.2088,1.2101,1.2427,1.2604,1.264,1.3086,1.3551,1.3942,1.4094,1.4316,1.464,1.4674,1.4766,1.488,1.4914,1.5028,1.5232,1.5289,1.5413,1.5491,1.5592,1.577,1.6058,1.6143,1.6293,1.6545,1.6775,1.6979,1.7004,1.7729,1.8074,1.8153,1.8455,1.8677,1.8764,1.854,1.8382,1.8583,1.833,1.8132,1.8423,1.7943,1.7872,1.8245,1.8286,1.8519,1.8883,1.9106,1.8961,1.8424,1.8288,1.8129,1.8376,1.799,1.7827,1.7987,1.8143,1.8414,1.8699,1.9279,2.0039,2.0534,2.1009,2.1308,0.8835,0.8675,0.8742,0.8789,0.8822,0.8865,0.8846,0.8912,0.8884,0.8965,0.9174,0.9183,0.9219,0.9512,1.081,1.177,1.2126,1.2071,1.2058,1.2032,1.1828,1.1817,1.1826,1.1279,1.1062,1.1061,1.0682,1.0523,1.0544,1.0548,1.0575,1.0548,1.0234,0.9932,0.9673,0.9405,0.9078,0.8871,0.8891,0.9094,0.9523,0.9645,1.028,1.1242,1.1828,1.2076,1.2101,1.2113,1.2122,1.2088,1.2088,1.2088,1.2101,1.2126,1.2153,1.219,1.2567,1.2859,1.2991,1.3374,1.3681,1.3717,1.38,1.3918,1.4373,1.4431,1.4709,1.539,1.5378,1.5412,1.5549,1.557,1.5637,1.5814,1.5836,1.5881,1.5917,1.6629,1.7023,1.7278,1.82,1.8899,1.9232,1.8749,1.8434,1.8329,1.8072,1.7877,1.7872,1.7439,1.7202,1.7104,1.6874,1.6743,1.8453,1.8422,1.8424,1.8771,1.8898,1.8991,1.8642,1.8303,1.8062,1.7714,1.7104,1.6901,1.7133,1.7442,1.7804,1.8301,1.9117,1.9836,2.0316,2.101,2.1396,0.7599,0.7921,0.7921,0.8227,0.8684,0.8703,0.8703,0.8703,0.8703,0.8737,0.8837,0.9024,0.9197,0.9358,1.0084,1.0489,1.0595,1.0707,1.0776,1.0728,1.0476,1.0359,1.0324,0.9921,1.0069,1.0531,1.0433,1.0608,1.1029,1.078,1.0687,1.0784,1.0557,1.0254,0.9972,0.9845,0.9544,0.9125,0.9044,0.9065,0.9147,0.9413,0.9814,1.0221,1.1108,1.159,1.1581,1.1902,1.2088,1.2088,1.2088,1.2088,1.2088,1.2088,1.2088,1.2113,1.2264,1.2479,1.2764,1.2967,1.3242,1.3563,1.361,1.3646,1.3847,1.3975,1.4234,1.4731,1.4971,1.5245,1.5867,1.5849,1.5703,1.5781,1.5815,1.5959,1.6259,1.6593,1.6892,1.7326,1.8093,1.8733,1.9095,1.8757,1.8399,1.8398,1.7882,1.7593,1.7676,1.7374,1.7109,1.736,1.7314,1.7361,1.7958,1.7974,1.7901,1.8285,1.8501,1.8446,1.8202,1.7839,1.7563,1.7514,1.6779,1.648,1.6887,1.7272,1.7563,1.7844,1.8681,1.9594,1.996,2.0748,2.1314,0.6695,0.7072,0.7103,0.7426,0.7882,0.794,0.7921,0.7929,0.7962,0.8045,0.8143,0.8374,0.8541,0.8676,0.8885,0.8972,0.899,0.9573,0.989,0.9873,0.971,0.9621,0.9578,0.9308,0.9488,1.0065,1.0284,1.0725,1.1294,1.1045,1.0941,1.0962,1.0821,1.051,1.0165,1.0105,0.9845,0.9437,0.9351,0.9217,0.9025,0.9278,0.9421,0.9493,1.0259,1.0943,1.1267,1.1815,1.2088,1.2088,1.2088,1.2168,1.2275,1.2294,1.2294,1.2306,1.2306,1.237,1.2535,1.2579,1.2735,1.3069,1.3096,1.3134,1.3302,1.342,1.3793,1.4337,1.4616,1.5088,1.5806,1.588,1.5881,1.6169,1.6175,1.6295,1.6787,1.7039,1.7399,1.7905,1.833,1.8755,1.9037,1.8714,1.8487,1.843,1.7692,1.7344,1.7308,1.7175,1.7042,1.7321,1.7268,1.7192,1.7447,1.739,1.7582,1.7948,1.8166,1.8058,1.788,1.7471,1.7236,1.7179,1.6974,1.6657,1.6719,1.7125,1.7371,1.7554,1.8441,1.9514,1.9988,2.0536,2.1042,0.6326,0.6361,0.6322,0.6421,0.6549,0.6549,0.6407,0.6526,0.6608,0.6837,0.7037,0.7061,0.7317,0.7383,0.7548,0.7438,0.7832,0.901,0.9616,0.9645,0.9685,0.9661,0.9622,0.9335,0.9408,0.9827,1.0397,1.0888,1.1337,1.1253,1.1125,1.1046,1.1045,1.0755,1.0158,1.0214,1.0027,0.9794,0.9727,0.9539,0.9244,0.9266,0.9193,0.9004,0.9505,1.0262,1.1201,1.1733,1.193,1.1989,1.2054,1.2281,1.2634,1.2698,1.2698,1.2702,1.2702,1.2499,1.2221,1.2181,1.2178,1.2261,1.2166,1.2427,1.2737,1.2873,1.3358,1.4267,1.4599,1.4925,1.5548,1.5671,1.6018,1.706,1.6753,1.674,1.7339,1.7881,1.8386,1.8785,1.8982,1.9159,1.9108,1.8829,1.8508,1.8176,1.7699,1.7236,1.7052,1.6952,1.6678,1.6636,1.6863,1.7031,1.6944,1.6895,1.7282,1.7631,1.7811,1.7835,1.7689,1.7387,1.7241,1.7165,1.7024,1.6743,1.6988,1.738,1.7801,1.8129,1.8912,1.9401,1.9763,2.0224,2.0754,0.6388,0.633,0.6501,0.6522,0.6453,0.6426,0.6484,0.6569,0.6529,0.6589,0.6747,0.6874,0.7007,0.7097,0.7178,0.7254,0.7392,0.7902,0.817,0.8262,0.828,0.8299,0.8281,0.8174,0.8463,0.9086,0.9627,1.0333,1.0978,1.079,1.0871,1.145,1.1383,1.1192,1.0972,1.0822,1.0575,1.0316,1.0102,0.984,0.9565,0.956,0.9492,0.9496,0.9932,1.0411,1.0733,1.0868,1.0935,1.0973,1.1589,1.2298,1.2931,1.3107,1.313,1.308,1.2849,1.2674,1.2505,1.2235,1.2088,1.2088,1.2088,1.2141,1.2329,1.2689,1.3242,1.4061,1.444,1.5042,1.585,1.5814,1.599,1.6687,1.6641,1.6917,1.7718,1.8346,1.877,1.8952,1.9039,1.9104,1.9085,1.8819,1.8558,1.8462,1.8072,1.7735,1.7664,1.754,1.7488,1.7223,1.716,1.6873,1.6752,1.6683,1.6882,1.7194,1.7371,1.7473,1.7359,1.738,1.7239,1.7231,1.7075,1.714,1.7369,1.7708,1.8158,1.8535,1.9101,1.9357,1.9469,1.9821,2.0313,0.646,0.6386,0.6556,0.6583,0.6498,0.6495,0.6583,0.6675,0.66,0.6644,0.6772,0.69,0.6999,0.7041,0.7135,0.7193,0.7255,0.7244,0.7394,0.7557,0.7584,0.7544,0.7504,0.7499,0.8015,0.8758,0.9109,0.9747,1.0723,1.0639,1.0843,1.1338,1.1537,1.1516,1.1412,1.1226,1.1009,1.0751,1.055,1.0232,0.9933,0.9861,0.9793,0.9772,1.0034,1.0179,1.0208,1.0156,1.0341,1.0745,1.1374,1.2031,1.2706,1.2968,1.3145,1.3129,1.3018,1.2886,1.2702,1.2321,1.2088,1.2107,1.2239,1.2321,1.242,1.2818,1.3394,1.4021,1.4437,1.5036,1.5759,1.5755,1.5812,1.6372,1.6455,1.6876,1.7686,1.8112,1.8273,1.8307,1.8483,1.8588,1.8431,1.8539,1.835,1.8321,1.8154,1.8071,1.8099,1.8131,1.7843,1.7565,1.736,1.7011,1.6611,1.6523,1.6523,1.6716,1.6933,1.6965,1.6938,1.7149,1.7173,1.7511,1.7519,1.7744,1.7994,1.8294,1.8671,1.9029,1.9203,1.9232,1.9314,1.9401,1.9763,0.6428,0.6434,0.6505,0.6559,0.6546,0.6546,0.6641,0.6725,0.6695,0.6779,0.6906,0.7021,0.71,0.7104,0.7112,0.7131,0.7164,0.719,0.7376,0.7605,0.7687,0.7667,0.761,0.7593,0.8087,0.8825,0.878,0.9222,1.0099,1.0496,1.094,1.1004,1.1529,1.1786,1.1584,1.1472,1.1252,1.1042,1.0942,1.0608,1.0167,1.0125,1.004,0.9814,0.9858,0.9894,0.9924,0.9935,1.0314,1.1137,1.1299,1.1563,1.2,1.2534,1.2887,1.289,1.313,1.3027,1.273,1.2485,1.2272,1.2309,1.2569,1.2716,1.2794,1.3223,1.3749,1.4286,1.457,1.489,1.537,1.5442,1.5681,1.6119,1.6398,1.6797,1.7142,1.7296,1.7424,1.7448,1.7685,1.7877,1.7476,1.7788,1.7823,1.7706,1.7677,1.7797,1.7812,1.7812,1.7766,1.7492,1.7081,1.686,1.6374,1.6489,1.65,1.6566,1.6707,1.6695,1.6673,1.6865,1.7135,1.7498,1.7804,1.8131,1.8455,1.8617,1.8838,1.9048,1.9121,1.9106,1.9159,1.9275,1.9314,0.5676,0.5644,0.6549,0.6884,0.6796,0.6789,0.6867,0.6979,0.6884,0.6896,0.7028,0.7078,0.7117,0.7117,0.7117,0.7115,0.7125,0.714,0.7307,0.7623,0.7785,0.7845,0.7874,0.7866,0.8016,0.8324,0.8316,0.8622,0.941,0.9692,1.0299,1.1497,1.143,1.1821,1.2271,1.1697,1.1399,1.1232,1.0878,1.068,1.0517,1.0466,1.0439,1.0385,1.0345,1.0323,1.0352,1.0358,1.058,1.1071,1.1152,1.1539,1.2162,1.2467,1.258,1.2621,1.2822,1.2951,1.2876,1.2851,1.2926,1.2975,1.2923,1.3144,1.3153,1.3636,1.4059,1.4426,1.4759,1.5119,1.5357,1.542,1.5512,1.5695,1.6339,1.6894,1.7078,1.7211,1.7213,1.724,1.7327,1.7285,1.7213,1.7312,1.7493,1.7414,1.7456,1.7551,1.7518,1.7431,1.7369,1.6717,1.6326,1.6303,1.626,1.6411,1.6489,1.65,1.6566,1.6577,1.6566,1.6635,1.6906,1.7222,1.7429,1.7717,1.8185,1.8521,1.8769,1.8926,1.9026,1.9007,1.9087,1.9164,1.9188,0.4843,0.4853,0.5947,0.639,0.6386,0.6711,0.6967,0.7051,0.6972,0.6964,0.7093,0.7117,0.7117,0.7117,0.7117,0.7117,0.7117,0.7117,0.7267,0.7592,0.7888,0.8098,0.818,0.8117,0.8068,0.8215,0.8085,0.8309,0.8798,0.9057,0.9761,1.0408,1.0816,1.1315,1.1916,1.1613,1.1376,1.1494,1.1172,1.0875,1.0771,1.0653,1.0586,1.0586,1.0586,1.0586,1.0586,1.0586,1.0687,1.0852,1.09,1.114,1.1626,1.1965,1.2074,1.2089,1.2322,1.2458,1.2458,1.249,1.2586,1.2769,1.2802,1.3056,1.3416,1.3844,1.4043,1.4513,1.4944,1.5191,1.5298,1.5376,1.5405,1.5497,1.604,1.6446,1.6448,1.6385,1.6429,1.65,1.6666,1.6708,1.6539,1.6726,1.691,1.6965,1.6989,1.7123,1.7218,1.7075,1.6777,1.6082,1.5727,1.5742,1.5679,1.576,1.6054,1.613,1.6414,1.6425,1.6446,1.6457,1.665,1.6905,1.7073,1.7334,1.7801,1.8187,1.8403,1.8572,1.876,1.8912,1.8969,1.9016,1.9026,0.3976,0.4053,0.499,0.5381,0.5518,0.6344,0.6745,0.6901,0.6952,0.7006,0.7078,0.7117,0.7117,0.7117,0.7117,0.7117,0.7117,0.7117,0.7323,0.7614,0.7962,0.8283,0.8483,0.8277,0.8284,0.8464,0.8207,0.8249,0.8535,0.8931,0.9134,0.953,0.995,1.0434,1.0995,1.0969,1.1217,1.1491,1.1172,1.0969,1.0889,1.074,1.0593,1.0586,1.0586,1.0586,1.0586,1.0586,1.0604,1.0595,1.0586,1.0667,1.076,1.1178,1.1358,1.1485,1.1707,1.1914,1.1895,1.1772,1.178,1.2289,1.2209,1.2419,1.3319,1.3561,1.3787,1.4381,1.4804,1.4843,1.5034,1.5186,1.5318,1.5366,1.5473,1.5439,1.542,1.542,1.542,1.5425,1.5921,1.5864,1.5738,1.581,1.6212,1.6275,1.6291,1.6262,1.6272,1.6093,1.5804,1.5376,1.5223,1.524,1.513,1.5028,1.5378,1.5668,1.6096,1.6272,1.6303,1.6348,1.6457,1.6631,1.681,1.7031,1.7323,1.7659,1.7942,1.8187,1.8354,1.8601,1.8798,1.8831,1.886,0.3128,0.3149,0.4142,0.4548,0.4725,0.5549,0.5985,0.6046,0.6731,0.6904,0.7044,0.7051,0.701,0.7035,0.6969,0.7117,0.7039,0.7102,0.7363,0.7812,0.8072,0.834,0.8538,0.8468,0.8513,0.8562,0.8521,0.8492,0.8605,0.8715,0.9082,0.9597,0.9407,0.9842,1.0498,1.0158,1.0217,1.0718,1.0457,1.056,1.087,1.0748,1.0613,1.0609,1.0586,1.0586,1.0586,1.0586,1.0586,1.0586,1.0586,1.0586,1.0649,1.0744,1.0839,1.0966,1.1308,1.1583,1.1645,1.1874,1.2259,1.2294,1.2251,1.2492,1.2674,1.2934,1.3275,1.3698,1.3683,1.3885,1.4365,1.4603,1.4839,1.5133,1.5308,1.5337,1.5381,1.5405,1.542,1.5439,1.5512,1.5555,1.5415,1.5497,1.5657,1.5628,1.5542,1.539,1.5315,1.5266,1.4963,1.4748,1.4593,1.4601,1.4516,1.4536,1.4949,1.5266,1.5657,1.5954,1.5987,1.614,1.6218,1.6371,1.6565,1.6789,1.7021,1.7167,1.7455,1.7707,1.7958,1.8117,1.8299,1.8451,1.8606,0.2182,0.2252,0.3217,0.3633,0.381,0.4627,0.5049,0.5144,0.5536,0.578,0.578,0.578,0.5788,0.5835,0.6217,0.6437,0.6608,0.6967,0.7428,0.7864,0.8082,0.8252,0.8546,0.8616,0.8616,0.8594,0.8608,0.8616,0.8616,0.8626,0.8778,0.9103,0.8818,0.906,0.9707,0.9371,0.9612,1.0219,1.0302,1.0403,1.0564,1.0751,1.07,1.0635,1.0586,1.0586,1.0586,1.0586,1.0586,1.0586,1.0586,1.0586,1.0586,1.0586,1.0586,1.0665,1.0854,1.1068,1.1209,1.1389,1.168,1.2012,1.1795,1.2027,1.2197,1.2366,1.2504,1.2956,1.3115,1.3267,1.3803,1.3953,1.4252,1.446,1.4815,1.4839,1.4682,1.5006,1.542,1.542,1.5425,1.5439,1.542,1.542,1.5434,1.5526,1.5526,1.5368,1.5255,1.5125,1.4576,1.4275,1.4045,1.3927,1.387,1.4083,1.4581,1.488,1.5176,1.539,1.549,1.5713,1.5934,1.6163,1.6436,1.6554,1.6755,1.6884,1.7042,1.7331,1.7557,1.7629,1.7781,1.8028,1.8147,0.1413,0.1482,0.2329,0.2691,0.2822,0.3671,0.4095,0.4096,0.4241,0.4546,0.4338,0.4298,0.4619,0.4555,0.5171,0.5567,0.5989,0.6527,0.717,0.8005,0.8042,0.8228,0.8516,0.8611,0.8583,0.8554,0.859,0.8616,0.8616,0.8608,0.8595,0.8401,0.82,0.8455,0.8754,0.8709,0.8903,0.9587,0.9865,1.0082,1.0165,1.0495,1.0607,1.064,1.0586,1.0586,1.0586,1.0586,1.0586,1.0586,1.0586,1.0586,1.0586,1.0586,1.0586,1.0586,1.0649,1.0681,1.0713,1.0728,1.0926,1.1334,1.0958,1.1123,1.1756,1.174,1.1818,1.2212,1.2566,1.2887,1.3275,1.3342,1.3396,1.3623,1.4082,1.4022,1.3848,1.4505,1.4913,1.5235,1.5308,1.542,1.542,1.542,1.542,1.542,1.542,1.5371,1.5254,1.5039,1.4535,1.4154,1.3996,1.3869,1.3824,1.3539,1.4046,1.435,1.4651,1.48,1.4971,1.5255,1.5557,1.6065,1.6315,1.6412,1.6498,1.6639,1.682,1.7065,1.7115,1.7154,1.7362,1.7615,1.7686,0.1413,0.1413,0.1575,0.1704,0.1881,0.2744,0.314,0.3282,0.3878,0.4287,0.4227,0.4338,0.4229,0.4362,0.4456,0.5025,0.5622,0.6055,0.678,0.7784,0.7979,0.8174,0.8425,0.8599,0.8558,0.8412,0.8476,0.8616,0.8616,0.8608,0.8567,0.8497,0.8342,0.8301,0.8171,0.8057,0.8329,0.8856,0.9034,0.9204,0.9555,0.9906,1.0314,1.0518,1.0586,1.0586,1.0586,1.0586,1.0586,1.0586,1.0586,1.0586,1.0586,1.0586,1.0586,1.0586,1.0586,1.0586,1.0586,1.0602,1.064,1.0719,1.0656,1.0609,1.0895,1.0911,1.1178,1.1577,1.1988,1.2266,1.2474,1.2627,1.2948,1.329,1.3502,1.3586,1.3487,1.3758,1.4133,1.4436,1.4903,1.5337,1.525,1.5235,1.5289,1.5332,1.542,1.5303,1.5137,1.4961,1.4668,1.4355,1.4095,1.3988,1.3887,1.3466,1.344,1.3714,1.3987,1.4177,1.4398,1.4766,1.5153,1.5512,1.5932,1.6151,1.6272,1.6446,1.6588,1.6767,1.6735,1.6693,1.6913,1.7152,1.7258,0.1422,0.146,0.1452,0.1467,0.1597,0.2,0.2208,0.223,0.2651,0.2861,0.2869,0.2891,0.2921,0.3076,0.3532,0.4226,0.4967,0.512,0.5916,0.6933,0.7191,0.7598,0.8125,0.8385,0.8367,0.833,0.8476,0.8616,0.8616,0.8616,0.8571,0.844,0.8346,0.8199,0.802,0.7918,0.8007,0.8304,0.8528,0.8674,0.8956,0.9343,0.9941,1.0417,1.057,1.0586,1.0586,1.0586,1.0586,1.0586,1.0586,1.0586,1.0586,1.0586,1.0586,1.0586,1.0586,1.0586,1.0586,1.0586,1.0609,1.0609,1.0586,1.0586,1.0586,1.0665,1.083,1.1185,1.1381,1.1646,1.1919,1.2027,1.2197,1.2474,1.2773,1.2819,1.2766,1.3123,1.3381,1.3599,1.3914,1.4356,1.4868,1.4927,1.5089,1.5235,1.5337,1.5216,1.5002,1.4905,1.4727,1.4516,1.4209,1.3939,1.3794,1.3419,1.3121,1.3306,1.3428,1.3634,1.3754,1.4071,1.4398,1.4743,1.5186,1.5711,1.6239,1.6468,1.6489,1.6502,1.6543,1.6573,1.6584,1.6659,1.6818,0.1431,0.1506,0.1507,0.15,0.1537,0.1553,0.1575,0.1538,0.1583,0.163,0.1512,0.1592,0.1658,0.1814,0.2437,0.3274,0.4203,0.4127,0.4871,0.59,0.6331,0.6837,0.7484,0.806,0.8273,0.8278,0.8476,0.8594,0.8616,0.8616,0.8501,0.8427,0.8337,0.8199,0.802,0.7866,0.7902,0.8046,0.8413,0.8528,0.8555,0.8894,0.9496,1.0165,1.0317,1.0368,1.0421,1.0556,1.0637,1.066,1.0656,1.0586,1.0586,1.0586,1.0586,1.0586,1.0586,1.0586,1.0586,1.0586,1.0586,1.0586,1.0586,1.0586,1.0586,1.0618,1.0719,1.0965,1.1059,1.1216,1.1529,1.156,1.1607,1.1763,1.2066,1.2228,1.212,1.2274,1.2574,1.2773,1.2971,1.3427,1.4028,1.4282,1.4386,1.444,1.4549,1.4868,1.4718,1.4916,1.4792,1.4612,1.4328,1.3916,1.3657,1.3365,1.3154,1.3182,1.321,1.3274,1.3286,1.3336,1.373,1.4223,1.464,1.5186,1.5832,1.6326,1.6261,1.625,1.6391,1.65,1.6532,1.6543,1.6629,0.1431,0.1505,0.1486,0.154,0.1584,0.1522,0.1548,0.1566,0.1591,0.1591,0.1568,0.1591,0.1578,0.1655,0.1706,0.2358,0.2957,0.3322,0.3913,0.5015,0.5778,0.6262,0.6935,0.801,0.8005,0.8073,0.8388,0.859,0.859,0.8568,0.8592,0.8501,0.8349,0.8195,0.7995,0.7894,0.7707,0.7653,0.7845,0.8082,0.8291,0.8305,0.8495,0.8936,0.9371,0.9788,1.006,1.0302,1.0576,1.078,1.0681,1.0606,1.0586,1.0586,1.0586,1.0586,1.0586,1.0586,1.0586,1.0586,1.0586,1.0586,1.0586,1.0586,1.0586,1.0609,1.0672,1.0791,1.0839,1.0996,1.1279,1.135,1.1428,1.1537,1.1709,1.1779,1.17,1.1817,1.2058,1.2058,1.2274,1.2766,1.3306,1.3487,1.3638,1.3692,1.3812,1.4142,1.4454,1.4632,1.4801,1.4616,1.4387,1.3998,1.3662,1.3352,1.3101,1.3083,1.3051,1.3017,1.3043,1.3118,1.3384,1.3848,1.4224,1.4514,1.496,1.5366,1.5722,1.6009,1.6151,1.6337,1.65,1.6513,1.65,0.1504,0.1556,0.1556,0.1581,0.1593,0.1557,0.1559,0.1595,0.1598,0.1598,0.1599,0.1584,0.1592,0.1592,0.1592,0.181,0.217,0.2315,0.2866,0.3713,0.4452,0.4884,0.5554,0.6623,0.723,0.7424,0.8006,0.8476,0.848,0.8538,0.8575,0.8448,0.8431,0.8292,0.8003,0.7939,0.787,0.7756,0.7673,0.7951,0.8351,0.8234,0.8176,0.8881,0.9112,0.9287,0.9513,0.9915,1.0169,1.036,1.0425,1.0593,1.0586,1.0586,1.0586,1.0586,1.0586,1.0586,1.0586,1.057,1.0586,1.0586,1.0586,1.0586,1.0586,1.0609,1.0656,1.0791,1.0807,1.0933,1.1138,1.1256,1.1341,1.1435,1.1513,1.156,1.1576,1.1591,1.1685,1.1622,1.1638,1.2158,1.2597,1.2788,1.3046,1.3326,1.3403,1.3619,1.3995,1.4324,1.4492,1.4587,1.4343,1.4055,1.375,1.3436,1.302,1.2939,1.2976,1.2932,1.2954,1.3077,1.3284,1.3344,1.3524,1.3822,1.4129,1.4663,1.5243,1.56,1.5909,1.6086,1.6284,1.6489,1.6489,0.1551,0.1596,0.1596,0.1589,0.1591,0.1592,0.159,0.1591,0.159,0.1591,0.1592,0.1592,0.1592,0.1592,0.1592,0.164,0.1615,0.1593,0.2004,0.2501,0.2976,0.3528,0.4399,0.5416,0.6162,0.6178,0.7301,0.8018,0.8351,0.8396,0.841,0.8296,0.8298,0.8199,0.8024,0.7874,0.7825,0.7943,0.7614,0.7912,0.842,0.8022,0.8147,0.8483,0.8758,0.8777,0.8916,0.933,0.9592,0.9832,0.9892,0.9967,0.9987,0.9906,0.9872,0.9859,0.9859,0.9875,1.0056,1.0231,1.0507,1.0586,1.0586,1.0586,1.0586,1.0609,1.064,1.0728,1.0751,1.0839,1.0996,1.1115,1.1169,1.1279,1.1404,1.1482,1.1529,1.1544,1.1576,1.1591,1.1591,1.1591,1.1957,1.212,1.2435,1.2876,1.3068,1.3133,1.3445,1.383,1.3945,1.402,1.373,1.3425,1.3115,1.2918,1.2722,1.2771,1.2808,1.2881,1.2905,1.2917,1.3029,1.3039,1.3061,1.3196,1.3537,1.4177,1.4778,1.496,1.5209,1.5722,1.602,1.6283,1.6489,0.1594,0.1596,0.1596,0.1589,0.1592,0.1592,0.1592,0.1592,0.1592,0.1592,0.1592,0.1592,0.1592,0.1592,0.1592,0.1592,0.1591,0.159,0.171,0.2048,0.2544,0.3,0.3652,0.4377,0.5298,0.6006,0.6594,0.7301,0.8072,0.7955,0.8135,0.83,0.8195,0.7943,0.7788,0.7715,0.7789,0.7894,0.7724,0.7796,0.8044,0.7806,0.7605,0.7584,0.7893,0.8196,0.8444,0.8837,0.9145,0.9383,0.9286,0.9186,0.9218,0.9076,0.9022,0.9021,0.904,0.9051,0.9151,0.9779,1.0428,1.0539,1.0586,1.0586,1.0586,1.0586,1.0609,1.064,1.0656,1.0703,1.0791,1.0854,1.098,1.109,1.1232,1.131,1.1388,1.149,1.1522,1.1576,1.1591,1.1591,1.1607,1.1833,1.1888,1.2289,1.232,1.2382,1.2735,1.3076,1.3203,1.3184,1.2891,1.2541,1.2113,1.2016,1.224,1.2438,1.2539,1.2722,1.2893,1.2893,1.2895,1.2929,1.2976,1.2942,1.299,1.3597,1.4048,1.42,1.4537,1.5175,1.5744,1.6107,1.6326,0.1555,0.1596,0.1596,0.1589,0.1592,0.1592,0.1592,0.1592,0.1592,0.1592,0.1592,0.1592,0.1592,0.1592,0.1592,0.1592,0.1592,0.1592,0.1592,0.1665,0.2027,0.2182,0.264,0.33,0.4067,0.4535,0.5085,0.5981,0.6853,0.7099,0.7571,0.7752,0.8035,0.8122,0.7959,0.7659,0.7724,0.7833,0.7809,0.7825,0.8216,0.791,0.7671,0.7743,0.7715,0.7848,0.7928,0.8341,0.8568,0.872,0.8757,0.8719,0.8626,0.8471,0.8398,0.8419,0.8471,0.8482,0.8468,0.9038,0.9438,0.9993,1.0285,1.0536,1.0445,1.0536,1.0577,1.0586,1.0545,1.0555,1.0649,1.076,1.0854,1.0949,1.1028,1.1138,1.1253,1.137,1.1454,1.1499,1.1565,1.1591,1.1591,1.1622,1.1638,1.1677,1.1646,1.1709,1.2112,1.2428,1.2598,1.2677,1.2412,1.231,1.1932,1.1907,1.1914,1.2047,1.2224,1.2394,1.2578,1.2881,1.2893,1.2893,1.2903,1.2917,1.299,1.314,1.343,1.3788,1.4247,1.4766,1.5321,1.5821,1.6096,0.1525,0.1569,0.1578,0.1581,0.159,0.1592,0.1592,0.1592,0.1592,0.1592,0.1592,0.1592,0.1592,0.1592,0.1592,0.1592,0.1592,0.1592,0.1592,0.1615,0.1637,0.1578,0.1886,0.2373,0.2978,0.3091,0.3761,0.4797,0.581,0.5889,0.6564,0.731,0.7848,0.7826,0.7959,0.7756,0.7715,0.7797,0.7789,0.7813,0.8285,0.8016,0.78,0.787,0.7774,0.767,0.7651,0.7892,0.8016,0.8107,0.8162,0.8228,0.8179,0.8091,0.7983,0.8018,0.8077,0.8137,0.8139,0.8435,0.8684,0.9198,0.9628,0.991,1.0049,1.0081,0.9931,1.03,1.0306,1.0333,1.0444,1.0681,1.0735,1.0798,1.0902,1.1003,1.1127,1.1264,1.1349,1.1418,1.1435,1.1411,1.1442,1.1442,1.1552,1.1567,1.1607,1.1622,1.1755,1.1996,1.2135,1.2164,1.2095,1.2035,1.1982,1.1712,1.146,1.1485,1.1681,1.1895,1.2116,1.2462,1.2671,1.2578,1.2637,1.2832,1.2954,1.3051,1.326,1.3537,1.3966,1.4387,1.4755,1.5243,1.5711,0.1506,0.1486,0.1492,0.1537,0.1586,0.1591,0.1591,0.1592,0.1592,0.1592,0.1592,0.1592,0.1592,0.1592,0.1592,0.1592,0.1592,0.1592,0.1592,0.1592,0.1592,0.1589,0.1628,0.1879,0.2254,0.2833,0.3151,0.3682,0.4822,0.4748,0.5549,0.6485,0.6947,0.7364,0.7765,0.7804,0.78,0.7808,0.78,0.7902,0.8008,0.7914,0.7861,0.778,0.769,0.7589,0.7561,0.7585,0.7685,0.7696,0.7547,0.75,0.7349,0.716,0.7035,0.7001,0.6971,0.7003,0.7121,0.7975,0.8363,0.8565,0.8975,0.9136,0.8969,0.8986,0.9214,0.9664,0.9622,0.9862,1.0199,1.0498,1.0403,1.0507,1.0579,1.0812,1.0942,1.1178,1.127,1.1467,1.1294,1.115,1.119,1.1269,1.1426,1.1512,1.1583,1.1607,1.1622,1.1685,1.1848,1.185,1.1844,1.1675,1.1577,1.1231,1.1032,1.1035,1.1239,1.1593,1.1793,1.2041,1.2182,1.2212,1.251,1.2828,1.29,1.2925,1.3111,1.3296,1.3564,1.3944,1.4281,1.464,1.5107,0.1463,0.1504,0.1491,0.1531,0.1582,0.1587,0.1598,0.1589,0.1592,0.1592,0.1592,0.1592,0.1592,0.1592,0.1591,0.1591,0.159,0.1592,0.1592,0.1592,0.159,0.1592,0.1582,0.1634,0.1773,0.193,0.2079,0.2547,0.3541,0.3585,0.4212,0.5119,0.6199,0.7172,0.7786,0.7963,0.7841,0.7902,0.7866,0.7857,0.7979,0.7935,0.7854,0.7776,0.7686,0.7605,0.7511,0.7499,0.7499,0.7487,0.7326,0.7185,0.7102,0.6956,0.6906,0.6921,0.6944,0.7066,0.7132,0.7482,0.7644,0.7996,0.8386,0.8621,0.8618,0.8736,0.8881,0.8909,0.8924,0.9083,0.9134,0.9193,0.9242,0.9732,0.9986,1.0419,1.0695,1.1022,1.1276,1.1546,1.1535,1.1377,1.1335,1.1296,1.1397,1.1424,1.1466,1.1576,1.1607,1.1607,1.1685,1.1685,1.1628,1.1403,1.1175,1.1072,1.1056,1.1156,1.1331,1.1598,1.1733,1.1725,1.2092,1.2364,1.261,1.2852,1.2918,1.2972,1.2927,1.3053,1.3322,1.3588,1.3942,1.42,1.4456,0.1424,0.1464,0.1465,0.1493,0.1564,0.1587,0.1589,0.1588,0.1592,0.1592,0.1592,0.1592,0.1584,0.1582,0.1586,0.1582,0.1579,0.1588,0.1592,0.159,0.1579,0.1575,0.1592,0.1578,0.1618,0.1519,0.1548,0.1919,0.2382,0.2531,0.3226,0.4276,0.5353,0.6192,0.702,0.7392,0.7882,0.7886,0.78,0.7703,0.7772,0.78,0.7776,0.7699,0.7646,0.7617,0.7536,0.7499,0.7499,0.7467,0.7387,0.7262,0.7193,0.7135,0.7064,0.7098,0.7204,0.7297,0.7306,0.718,0.7388,0.7526,0.803,0.8149,0.8064,0.8012,0.8258,0.8327,0.829,0.8457,0.8562,0.8524,0.8744,0.9239,0.945,0.9872,1.0185,1.0503,1.0746,1.1082,1.136,1.1316,1.144,1.1414,1.1392,1.1381,1.1373,1.1466,1.1576,1.1591,1.1591,1.1591,1.1591,1.1467,1.1305,1.1167,1.118,1.1269,1.1387,1.1497,1.1416,1.1393,1.1949,1.2432,1.2497,1.2625,1.2945,1.3033,1.3001,1.2969,1.3031,1.3322,1.3622,1.3788,1.3919,0.1413,0.1413,0.1413,0.1432,0.1512,0.1567,0.1584,0.1586,0.1586,0.1585,0.1586,0.1581,0.1567,0.1579,0.1573,0.1571,0.1583,0.1576,0.1582,0.1579,0.1589,0.1579,0.1594,0.1585,0.1551,0.1507,0.1513,0.1517,0.1484,0.1714,0.2428,0.3492,0.4492,0.5233,0.5989,0.6675,0.7336,0.7369,0.7648,0.7598,0.7633,0.7572,0.7581,0.7552,0.7544,0.7536,0.7499,0.7499,0.7499,0.7491,0.7483,0.737,0.7278,0.7203,0.7218,0.7258,0.7395,0.7431,0.7427,0.7281,0.7263,0.7364,0.7366,0.729,0.7289,0.7375,0.7606,0.7781,0.7822,0.8245,0.8535,0.858,0.8637,0.881,0.8885,0.9182,0.9474,0.9744,0.9965,1.0243,1.0567,1.0768,1.1239,1.1323,1.1338,1.1199,1.12,1.1318,1.1435,1.1576,1.1591,1.1591,1.1591,1.1591,1.1452,1.1313,1.1299,1.1398,1.1167,1.1172,1.1101,1.1205,1.169,1.2085,1.2164,1.236,1.2689,1.2924,1.308,1.3026,1.2907,1.3078,1.3369,1.3282,1.3394,0.1413,0.1413,0.1413,0.143,0.1508,0.1522,0.152,0.1528,0.1528,0.1528,0.1528,0.1528,0.1526,0.154,0.1524,0.1559,0.157,0.1579,0.1582,0.1577,0.1593,0.1555,0.154,0.1544,0.152,0.1506,0.147,0.1439,0.1446,0.1429,0.2078,0.3292,0.3587,0.4199,0.4837,0.5486,0.606,0.6678,0.7174,0.7462,0.7501,0.7473,0.7488,0.7503,0.7484,0.748,0.7499,0.7499,0.7499,0.7499,0.7499,0.745,0.7446,0.7407,0.7411,0.7411,0.7479,0.7495,0.7476,0.7439,0.7399,0.7387,0.7391,0.7251,0.7151,0.7105,0.7179,0.7364,0.7398,0.7699,0.7914,0.7991,0.8143,0.8304,0.8385,0.8602,0.8895,0.9201,0.9429,0.9866,1.0166,1.0599,1.1043,1.1303,1.1283,1.107,1.1019,1.1166,1.1286,1.1434,1.1522,1.1529,1.156,1.1544,1.1591,1.1474,1.1474,1.1461,1.1261,1.1166,1.1301,1.1451,1.1622,1.1863,1.2178,1.2321,1.2436,1.2685,1.2945,1.2865,1.276,1.2926,1.3069,1.3131,1.3106,0.109,0.139,0.1413,0.1423,0.1463,0.1482,0.1467,0.1471,0.1492,0.1502,0.1502,0.1504,0.1496,0.1512,0.1498,0.1506,0.1556,0.1547,0.1553,0.1551,0.1567,0.1548,0.1526,0.1489,0.1476,0.1463,0.1457,0.1432,0.1425,0.1495,0.1983,0.2549,0.2645,0.3056,0.3571,0.4031,0.4659,0.5551,0.6379,0.7061,0.734,0.7409,0.7415,0.7446,0.7426,0.7407,0.7461,0.748,0.7503,0.7499,0.7499,0.7499,0.7514,0.7495,0.7495,0.7491,0.7495,0.7499,0.7499,0.7499,0.7495,0.7499,0.7499,0.7401,0.7271,0.72,0.7227,0.73,0.7118,0.703,0.7136,0.7259,0.7516,0.7755,0.7905,0.8061,0.837,0.8694,0.9128,0.961,1.0048,1.0471,1.0846,1.1109,1.1131,1.0731,1.0775,1.1129,1.1204,1.1271,1.1354,1.1397,1.1451,1.1466,1.1529,1.1591,1.1562,1.154,1.1503,1.1452,1.154,1.1565,1.1623,1.1958,1.2359,1.2351,1.2215,1.2548,1.2764,1.2626,1.2574,1.2787,1.3101,1.3471,1.3393,0.0526,0.114,0.1277,0.1211,0.1301,0.1327,0.1395,0.1419,0.1469,0.1494,0.1491,0.1493,0.1475,0.1484,0.1472,0.1499,0.1504,0.1515,0.1522,0.1498,0.1505,0.1512,0.148,0.1497,0.1459,0.1431,0.1431,0.1435,0.1406,0.1459,0.158,0.1781,0.1679,0.1925,0.2265,0.2744,0.3436,0.4331,0.5223,0.598,0.7041,0.7297,0.7265,0.7346,0.7292,0.7234,0.7369,0.7446,0.7465,0.7484,0.7499,0.7499,0.7499,0.7499,0.7499,0.7499,0.7499,0.7499,0.7499,0.7499,0.7499,0.7499,0.7499,0.7471,0.7381,0.7236,0.7228,0.7312,0.72,0.7188,0.7291,0.734,0.7522,0.7616,0.7699,0.7769,0.7906,0.8237,0.8655,0.9156,0.9682,1.0108,1.0308,1.0533,1.0456,1.0159,1.0376,1.0867,1.106,1.1071,1.1223,1.1289,1.1363,1.141,1.1475,1.1537,1.1591,1.1584,1.1599,1.1591,1.1569,1.1577,1.1591,1.1865,1.2097,1.2025,1.199,1.2266,1.2389,1.2241,1.2295,1.2598,1.3018,1.3512,1.3751,-0.0214,-0.0591,0.0045,0.0336,0.0426,0.1099,0.1391,0.1414,0.1404,0.1414,0.1435,0.1435,0.1434,0.1433,0.1436,0.1465,0.1505,0.1485,0.149,0.1491,0.1502,0.1465,0.1429,0.1451,0.142,0.1418,0.1424,0.1446,0.1462,0.1471,0.1502,0.1571,0.1471,0.1522,0.1527,0.1993,0.2471,0.3419,0.3845,0.5111,0.6619,0.7032,0.7112,0.7056,0.6949,0.6984,0.7115,0.7219,0.7238,0.7277,0.7446,0.7484,0.7499,0.7499,0.7499,0.7499,0.7499,0.7499,0.7499,0.7499,0.7499,0.7499,0.7499,0.7499,0.7442,0.7283,0.7254,0.7335,0.7403,0.7411,0.7427,0.7479,0.7499,0.7499,0.7503,0.7503,0.7507,0.7859,0.8243,0.8734,0.9274,0.9532,0.9715,0.9768,0.9701,0.9813,1.009,1.0436,1.0652,1.0757,1.1092,1.1212,1.1305,1.1367,1.1453,1.1516,1.1568,1.158,1.1581,1.1582,1.1599,1.1591,1.1607,1.1607,1.1711,1.1722,1.1752,1.1843,1.1888,1.1847,1.2077,1.2439,1.2952,1.3472,1.3816,-0.1159,-0.1239,-0.0799,-0.0627,-0.0448,0.0381,0.0785,0.0852,0.1211,0.1413,0.1413,0.1413,0.1413,0.1413,0.1413,0.1418,0.1461,0.1437,0.1438,0.1461,0.1461,0.1428,0.1395,0.1413,0.1414,0.1414,0.143,0.1478,0.1482,0.1496,0.1496,0.1487,0.1504,0.1463,0.1418,0.148,0.1883,0.2864,0.2827,0.3966,0.5797,0.6059,0.6354,0.6349,0.6564,0.6674,0.6965,0.7084,0.7165,0.7261,0.7411,0.7484,0.7499,0.7499,0.7499,0.7499,0.7499,0.7499,0.7499,0.7499,0.7499,0.7499,0.7499,0.7499,0.7499,0.7374,0.7374,0.7462,0.7439,0.7447,0.7471,0.7495,0.7499,0.7499,0.7524,0.7521,0.7594,0.7811,0.8056,0.8298,0.8617,0.8624,0.8815,0.9029,0.8969,0.9066,0.9414,0.9842,1.0084,1.0402,1.077,1.1114,1.1189,1.1446,1.1671,1.1653,1.1591,1.1583,1.1604,1.1595,1.1611,1.1606,1.1607,1.1644,1.1629,1.1572,1.1623,1.1684,1.1684,1.1691,1.1977,1.2295,1.2826,1.3248,1.3459,-0.2084,-0.1543,-0.1576,-0.1588,-0.1431,-0.0582,-0.0179,-0.0022,0.0785,0.1189,0.1211,0.1323,0.1391,0.1413,0.1413,0.1413,0.1415,0.1421,0.1395,0.1394,0.1416,0.1393,0.1393,0.1413,0.1413,0.1419,0.1433,0.1469,0.1487,0.1484,0.149,0.1488,0.1478,0.147,0.1423,0.148,0.1838,0.2308,0.2582,0.2966,0.3877,0.4698,0.5165,0.5608,0.5939,0.6349,0.6606,0.6811,0.6911,0.718,0.7253,0.735,0.7407,0.7426,0.7465,0.7465,0.7499,0.7499,0.7499,0.7499,0.7499,0.7499,0.7499,0.7499,0.7499,0.7499,0.7514,0.7495,0.7491,0.7491,0.7495,0.7499,0.7499,0.7503,0.7532,0.7556,0.7666,0.778,0.789,0.802,0.8024,0.8012,0.8132,0.8326,0.8366,0.844,0.8706,0.91,0.9497,0.9903,1.0293,1.0724,1.1031,1.1342,1.1741,1.1787,1.1685,1.1722,1.1747,1.1688,1.166,1.175,1.1759,1.1678,1.1656,1.1591,1.1562,1.1628,1.1611,1.1596,1.1766,1.2027,1.2249,1.2639,1.2892,-0.2603,-0.2587,-0.2619,-0.2618,-0.2462,-0.1544,-0.1141,-0.0985,-0.0157,0.0269,0.0516,0.1099,0.1413,0.1413,0.1413,0.1413,0.1413,0.1413,0.1413,0.1414,0.1413,0.1413,0.1413,0.1413,0.1413,0.142,0.1429,0.1437,0.1487,0.1513,0.1488,0.1506,0.1486,0.1466,0.1419,0.1458,0.1547,0.1883,0.1861,0.2052,0.2418,0.3214,0.4066,0.4297,0.4254,0.4767,0.519,0.5525,0.6051,0.6537,0.6903,0.7042,0.7219,0.7273,0.7353,0.7446,0.748,0.7499,0.7499,0.7499,0.7499,0.7499,0.7499,0.7499,0.7499,0.7499,0.7499,0.7499,0.7495,0.7495,0.7499,0.7499,0.7499,0.7499,0.7515,0.7601,0.7693,0.7758,0.7821,0.7906,0.7951,0.7951,0.7967,0.8026,0.7962,0.8112,0.8353,0.8718,0.8824,0.9294,0.9747,1.0192,1.0619,1.1247,1.1644,1.1837,1.1827,1.1884,1.1928,1.1944,1.1951,1.1996,1.1983,1.1941,1.1766,1.1643,1.1628,1.165,1.16,1.1601,1.16,1.174,1.1903,1.2127,1.2453]},{"header":{"parameterUnit":"m.s-1","parameterCategory":1,"la1":31.0,"la2":29.5877,"lo1":-88.7671,"lo2":-86.6584,"dy":0.0162,"dx":0.0185,"nx":115,"ny":88,"refTime":"2023-05-12T06:00:00:Z","depth":0,"parameterNumber":3,"parameterNumberName":"V-component_of_WINDS"},"data":[0.0,0.0,0.0,0.0,0.0,0.0,0.0,0.0,0.0,0.0,0.0,0.0,0.0,0.0,0.0,0.0,0.0,0.0,0.0,0.0,0.0,0.0,0.0,0.0,0.0,0.0,0.0,0.0,0.0,0.0,0.0,0.0,0.0,0.0,0.0,0.0,0.0,0.0,0.0,0.0,0.0,0.0,0.0,0.0,0.0,0.0,0.0,0.0,0.0,0.0,0.0,0.0,0.0,0.0,0.0,0.0,0.0,0.0,0.0,0.0,0.0,0.0,0.0,0.0,0.0,0.0,0.0,0.0,0.0,0.0,0.0,0.0,0.0,0.0,0.0,0.0,0.0,0.0,0.0,0.0,0.0,0.0,0.0,0.0,0.0,0.0,0.0,0.0,0.0,0.0,0.0,0.0,0.0,0.0,0.0,0.0,0.0,0.0,0.0,0.0,0.0,0.0,0.0,0.0,0.0,0.0,0.0,0.0,0.0,0.0,0.0,0.0,0.0,0.0,0.0,0.0,0.0,0.0,0.0,0.0,0.0,0.0,0.0,0.0,0.0,0.0,0.0,0.0,0.0,0.0,0.0,0.0,0.0,0.0,0.0,0.0,0.0,0.0,0.0,0.0,0.0,0.0,0.0,0.0,0.0,0.0,0.0,0.0,0.0,0.0,0.0,0.0,0.0,0.0,0.0,0.0,0.0,0.0,0.0,0.0,0.0,0.0,0.0,0.0,0.0,0.0,0.0,0.0,0.0,0.0,0.0,0.0,0.0,0.0,0.0,0.0,0.0,0.0,0.0,0.0,0.0,0.0,0.0,0.0,0.0,0.0,0.0,0.0,0.0,0.0,0.0,0.0,0.0,0.0,0.0,0.0,0.0,0.0,0.0,0.0,0.0,0.0,0.0,0.0,0.0,0.0,0.0,0.0,0.0,0.0,0.0,0.0,0.0,0.0,0.0,0.0,0.0,0.0,0.0,0.0,0.0,0.0,0.0,0.0,0.0,0.0,0.0,0.0,0.0,0.0,0.0,0.0,0.0,0.0,0.0,0.0,0.0,0.0,0.0,0.0,0.0,0.0,0.0,0.0,0.0,0.0,0.0,0.0,0.0,0.0,0.0,0.0,0.0,0.0,0.0,0.0,0.0,0.0,0.0,0.0,0.0,0.0,0.0,0.0,0.0,0.0,0.0,0.0,0.0,0.0,0.0,0.0,0.0,0.0,0.0,0.0,0.0,0.0,0.0,0.0,0.0,0.0,0.0,0.0,0.0,0.0,0.0,0.0,0.0,0.0,0.0,0.0,0.0,0.0,0.0,0.0,0.0,0.0,0.0,0.0,0.0,0.0,0.0,0.0,0.0,0.0,0.0,0.0,0.0,0.0,0.0,0.0,0.0,0.0,0.0,0.0,0.0,0.0,0.0,0.0,0.0,0.0,0.0,0.0,0.0,0.0,0.0,0.0,0.0,0.0,0.0,0.0,0.0,0.0,0.0,0.0,0.0,0.0,0.0,0.0,0.0,0.0,0.0,0.0,0.0,0.0,0.0,0.0,0.0,0.0,0.0,0.0,0.0,0.0,0.0,0.0,0.0,0.0,0.0,0.0,0.0,0.0,0.0,0.0,0.0,0.0,0.0,0.0,0.0,0.0,0.0,0.0,0.0,0.0,0.0,0.0,0.0,0.0,0.0,0.0,0.0,0.0,0.0,0.0,0.0,0.0,0.0,0.0,0.0,0.0,0.0,0.0,0.0,0.0,0.0,0.0,0.0,0.0,0.0,0.0,0.0,0.0,0.0,0.0,0.0,0.0,0.0,0.0,0.0,0.0,0.0,0.0,0.0,0.0,0.0,0.0,0.0,0.0,0.0,0.0,0.0,0.0,0.0,0.0,0.0,0.0,0.0,0.0,0.0,0.0,0.0,0.0,0.0,0.0,0.0,0.0,0.0,0.0,0.0,0.0,0.0,0.0,0.0,0.0,0.0,0.0,0.0,0.0,0.0,0.0,0.0,0.0,0.0,0.0,0.0,0.0,0.0,0.0,0.0,0.0,0.0,0.0,0.0,0.0,0.0,0.0,0.0,0.0,0.0,0.0,0.0,0.0,0.0,0.0,0.0,0.0,0.0,0.0,0.0,0.0,0.0,0.0,0.0,0.0,0.0,0.0,0.0,0.0,0.0,0.0,0.0,0.0,0.0,0.0,0.0,0.0,0.0,0.0,0.0,0.0,0.0,0.0,0.0,0.0,0.0,0.0,0.0,0.0,0.0,0.0,0.0,0.0,0.0,0.0,0.0,0.0,0.0,0.0,0.0,0.0,0.0,0.0,0.0,0.0,0.0,0.0,0.0,0.0,0.0,0.0,0.0,0.0,0.0,0.0,0.0,0.0,0.0,0.0,0.0,0.0,0.0,0.0,0.0,0.0,0.0,0.0,0.0,0.0,0.0,0.0,0.0,0.0,0.0,0.0,0.0,0.0,0.0,0.0,0.0,0.0,0.0,0.0,0.0,0.0,0.0,0.0,0.0,0.0,0.0,0.0,0.0,0.0,0.0,0.0,0.0,0.0,0.0,0.0,0.0,0.0,0.0,0.0,0.0,0.0,0.0,0.0,0.0,0.0,0.0,0.0,0.0,0.0,0.0,0.0,0.0,0.0,0.0,0.0,0.0,0.0,0.0,0.0,0.0,0.0,0.0,0.0,0.0,0.0,0.0,0.0,0.0,0.0,0.0,0.0,0.0,0.0,0.0,0.0,0.0,0.0,0.0,0.0,0.0,0.0,0.0,0.0,0.0,0.0,0.0,0.0,0.0,0.0,0.0,0.0,0.0,0.0,0.0,0.0,0.0,0.0,0.0,0.0,0.0,0.0,0.0,0.0,0.0,0.0,0.0,0.0,0.0,0.0,0.0,0.0,0.0,0.0,0.0,0.0,0.0,0.0,0.0,0.0,0.0,0.0,0.0,0.0,0.0,0.0,0.0,0.0,0.0,0.0,0.0,0.0,0.0,0.0,0.0,0.0,0.0,0.0,0.0,0.0,0.0,0.0,0.0,0.0,0.0,0.0,0.0,0.0,0.0,0.0,0.0,0.0,0.0,0.0,0.0,0.0,0.0,0.0,0.0,0.0,0.0,0.0,0.0,0.0,0.0,0.0,0.0,0.0,0.0,0.0,0.0,0.0,0.0,0.0,0.0,0.0,0.0,0.0,0.0,0.0,0.0,0.0,0.0,0.0,0.0,0.0,0.0,0.0,0.0,0.0,0.0,0.0,0.0,0.0,0.0,0.0,0.0,0.0,0.0,0.0,0.0,0.0,0.0,0.0,0.0,0.0,0.0,0.0,0.0,0.0,0.0,0.0,0.0,0.0,0.0,0.0,0.0,0.0,0.0,0.0,0.0,0.0,0.0,0.0,0.0,0.0,0.0,0.0,0.0,0.0,0.0,0.0,0.0,0.0,0.0,0.0,0.0,0.0,0.0,0.0,0.0,0.0,0.0,0.0,0.0,0.0,0.0,0.0,0.0,0.0,0.0,0.0,0.0,0.0,0.0,0.0,0.0,0.0,0.0,0.0,0.0,0.0,0.0,0.0,0.0,0.0,0.0,0.0,0.0,0.0,0.0,0.0,0.0,0.0,0.0,0.0,0.0,0.0,0.0,0.0,0.0,0.0,0.0,0.0,0.0,0.0,0.0,0.0,0.0,0.0,0.0,0.0,0.0,0.0,0.0,0.0,0.0,0.0,0.0,0.0,0.0,0.0,0.0,0.0,0.0,0.0,0.0,0.0,0.0,0.0,0.0,0.0,0.0,0.0,0.0,0.0,0.0,0.0,0.0,0.0,0.0,0.0,0.0,0.0,0.0,0.0,0.0,0.0,0.0,0.0,0.0,0.0,0.0,0.0,0.0,0.0,0.0,0.0,0.0,0.0,0.0,0.0,0.0,0.0,0.0,0.0,0.0,0.0,0.0,0.0,0.0,0.0,0.0,0.0,0.0,0.0,0.0,0.0,0.0,0.0,0.0,0.0,0.0,0.0,0.0,0.0,0.0,0.0,0.0,0.0,0.0,0.0,0.0,0.0,0.0,0.0,0.0,0.0,0.0,0.0,0.0,0.0,0.0,0.0,0.0,0.0,0.0,0.0,0.0,0.0,0.0,0.0,0.0,0.0,0.0,0.0,0.0,0.0,0.0,0.0,0.0,0.0,0.0,0.0,0.0,0.0,0.0,0.0,0.0,0.0,0.0,0.0,0.0,0.0,0.0,0.0,0.0,0.0,0.0,0.0,0.0,0.0,0.0,0.0,0.231,0.0,0.0,0.0,0.0,0.0,0.0,0.0,0.0,0.0,0.0,0.0,0.0,0.0,0.0,0.0,0.0,0.0,0.0,0.0,0.0,0.0,0.0,0.0,0.0,0.0,0.0,0.0,0.0,0.0,0.0,0.0,0.0,0.0,0.0,0.0,0.0,0.0,0.0,0.0,0.0,0.0,0.0,0.0,0.0,0.0,0.0,0.0,0.0,0.0,0.0,0.0,0.0,0.0,0.0,0.0,0.0,0.0,0.0,0.0,0.0,0.0,0.0,0.0,0.0,0.0,0.0,0.0,0.0,0.0,0.0,0.0,0.0,0.0,0.0,0.0,0.0,0.0,0.0,0.0,0.0,0.0,0.0,0.0,0.0,0.0,0.0,0.0,0.0,0.0,0.0,0.0,0.0,0.0,0.0,0.0,0.0,0.0,0.0,0.0,0.0,0.0,0.0,0.0,0.0,0.0,0.0,0.0,0.0,0.0,0.0,0.2729,0.2649,0.2687,0.2686,0.2636,0.0,0.0,0.0,0.0,0.0,0.0,0.0,0.0,0.0,0.0,0.0,0.0,0.0,0.0,0.0,0.0,0.0,0.0,0.0,0.0,0.0,0.0,0.0,0.0,0.0,0.0,0.0,0.0,0.0,0.0,0.0,0.0,0.0,0.0,0.0,0.0,0.0,0.0,0.0,0.0,0.0,0.0,0.0,0.0,0.0,0.0,0.0,0.0,0.0,0.0,0.0,0.0,0.0,0.0,0.0,0.0,0.0,0.0,0.0,0.0,0.0,0.0,0.0,0.0,0.0,0.0,0.0,0.0,0.0,0.0,0.0,0.0,0.0,0.0,0.0,0.0,0.0,0.0,0.0,0.0,0.0,0.0,0.0,0.0,0.0,0.0,0.0,0.0,0.0,0.0,0.0,0.0,0.0,0.0,0.0,0.0,0.0,0.0,0.0,0.0,0.0,0.0,0.0,0.0,0.0,0.0,0.0,0.0,0.0,0.0,0.0,0.0,0.3237,0.3244,0.3298,0.0,0.0,0.0,0.0,0.0,0.0,0.0,0.0,0.0,0.0,0.0,0.0,0.0,0.0,0.0,0.0,0.0,0.0,0.0,0.0,0.0,0.0,0.0,0.0,0.0,0.0,0.0,0.0,0.0,0.0,0.0,0.0,0.0,0.0,0.0,0.0,0.0,0.0,0.0,0.0,0.0,0.0,0.0,0.0,0.0,0.0,0.0,0.0,0.0,0.0,0.0,0.0,0.0,0.0,0.0,0.0,0.0,0.0,0.0,0.0,0.0,0.0,0.0,0.0,0.0,0.0,0.0,0.0,0.0,0.0,0.0,0.0,0.0,0.0,0.0,0.0,0.0,0.0,0.0,0.0,0.0,0.0,0.0,0.0,0.0,0.0,0.0,0.0,0.0,0.0,0.0,0.0,0.0,0.0,0.0,0.0,0.0,0.0,0.0,0.0,0.0,0.0,0.0,0.0,0.0,0.0,0.0,0.0,0.0,0.0,0.3506,0.3979,0.3933,0.0,0.4396,0.0,0.0,0.0,0.0,0.0,0.0,0.0,0.0,0.0,0.0,0.0,0.0,0.0,0.0,0.0,0.0,0.0,0.0,0.0,0.0,0.0,0.0,0.0,0.0,0.0,0.0,0.0,0.0,0.0,0.0,0.0,0.0,0.0,0.0,0.0,0.0,0.0,0.0,0.0,0.0,0.0,0.0,0.0,0.0,0.0,0.0,0.0,0.0,0.0,0.0,0.0,0.0,0.0,0.0,0.0,0.0,0.0,0.0,0.0,0.0,0.0,0.0,0.0,0.0,0.0,0.0,0.0,0.0,0.0,0.0,0.0,0.0,0.0,0.0,0.0,0.0,0.0,0.0,0.0,0.0,0.0,0.0,0.0,0.0,0.0,0.0,0.0,0.0,0.0,0.0,0.0,0.0,0.0,0.0,0.0,0.0,0.0,0.0,0.0,0.0,0.0,0.0,0.0,0.0,0.0,0.0,0.0,0.0,0.0,0.0,0.3828,0.4428,0.431,0.4149,0.0,0.0,0.0,0.0,0.0,0.0,0.0,0.0,0.0,0.0,0.0,0.0,0.0,0.0,0.0,0.0,0.0,0.0,0.0,0.0,0.0,0.0,0.0,0.0,0.0,0.0,0.0,0.0,0.0,0.0,0.0,0.0,0.0,0.0,0.0,0.0,0.0,0.0,0.0,0.0,0.0,0.0,0.0,0.0,0.0,0.0,0.0,0.0,0.0,0.0,0.0,0.0,0.0,0.0,0.0,0.0,0.0,0.0,0.0,0.0,0.0,0.0,0.0,0.0,0.0,0.0,0.0,0.0,0.0,0.0,0.0,0.0,0.0,0.0,0.0,0.0,0.0,0.0,0.0,0.0,0.0,0.0,0.0,0.0,0.0,0.0,0.0,0.0,0.0,0.0,0.0,0.0,0.0,0.0,0.0,0.0,0.0,0.0,0.0,0.0,0.0,0.0,0.0,0.0,0.0,0.0,0.0,0.0,0.0,0.0,0.4119,0.4356,0.4918,0.4465,0.4081,0.3867,0.0,0.0,0.0,0.0,0.0,0.0,0.0,0.0,0.0,0.0,0.0,0.0,0.0,0.0,0.0,0.0,0.0,0.0,0.0,0.0,0.0,0.0,0.0,0.0,0.0,0.0,0.0,0.0,0.0,0.0,0.0,0.0,0.0,0.0,0.0,0.0,0.0,0.0,0.0,0.0,0.0,0.0,0.0,0.0,0.0,0.0,0.0,0.0,0.0,0.0,0.0,0.0,0.0,0.0,0.0,0.0,0.0,0.0,0.0,0.0,0.0,0.0,0.0,0.0,0.0,0.0,0.0,0.0,0.0,0.0,0.0,0.0,0.0,0.0,0.0,0.0,0.0,0.0,0.0,0.0,0.0,0.0,0.0,0.0,0.0,0.0,0.0,0.0,0.0,0.0,0.0,0.0,0.0,0.0,0.0,0.0,0.0,0.0,0.0,0.0,0.0,0.0,0.0,0.0,0.0,0.0,0.0,0.0,0.5853,0.5277,0.516,0.5572,0.4357,0.3983,0.0,0.0,0.0,0.0,0.0,0.0,0.0,0.0,0.0,0.0,0.0,0.0,0.0,0.0,0.0,0.0,0.0,0.0,0.0,0.0,0.0,0.0,0.0,0.0,0.0,0.0,0.0,0.0,0.0,0.0,0.0,0.0,0.0,0.0,0.0,0.0,0.0,0.0,0.0,0.0,0.0,0.0,0.0,0.0,0.0,0.0,0.0,0.0,0.0,0.0,0.0,0.0,0.0,0.0,0.0,0.0,0.0,0.0,0.0,0.0,0.0,0.0,0.0,0.0,0.0,0.0,0.0,0.0,0.0,0.0,0.0,0.0,0.0,0.0,0.0,0.0,0.0,0.0,0.0,0.0,0.0,0.0,0.0,0.0,0.0,0.0,0.0,0.0,0.0,0.0,0.0,0.0,0.0,0.0,0.0,0.0,0.0,0.0,0.0,0.0,0.0,0.0,0.0,0.0,0.0,0.0,0.0,0.0,0.0,0.4662,0.4808,0.488,0.4902,0.4484,0.429,0.0,0.0,0.0,0.0,0.0,0.0,0.0,0.0,0.0,0.0,0.0,0.0,0.0,0.0,0.0,0.0,0.0,0.0,0.0,0.0,0.0,0.0,0.0,0.0,0.0,0.0,0.0,0.0,0.0,0.0,0.0,0.0,0.0,0.0,0.0,0.0,0.0,0.0,0.0,0.0,0.0,0.0,0.0,0.0,0.0,0.0,0.0,0.0,0.0,0.0,0.0,0.0,0.0,0.0,0.0,0.0,0.0,0.0,0.0,0.0,0.0,0.0,0.0,0.0,0.0,0.0,0.0,0.0,0.0,0.0,0.0,0.0,0.0,0.0,0.0,0.0,0.0,0.0,0.0,0.0,0.0,0.0,0.0,0.0,0.0,0.0,0.0,0.0,0.0,0.0,0.0,0.0,0.0,0.0,0.0,0.0,0.0,0.0,0.0,0.0,0.0,0.0,0.0,0.0,0.0,0.0,0.0,0.0,0.0,0.4547,0.0,0.5119,0.4919,0.4735,0.4469,0.0,0.0,0.0,0.0,0.0,0.0,0.0,0.0,0.0,0.0,0.0,0.0,0.0,0.0,0.0,0.0,0.0,0.0,0.0,0.0,0.0,0.0,0.0,0.0,0.0,0.0,0.0,0.0,0.0,0.0,0.0,0.0,0.0,0.0,0.0,0.0,0.0,0.0,0.0,0.0,0.0,0.0,0.0,0.0,0.0,0.0,0.0,0.0,0.0,0.0,0.0,0.0,0.0,0.0,0.0,0.0,0.0,0.0,0.0,0.0,0.0,0.0,0.0,0.0,0.0,0.0,0.0,0.0,0.0,0.0,0.0,0.0,0.0,0.0,0.0,0.0,0.0,0.0,0.0,0.0,0.0,0.0,0.0,0.0,0.0,0.0,0.0,0.0,0.0,0.0,0.0,0.0,0.0,0.0,0.0,0.0,0.0,0.0,0.0,0.0,0.0,0.0,0.0,0.0,0.0,0.0,0.0,0.0,0.4589,0.5777,0.5955,0.5907,0.5798,0.5057,0.4458,0.0,0.0,0.0,0.0,0.0,0.0,0.0,0.0,0.0,0.0,0.0,0.0,0.0,0.0,0.0,0.0,0.0,0.0,0.0,0.0,0.0,0.0,0.0,0.0,0.0,0.0,0.0,0.0,0.0,0.0,0.0,0.0,0.0,0.0,0.0,0.0,0.0,0.0,0.0,0.0,0.0,0.0,0.0,0.0,0.0,0.0,0.0,0.0,0.0,0.0,0.0,0.0,0.0,0.0,0.0,0.0,0.0,0.0,0.0,0.0,0.0,0.0,0.0,0.0,0.0,0.0,0.0,0.0,0.0,0.0,0.0,0.0,0.0,0.0,0.0,0.0,0.0,0.0,0.0,0.0,0.0,0.0,0.0,0.0,0.0,0.0,0.0,0.0,0.0,0.0,0.0,0.0,0.0,0.0,0.0,0.0,0.0,0.0,0.0,0.0,0.0,0.0,0.0,0.0,0.0,0.0,0.0,0.0,0.0,0.4718,0.5031,0.5488,0.6007,0.4954,0.4798,0.0,0.0,0.0,0.0,0.0,0.0,0.0,0.0,0.0,0.0,0.0,0.0,0.0,0.0,0.0,0.0,0.0,0.0,0.0,0.0,0.0,0.0,0.0,0.0,0.0,0.0,0.0,0.0,0.0,0.0,0.0,0.0,0.0,0.0,0.0,0.0,0.0,0.0,0.0,0.0,0.0,0.0,0.0,0.0,0.0,0.0,0.0,0.0,0.0,0.0,0.0,0.0,0.0,0.0,0.0,0.0,0.0,0.0,0.0,0.0,0.0,0.0,0.0,0.0,0.0,0.0,0.0,0.0,0.0,0.0,0.0,0.0,0.0,0.0,0.0,0.0,0.0,0.0,0.0,0.0,0.0,0.0,0.0,0.0,0.0,0.0,0.0,0.0,0.0,0.0,0.0,0.0,0.0,0.0,0.0,0.0,0.0,0.0,0.0,0.0,0.0,0.0,0.0,0.0,0.0,0.0,0.0,0.0,0.0,0.5328,0.5536,0.5956,0.655,0.5638,0.5412,0.5982,0.0,0.0,0.0,0.0,0.0,0.0,0.0,0.0,0.0,0.0,0.0,0.0,0.0,0.0,0.0,0.0,0.0,0.0,0.0,0.0,0.0,0.0,0.0,0.0,0.0,0.0,0.0,0.0,0.0,0.0,0.0,0.0,0.0,0.0,0.0,0.0,0.0,0.0,0.0,0.0,0.0,0.0,0.0,0.0,0.0,0.0,0.0,0.0,0.0,0.0,0.0,0.0,0.0,0.0,0.0,0.0,0.0,0.0,0.0,0.0,0.0,0.0,0.0,0.0,0.0,0.0,0.0,0.0,0.0,0.0,0.0,0.0,0.0,0.0,0.0,0.0,0.0,0.0,0.0,0.0,0.0,0.0,0.0,0.0,0.0,0.0,0.0,0.0,0.0,0.0,0.0,0.0,0.0,0.0,0.0,0.0,0.0,0.0,0.0,0.0,0.0,0.0,0.0,0.0,0.0,0.0,0.0,0.0,0.7283,0.7303,0.7346,0.7363,0.6942,0.6264,0.0,0.0,0.0,0.0,0.0,0.0,0.0,0.0,0.0,0.0,0.0,0.0,0.0,0.0,0.0,0.0,0.0,0.0,0.0,0.0,0.0,0.0,0.0,0.0,0.0,0.0,0.0,0.0,0.0,0.0,0.0,0.0,0.0,0.0,0.0,0.0,0.0,0.0,0.0,0.0,0.0,0.0,0.0,0.0,0.0,0.0,0.0,0.0,0.0,0.0,0.0,0.0,0.0,0.0,0.0,0.0,0.0,0.0,0.0,0.0,0.0,0.0,0.0,0.0,0.0,0.0,0.0,0.0,0.0,0.0,0.0,0.0,0.0,0.0,0.0,0.0,0.0,0.0,0.0,0.0,0.0,0.0,0.0,0.0,0.0,0.0,0.0,0.0,0.0,0.0,0.0,0.0,0.0,0.0,0.0,0.0,0.0,0.0,0.0,0.0,0.0,0.0,0.0,0.0,0.0,0.0,0.0,0.0,0.0,0.8423,0.9353,0.9683,0.9319,0.7834,0.7238,0.0,0.0,0.0,0.0,0.0,0.0,0.0,0.0,0.0,0.0,0.0,0.0,0.0,0.0,0.0,0.0,0.0,0.0,0.0,0.0,0.0,0.0,0.0,0.0,0.0,0.0,0.0,0.0,0.0,0.0,0.0,0.0,0.0,0.0,0.0,0.0,0.0,0.0,0.0,0.0,0.0,0.0,0.0,0.0,0.0,0.0,0.0,0.0,0.0,0.0,0.0,0.0,0.0,0.0,0.0,0.0,0.0,0.0,0.0,0.0,0.0,0.0,0.0,0.0,0.0,0.0,0.0,0.0,0.0,0.0,0.0,0.0,0.0,0.0,0.0,0.0,0.0,0.0,0.0,0.0,0.0,0.0,0.0,0.0,0.0,0.0,0.0,0.0,0.0,0.0,0.0,0.0,0.0,0.0,0.0,0.0,0.0,0.0,0.0,0.0,0.0,0.0,0.0,0.0,0.0,0.0,0.0,0.0,0.8414,0.9724,1.1441,1.2159,1.1797,0.9643,0.8439,0.0,0.0,0.0,0.0,0.0,0.0,0.0,0.0,0.0,0.0,0.0,0.0,0.0,0.0,0.0,0.0,0.0,0.0,0.0,0.0,0.0,0.0,0.0,0.0,0.0,0.0,0.0,0.0,0.0,0.0,0.0,0.0,0.0,0.0,0.0,0.0,0.0,0.0,0.0,0.0,0.0,0.0,0.0,0.0,0.0,0.0,0.0,0.0,0.0,0.0,0.0,0.0,0.0,0.0,0.0,0.0,0.0,0.0,0.0,0.0,0.0,0.0,0.0,0.0,0.0,0.0,0.0,0.0,0.0,0.0,0.0,0.0,0.0,0.0,0.0,0.0,0.0,0.0,0.0,0.0,0.0,0.0,0.0,0.0,0.0,0.0,0.0,0.0,0.0,0.0,0.0,0.0,0.0,0.0,0.0,0.0,0.0,0.0,0.0,0.0,0.0,0.0,0.0,0.0,0.0,0.0,0.0,0.0,0.9816,1.0893,1.3121,1.4207,1.3957,1.1696,0.9686,0.0,0.0,0.0,0.0,0.0,0.0,0.0,0.0,0.0,0.0,0.0,0.0,0.0,0.0,0.0,0.0,0.0,0.0,0.0,0.0,0.0,0.0,0.0,0.0,0.0,0.0,0.0,0.0,0.0,0.0,0.0,0.0,0.0,0.0,0.0,0.0,0.0,0.0,0.0,0.0,0.0,0.0,0.0,0.0,0.0,0.0,0.0,0.0,0.0,0.0,0.0,0.0,0.0,0.0,0.0,0.0,0.0,0.0,0.0,0.0,0.0,0.0,0.0,0.0,0.0,0.0,0.0,0.0,0.0,0.0,0.0,0.0,0.0,0.0,0.0,0.0,0.0,0.0,0.0,0.0,0.0,0.0,0.0,0.0,0.0,0.0,0.0,0.0,0.0,0.0,0.0,0.0,0.0,0.0,0.0,0.0,0.0,0.0,0.0,0.0,0.0,0.0,0.0,0.0,0.0,0.0,0.0,0.0,0.9441,1.0812,1.2751,1.3651,1.3379,1.1596,1.0221,0.0,0.0,0.0,0.0,0.0,0.0,0.0,0.0,0.0,0.0,0.0,0.0,0.0,0.0,0.0,0.0,0.0,0.0,0.0,0.0,0.0,0.0,0.0,0.0,0.0,0.0,0.0,0.0,0.0,0.0,0.0,0.0,0.0,0.0,0.0,0.0,0.0,0.0,0.0,0.0,0.0,0.0,0.0,0.0,0.0,0.0,0.0,0.0,0.4077,0.0,0.0,0.0,0.0,0.0,0.0,0.0,0.0,0.0,0.0,0.0,0.0,0.0,0.0,0.0,0.0,0.0,0.0,0.0,0.0,0.0,0.0,0.0,0.0,0.0,0.0,0.0,0.0,0.0,0.0,0.0,0.0,0.0,0.0,0.0,0.0,0.0,0.0,0.0,0.0,0.0,0.0,0.0,0.0,0.0,0.0,0.0,0.0,0.0,0.0,0.0,0.0,0.0,0.0,0.0,0.0,0.0,0.0,0.0,0.9988,1.1295,1.28,1.3531,1.3331,1.1756,1.0657,0.0,0.0,0.0,0.0,0.0,0.0,0.0,0.0,0.0,0.0,0.0,0.0,0.0,0.0,0.0,0.0,0.0,0.0,0.0,0.0,0.0,0.0,0.0,0.0,0.0,0.0,0.0,0.0,0.0,0.0,0.0,0.0,0.0,0.0,0.0,0.0,0.0,0.0,0.0,0.0,0.0,0.0,0.0,0.0,0.0,0.0,0.0,0.0,0.0,0.0,0.0,0.0,0.0,0.0,0.0,0.0,0.0,0.0,0.0,0.0,0.0,0.0,0.0,0.0,0.0,0.0,0.0,0.0,0.0,0.0,0.0,0.0,0.0,0.0,0.0,0.0,0.0,0.0,0.0,0.0,0.0,0.0,0.0,0.0,0.0,0.0,0.0,0.0,0.0,0.0,0.0,0.0,0.0,0.0,0.0,0.0,0.0,0.0,0.0,0.0,0.0,0.0,0.0,0.0,0.0,0.0,0.0,0.9524,1.0687,1.1913,1.2996,1.3559,1.3535,1.1936,1.0936,1.0672,0.0,0.0,0.0,0.0,0.0,0.0,0.0,0.0,0.0,0.0,0.0,0.0,0.0,0.0,0.0,0.0,0.0,0.0,0.0,0.0,0.0,0.0,0.0,0.0,0.0,0.0,0.0,0.0,0.0,0.0,0.0,0.0,0.0,0.0,0.0,0.0,0.0,0.0,0.457,0.4844,0.0,0.0,0.0,0.0,0.0,0.0,0.0,0.0,0.4704,0.0,0.0,0.0,0.0,0.0,0.0,0.0,0.0,0.0,0.0,0.0,0.0,0.0,0.0,0.0,0.0,0.0,0.0,0.0,0.0,0.0,0.0,0.0,0.0,0.0,0.0,0.0,0.0,0.0,0.0,0.0,0.0,0.0,0.0,0.0,0.0,0.0,0.0,0.0,0.0,0.0,0.0,0.0,0.0,0.0,0.0,0.0,0.0,0.0,0.0,0.0,0.0,0.0,0.0,0.0,0.0,0.9344,0.9537,1.0414,1.2034,1.2906,1.3345,1.3309,1.1783,1.0804,1.048,0.0,0.0,0.0,0.0,0.0,0.0,0.0,0.0,0.0,0.0,0.0,0.0,0.0,0.0,0.0,0.0,0.0,0.0,0.0,0.0,0.0,0.0,0.0,0.0,0.0,0.0,0.0,0.0,0.0,0.0,0.0,0.0,0.0,0.0,0.0,0.0,0.0,0.0,0.0,0.5292,0.5392,0.0,0.0,0.0,0.0,0.0,0.0,0.0,0.0,0.5042,0.0,0.0,0.0,0.0,0.0,0.0,0.0,0.0,0.0,0.0,0.0,0.0,0.0,0.0,0.0,0.0,0.0,0.0,0.0,0.0,0.0,0.0,0.0,0.0,0.0,0.0,0.0,0.0,0.0,0.0,0.0,0.0,0.0,0.0,0.0,0.0,0.0,0.0,0.0,0.0,0.0,0.0,0.0,0.0,0.0,0.0,0.0,0.0,0.0,0.0,0.0,0.0,0.0,0.0,0.0,0.9778,1.0072,1.0924,1.2458,1.2608,1.2667,1.2655,1.1359,1.0344,0.0,0.0,0.0,0.0,0.0,0.0,0.0,0.0,0.0,0.0,0.0,0.0,0.0,0.0,0.0,0.0,0.0,0.0,0.0,0.0,0.0,0.0,0.0,0.0,0.0,0.0,0.0,0.0,0.0,0.0,0.0,0.0,0.0,0.0,0.0,0.0,0.0,0.0,0.0,0.0,0.5973,0.6204,0.6275,0.0,0.0,0.0,0.0,0.0,0.0,0.5345,0.5319,0.0,0.0,0.0,0.0,0.0,0.0,0.0,0.0,0.0,0.0,0.0,0.0,0.0,0.0,0.0,0.0,0.0,0.0,0.0,0.0,0.0,0.0,0.0,0.0,0.0,0.0,0.0,0.0,0.0,0.0,0.0,0.0,0.0,0.0,0.0,0.0,0.0,0.0,0.0,0.0,0.0,0.0,0.0,0.0,0.0,0.0,0.0,0.0,0.0,0.0,0.0,0.0,0.0,0.0,0.0,0.99,1.0569,1.1423,1.249,1.232,1.2061,1.1824,1.0733,0.969,0.0,0.0,0.0,0.0,0.0,0.0,0.0,0.0,0.0,0.0,0.0,0.0,0.0,0.0,0.0,0.0,0.0,0.0,0.0,0.0,0.0,0.0,0.0,0.0,0.0,0.0,0.0,0.0,0.0,0.0,0.0,0.0,0.0,0.0,0.0,0.0,0.0,0.0,0.0,0.0,0.0,0.7052,0.6934,0.6824,0.0,0.0,0.0,0.0,0.5462,0.5692,0.0,0.0,0.0,0.0,0.0,0.0,0.0,0.0,0.0,0.0,0.0,0.0,0.0,0.0,0.0,0.0,0.0,0.0,0.0,0.0,0.0,0.0,0.0,0.0,0.0,0.0,0.0,0.0,0.0,0.0,0.0,0.0,0.0,0.0,0.0,0.0,0.0,0.0,0.0,0.0,0.0,0.0,0.0,0.0,0.0,0.0,0.0,0.0,0.0,0.0,0.0,0.0,0.0,0.0,0.0,0.0,0.9348,1.06,1.1288,1.1436,1.2075,1.1978,1.0965,0.9842,0.8884,0.0,0.0,0.0,0.0,0.0,0.0,0.0,0.0,0.0,0.0,0.0,0.0,0.0,0.0,0.0,0.0,0.0,0.0,0.0,0.0,0.0,0.0,0.0,0.0,0.0,0.0,0.0,0.0,0.0,0.0,0.0,0.0,0.0,0.0,0.0,0.0,0.0,0.0,0.0,0.0,0.0,0.7515,0.7055,0.6979,0.6915,0.0,0.0,0.6767,0.6688,0.6866,0.0,0.0,0.0,0.0,0.0,0.0,0.0,0.0,0.0,0.0,0.0,0.0,0.0,0.0,0.0,0.0,0.0,0.0,0.0,0.0,0.0,0.0,0.0,0.0,0.0,0.0,0.0,0.0,0.0,0.0,0.0,0.0,0.0,0.0,0.0,0.0,0.0,0.0,0.0,0.0,0.0,0.0,0.0,0.0,0.0,0.0,0.0,0.0,0.0,0.0,0.0,0.0,0.0,0.0,0.0,0.9626,1.016,1.0834,1.1389,1.1746,1.1761,1.1533,1.1036,0.9861,0.9097,0.0,0.0,0.0,0.0,0.0,0.0,0.0,0.0,0.0,0.0,0.0,0.0,0.0,0.0,0.0,0.0,0.0,0.0,0.0,0.0,0.0,0.0,0.0,0.0,0.0,0.0,0.0,0.0,0.0,0.0,0.0,0.0,0.0,0.0,0.0,0.0,0.0,0.0,0.0,0.0,0.0,0.0,0.7594,0.774,0.0,0.0,0.0,0.7355,0.6828,0.0,0.0,0.0,0.0,0.0,0.0,0.0,0.0,0.0,0.0,0.0,0.0,0.0,0.0,0.0,0.0,0.0,0.0,0.0,0.0,0.0,0.0,0.0,0.0,0.0,0.0,0.0,0.0,0.0,0.0,0.0,0.0,0.0,0.0,0.0,0.0,0.0,0.0,0.0,0.0,0.0,0.0,0.0,0.0,0.0,0.0,0.0,0.0,0.0,0.0,0.0,0.0,0.0,0.0,0.0,0.0,0.0,1.0656,1.1068,1.1447,1.1815,1.1441,1.1123,1.0808,0.9835,0.0,0.0,0.0,0.0,0.0,0.0,0.0,0.0,0.0,0.0,0.0,0.0,0.0,0.0,0.0,0.0,0.0,0.0,0.0,0.0,0.0,0.0,0.0,0.0,0.0,0.0,0.0,0.8066,0.0,0.0,0.0,0.0,0.0,0.0,0.0,0.0,0.0,0.0,0.0,0.0,0.0,0.0,0.8362,0.8264,0.8433,0.8448,0.0,0.0,0.7804,0.7095,0.8198,0.8649,0.0,0.0,0.0,0.0,0.0,0.0,0.0,0.0,0.0,0.0,0.0,0.0,0.0,0.0,0.0,0.0,0.0,0.0,0.0,0.0,0.0,0.0,0.0,0.0,0.0,0.0,0.0,0.0,0.0,0.0,0.0,0.0,0.0,0.0,0.0,0.0,0.0,0.0,0.0,0.0,0.0,0.0,0.0,0.0,0.0,0.0,0.0,0.0,0.0,0.0,0.0,0.0,0.0,0.0,0.0,1.0097,1.1188,1.1434,1.0843,1.1194,1.0876,0.9832,0.9531,0.9054,0.0,0.0,0.0,0.0,0.0,0.0,0.0,0.0,0.0,0.0,0.0,0.0,0.0,0.0,0.0,0.0,0.0,0.0,0.0,0.0,0.0,0.0,0.0,0.0,0.0,0.0,0.0,0.0,0.0,0.0,0.0,0.0,0.0,0.0,0.0,0.0,0.0,0.0,0.0,0.0,0.0,0.9166,0.8957,0.8806,0.8741,0.0,0.0,0.8148,0.803,0.8573,0.8646,0.7538,0.0,0.0,0.0,0.0,0.0,0.0,0.0,0.0,0.0,0.0,0.0,0.0,0.0,0.0,0.0,0.0,0.0,0.0,0.0,0.0,0.0,0.0,0.0,0.0,0.0,0.0,0.0,0.0,0.0,0.0,0.0,0.0,0.0,0.0,0.0,0.0,0.0,0.0,0.0,0.0,0.0,0.0,0.0,0.0,0.0,0.0,0.0,0.0,0.0,0.0,0.0,0.0,0.0,1.0335,1.0374,1.0948,1.1109,1.0833,1.0923,1.0716,1.0196,0.9844,0.9531,0.0,0.0,0.0,0.0,0.0,0.0,0.0,0.0,0.0,0.0,0.0,0.0,0.0,0.0,0.0,0.0,0.0,0.0,0.0,0.0,0.0,0.0,0.0,0.0,0.0,0.0,0.0,0.0,0.793,0.7845,0.7703,0.0,0.0,0.0,0.0,0.0,0.0,0.0,0.0,0.0,0.0,1.0676,0.9586,0.9848,0.0,0.0,0.9281,0.8947,0.8809,0.9361,0.9426,0.8372,0.841,0.0,0.0,0.0,0.0,0.0,0.0,0.0,0.0,0.0,0.0,0.0,0.0,0.0,0.0,0.0,0.0,0.0,0.0,0.0,0.0,0.0,0.0,0.0,0.0,0.0,0.0,0.0,0.0,0.0,0.0,0.0,0.0,0.0,0.0,0.0,0.0,0.0,0.0,0.0,0.0,0.0,0.0,0.0,0.0,0.0,0.0,0.0,0.0,0.0,0.0,0.0,0.0,1.0731,1.0845,1.1304,1.142,1.1246,1.1093,1.0901,1.0626,1.0292,1.0185,0.0,0.0,0.0,0.0,0.0,0.0,0.0,0.0,0.0,0.0,0.0,0.0,0.0,0.0,0.0,0.0,0.0,0.0,0.0,0.0,0.0,0.0,0.0,0.0,0.0,0.0,0.0,0.0,0.8583,0.8601,0.8031,0.0,0.0,0.0,0.0,0.0,0.0,0.0,0.0,0.0,0.0,1.1429,1.0306,1.0521,1.0629,1.0166,0.9725,0.9388,0.9227,0.9704,0.9838,0.9022,0.0,0.0,0.0,0.0,0.0,0.0,0.0,0.0,0.0,0.0,0.0,0.0,0.0,0.0,0.0,0.0,0.0,0.0,0.0,0.0,0.0,0.0,0.0,0.0,0.0,0.0,0.0,0.0,0.0,0.0,1.0827,0.0,0.0,0.0,0.0,0.0,0.0,0.0,0.0,0.0,0.0,0.0,0.0,0.0,0.0,0.0,0.0,0.0,0.0,0.0,0.0,0.0,0.0,1.1389,1.1395,1.2408,1.2629,1.1998,1.1851,1.1503,1.0924,1.0877,1.0877,1.0879,0.0,0.0,0.0,0.0,0.0,0.0,0.0,0.0,0.0,0.0,0.0,0.0,0.0,0.0,0.0,0.0,0.0,0.0,0.0,0.0,0.0,0.0,0.0,0.0,0.0,0.0,0.9357,0.865,0.8282,0.0,0.0,0.0,0.0,0.0,0.0,0.0,0.0,0.0,0.0,1.0827,1.1074,1.1108,1.0582,1.0196,1.0118,0.9657,0.9298,0.9237,0.9493,0.9603,0.0,0.0,0.0,0.0,0.0,0.0,0.0,0.0,0.0,0.0,0.0,0.0,0.0,0.0,0.0,0.0,0.0,0.0,0.0,0.0,0.0,0.0,0.0,0.0,0.0,0.0,0.0,1.264,1.2497,0.0,0.0,0.0,0.0,0.0,0.0,0.0,0.0,0.0,0.0,0.0,1.3686,1.4343,0.0,0.0,0.0,0.0,0.0,0.0,0.0,0.0,0.0,0.0,0.0,0.0,1.2072,1.2536,1.3155,1.3114,1.2428,1.2357,1.1981,1.1265,1.1316,1.1299,1.1161,0.0,0.0,0.0,0.0,0.0,0.0,0.0,0.0,0.0,0.0,0.0,0.0,0.0,0.0,0.0,0.0,0.0,0.0,0.0,0.0,0.0,0.0,0.0,0.0,0.0,1.0831,0.0,0.0,0.0,0.0,0.0,0.0,0.0,0.0,0.0,0.0,0.0,1.0167,1.0446,1.0964,1.1082,1.0426,1.1052,1.129,0.0,0.0,0.0,0.0,0.0,0.0,0.0,0.0,0.0,0.0,0.0,0.0,0.0,0.0,1.0645,0.9417,0.9114,0.9062,0.9051,0.0,0.0,0.0,0.0,0.0,0.0,0.0,0.0,0.0,0.0,0.0,0.0,0.0,0.0,1.3664,0.0,1.3528,0.0,0.0,0.0,0.0,0.0,0.0,0.0,0.0,1.4962,1.5534,1.5636,1.6057,1.5839,0.0,1.464,1.3754,0.0,0.0,0.0,0.0,0.0,0.0,0.0,0.0,1.2969,1.3196,1.3918,1.3982,1.3334,1.307,1.26,1.1846,1.1735,1.1685,1.1568,1.1618,1.137,0.0,0.0,0.0,0.0,0.0,0.0,0.0,0.0,0.0,0.0,0.0,0.0,0.0,0.0,0.0,0.0,0.0,0.0,0.0,0.0,0.0,0.0,0.0,1.1585,0.0,0.0,0.0,0.0,0.0,0.0,0.0,0.0,0.0,1.0053,1.0173,1.0409,1.0772,1.1229,1.1316,1.0751,0.0,0.0,0.0,0.0,0.0,0.0,0.0,1.023,1.028,1.0495,1.0801,1.1325,1.2048,1.2531,1.2362,0.0,0.0,1.097,1.0575,1.0472,1.0325,0.9981,0.9725,0.9825,1.0165,1.0436,0.0,0.0,0.0,0.0,0.0,0.0,0.0,0.0,1.4669,1.4659,0.0,1.4609,0.0,0.0,0.0,0.0,0.0,1.4103,0.0,0.0,1.7404,1.8155,1.8116,1.8142,1.7716,1.6882,1.6029,1.5165,1.4268,1.4024,0.0,0.0,0.0,0.0,0.0,0.0,1.3971,1.3465,1.4788,1.5211,1.4603,1.3968,1.3281,1.2597,1.2166,1.201,1.2152,1.2433,1.2648,1.2704,1.2198,0.0,0.0,0.0,0.0,0.0,0.0,0.0,0.0,0.0,0.0,0.0,0.0,0.0,0.0,0.0,0.0,0.0,0.0,0.0,0.0,1.2185,0.0,0.0,0.0,0.0,0.0,0.0,0.0,0.0,0.0,0.0,1.0247,1.0475,1.0873,1.1497,0.0,0.0,0.0,0.0,1.1499,1.1336,1.0794,1.0449,1.0507,1.1064,1.1582,1.1784,0.0,0.0,1.2879,1.2933,1.2923,1.2573,1.3444,1.3608,1.1924,1.1558,1.1347,1.0979,1.0847,1.073,1.0824,1.1271,1.1418,1.6615,0.0,0.0,0.0,0.0,1.5206,1.5865,1.6635,1.7152,1.6991,1.6366,1.6409,0.0,0.0,0.0,0.0,0.0,0.0,1.6101,1.7532,1.8514,1.9029,1.919,1.9614,1.9397,1.864,1.8203,1.7588,1.6834,1.6647,1.5264,1.271,0.0,0.0,0.0,0.0,1.4227,1.4994,1.5667,1.5678,1.503,1.4375,1.3493,1.2348,1.2651,1.2837,1.2896,1.2966,1.3153,1.3401,1.3709,0.0,0.0,0.0,0.0,0.0,0.0,0.0,0.0,0.0,0.0,0.0,0.0,0.0,0.0,0.0,0.0,0.0,0.0,0.0,1.179,1.3342,1.3821,0.0,0.0,0.0,0.0,0.0,0.0,0.0,0.0,0.0,1.1259,1.1391,1.1556,0.0,0.0,1.1399,1.0896,1.1786,1.2315,1.1795,1.2127,0.0,1.2282,1.2235,1.2267,1.2413,1.3234,1.3855,1.3811,1.4257,1.4606,1.4583,1.4875,1.4776,1.389,1.3563,1.3459,1.3344,1.3032,1.2752,1.2776,1.2916,1.2929,1.9104,1.7254,1.6637,1.6514,1.6796,1.7255,1.7901,1.8642,1.8991,1.8812,1.8234,1.8186,1.7391,1.608,1.584,0.0,0.0,0.0,1.7649,1.9219,1.9639,2.0045,2.0416,2.0763,2.0473,1.9645,1.9469,1.8992,1.8203,1.7569,1.6267,1.43,0.0,0.0,1.3666,1.4345,1.4952,1.5486,1.5958,1.6001,1.5593,1.4932,1.4083,1.3063,1.3375,1.3596,1.3611,1.3887,1.4129,1.4337,1.4928,1.4606,0.0,0.0,0.0,0.0,0.0,0.0,0.0,0.0,0.0,0.0,0.0,1.3306,1.2896,0.0,0.0,0.0,1.3412,1.3379,1.3608,1.4498,0.0,0.0,0.0,0.0,0.0,0.0,0.0,1.1724,1.2009,1.2167,1.2113,1.2344,1.239,1.1999,1.1793,1.1541,1.115,0.0,1.2877,1.247,1.2968,1.3325,1.3212,1.3035,1.3007,1.331,1.3992,1.4494,1.4561,1.498,1.53,1.5345,1.5435,1.5356,1.4892,1.48,1.4617,1.4245,1.3973,1.3784,1.3704,1.3844,1.3928,2.1541,2.0819,1.9413,1.905,1.9387,1.9529,1.9952,2.0558,2.039,2.0253,2.0105,1.986,1.931,1.8533,1.7862,0.0,1.9093,1.8862,1.9508,2.0852,2.0855,2.1142,2.1664,2.1664,2.1145,2.0178,2.017,1.9718,1.8851,1.7579,1.6864,1.6762,1.6555,1.5754,1.446,1.5518,1.5859,1.5311,1.5912,1.6177,1.6109,1.5571,1.4944,1.4206,1.4252,1.4277,1.4292,1.4915,1.5328,1.5393,1.5912,1.6134,1.5899,0.0,0.0,0.0,0.0,0.0,0.0,0.0,0.0,0.0,0.0,0.0,0.0,0.0,0.0,0.0,1.5577,0.0,1.6605,1.561,0.0,0.0,0.0,1.3382,1.4541,1.3753,1.3075,1.2963,0.0,0.0,1.2839,1.3264,1.3338,1.2755,1.229,1.2078,1.2344,1.292,1.3338,1.3323,1.3519,1.3679,1.376,1.3717,1.3855,1.4319,1.481,1.5062,1.5073,1.5164,1.5233,1.5142,1.53,1.5424,1.5289,1.5289,1.5085,1.4128,1.41,1.4169,1.4068,1.4349,1.4465,2.4702,2.4466,2.3543,2.2042,2.027,2.0846,2.118,2.1386,2.1852,2.1751,2.1223,2.1143,2.0713,1.9989,1.9818,2.0179,2.096,2.0892,2.1347,2.2203,2.2237,2.2252,2.2278,2.2284,2.2112,2.1762,2.1596,2.1149,2.0446,1.9955,1.9147,1.8055,1.7404,1.647,1.5319,1.5403,1.569,1.6191,1.6196,1.5948,1.5477,1.5771,1.5393,1.423,1.4701,1.4962,1.4962,1.512,1.5489,1.6053,1.6669,1.6279,1.4732,1.4885,0.0,0.0,0.0,0.0,0.0,0.0,0.0,0.0,0.0,1.4284,1.4202,0.0,1.3686,0.0,1.5889,1.6704,1.6356,1.6673,0.0,0.0,1.529,1.4864,1.5116,1.4494,1.4105,1.4232,1.4069,1.3951,1.4002,1.4063,1.4164,1.4223,1.3828,1.3419,1.3142,1.3902,1.4454,1.4393,1.4696,1.5016,1.4947,1.494,1.4853,1.4913,1.5016,1.5097,1.5108,1.5131,1.5142,1.5108,1.5142,1.5187,1.5153,1.529,1.5267,1.4892,1.496,1.5085,1.5085,1.5108,1.5085,2.5794,2.5759,2.5348,2.4283,2.2851,2.2569,2.2446,2.2475,2.2772,2.2652,2.2252,2.2145,2.1939,2.1655,2.1523,2.1766,2.2239,2.2133,2.2274,2.2618,2.2618,2.2524,2.2409,2.2409,2.2325,2.2154,2.2058,2.1776,2.1335,2.0912,2.0272,1.9482,1.8731,1.8091,1.7485,1.6186,1.589,1.6667,1.6448,1.6171,1.584,1.6076,1.5819,1.5077,1.54,1.5441,1.5115,1.5141,1.5211,1.534,1.632,1.6246,1.4838,1.5237,1.4977,0.0,0.0,0.0,0.0,0.0,0.0,0.0,0.0,0.0,0.0,0.0,1.4948,1.5202,1.6631,1.7253,1.649,1.6988,1.7188,1.687,1.6458,1.6304,1.6608,1.6143,1.5734,1.5605,1.5239,1.4909,1.47,1.464,1.464,1.4784,1.4828,1.4633,1.4139,1.4521,1.4876,1.4856,1.5304,1.5486,1.5162,1.5172,1.5073,1.4742,1.4719,1.4855,1.505,1.4913,1.4844,1.505,1.5153,1.521,1.5255,1.5403,1.5459,1.5411,1.5257,1.5175,1.5287,1.5255,1.521,2.6033,2.6104,2.599,2.5943,2.583,2.4397,2.3737,2.3648,2.3418,2.3244,2.3144,2.2903,2.2929,2.3138,2.2921,2.294,2.3138,2.2921,2.2795,2.2793,2.2786,2.2723,2.2593,2.2572,2.2396,2.212,2.2082,2.2044,2.1906,2.1258,2.0912,2.0781,2.011,1.9828,1.9822,1.7523,1.6486,1.6898,1.6742,1.6691,1.6769,1.6431,1.622,1.6172,1.6151,1.5827,1.52,1.5209,1.4977,1.447,1.5679,1.6169,1.5697,1.5522,1.5716,0.0,1.5071,0.0,0.0,0.0,0.0,0.0,0.0,0.0,0.0,1.6567,1.6288,1.6744,1.7455,1.7664,1.7061,1.7166,1.7474,1.7944,1.7618,1.7558,1.8108,1.7767,1.7287,1.6827,1.6363,1.5865,1.5402,1.5276,1.5231,1.5253,1.5516,1.5549,1.5116,1.5021,1.505,1.5087,1.5471,1.5494,1.4921,1.4897,1.4821,1.4277,1.4206,1.4442,1.4798,1.4648,1.4544,1.4901,1.5152,1.5323,1.5447,1.5491,1.5569,1.5614,1.5226,1.4975,1.5161,1.514,1.5095,2.7305,2.7678,2.7049,2.677,2.6699,2.5759,2.5027,2.448,2.4426,2.4029,2.343,2.3366,2.3377,2.343,2.3372,2.3372,2.3418,2.3377,2.3685,2.4299,2.4275,2.4201,2.4069,2.3983,2.3504,2.2758,2.2615,2.2555,2.2521,2.2398,2.1997,2.1336,2.0559,2.0164,2.0087,0.0,0.0,0.0,1.7383,1.7647,1.7615,1.6927,1.6523,1.6503,1.6412,0.0,1.6068,1.6006,1.5948,1.5825,1.6136,0.0,0.0,0.0,0.0,0.0,0.0,0.0,0.0,0.0,0.0,0.0,1.7546,1.7204,1.7344,1.6596,1.6556,1.7603,1.7493,1.7722,1.8568,1.8679,1.8568,1.8278,1.8157,1.7974,1.7707,1.7493,1.7281,1.7198,1.7037,1.6915,1.6744,1.678,1.6769,1.6637,1.6345,1.6065,1.6021,1.5714,1.5548,1.5584,1.5577,1.5433,1.5059,1.4793,1.4577,1.4181,1.3884,1.3834,1.3982,1.4309,1.4459,1.459,1.4967,1.5255,1.5221,1.5198,1.5244,1.5221,1.514,1.5161,1.5501,1.5228,1.4986,2.8576,0.0,2.8493,2.8265,0.0,2.7464,2.6856,2.6104,2.5494,2.5009,2.4647,2.4629,2.4629,2.4617,2.4242,2.429,2.4611,2.4254,2.4504,2.5172,2.5097,2.4771,2.4297,2.4123,2.3628,2.2803,2.2738,2.2705,2.2705,2.2705,2.2496,2.2104,2.1689,2.1468,2.143,2.0996,2.0016,1.8508,1.8693,1.8771,1.8721,1.8251,1.793,1.7839,1.7789,0.0,0.0,0.0,0.0,0.0,0.0,0.0,0.0,0.0,0.0,1.794,1.8206,1.8532,1.8952,1.8968,1.9139,1.9594,1.9216,1.8666,1.7948,1.7753,1.7958,1.8553,1.8317,1.8381,1.9014,1.9106,1.8998,1.8726,1.8597,1.8422,1.8177,1.7998,1.7808,1.7581,1.7503,1.7424,1.723,1.7222,1.7222,1.7199,1.69,1.6655,1.6646,1.601,1.5526,1.5592,1.548,1.5368,1.5243,1.5002,1.4772,1.4581,1.4302,1.4162,1.4315,1.4413,1.4559,1.4782,1.5048,1.5198,1.5289,1.5288,1.5311,1.5344,1.5213,1.5177,1.5497,1.528,1.5042,2.9728,2.9278,2.9777,2.9606,2.901,2.8846,2.8432,2.774,0.0,0.0,0.0,2.5894,2.5912,2.5858,2.5267,2.5321,2.584,2.5273,2.5362,2.5999,2.5839,2.5374,2.4684,2.4354,2.3797,2.3085,2.2903,2.2814,2.2831,2.2814,2.2838,2.2831,2.282,2.2794,2.2753,2.2665,2.1939,2.059,2.0162,1.994,1.9864,1.9593,1.9378,1.92,1.9239,1.8808,1.7896,1.7843,1.7494,1.6749,1.7258,1.7417,1.7063,1.8077,1.8529,1.816,1.866,1.9302,2.0011,2.0097,2.0376,2.0942,2.0613,1.9916,1.8758,1.9143,1.9389,1.9325,1.9232,1.9167,1.911,1.9097,1.9073,1.903,1.8893,1.8769,1.8731,1.861,1.8317,1.8002,1.7932,1.7801,1.7519,1.7491,1.7393,1.7375,1.7258,1.7136,1.6934,1.6197,1.5669,1.5681,1.5614,1.5491,1.5434,1.5272,1.5172,1.5111,1.4801,1.4642,1.4791,1.4754,1.4774,1.4966,1.5107,1.5221,1.5368,1.539,1.5468,1.557,1.5293,1.5103,1.534,1.5255,1.5062,3.0491,3.0812,3.0239,2.9941,2.9771,2.9089,2.8724,2.8505,2.6987,2.6309,2.6315,2.6327,2.6327,2.6309,2.6224,2.6224,2.6291,2.6157,2.6498,2.7236,2.7164,2.7055,2.6892,2.6074,2.5285,2.4486,2.3702,2.3294,2.3306,2.3306,2.3306,2.33,2.3294,2.3206,2.3034,2.281,2.2542,2.2226,2.1395,2.0948,2.0874,2.0147,1.9717,1.9631,1.9581,1.9461,1.923,1.9224,1.901,1.8562,1.8676,1.8881,1.9217,1.9421,1.9759,2.0296,2.0446,2.0541,2.0677,2.0685,2.0634,2.0505,2.0436,2.0225,1.9834,1.9841,1.9786,1.9512,1.9457,1.9347,1.9139,1.9059,1.8993,1.8884,1.876,1.8668,1.8571,1.8513,1.8469,1.838,1.8396,1.8366,1.8258,1.8258,1.8159,1.8019,1.7608,1.71,1.6639,1.6445,1.6369,1.6166,1.608,1.5975,1.5768,1.5535,1.5427,1.5419,1.5067,1.4706,1.4529,1.482,1.4979,1.463,1.5045,1.5266,1.5255,1.5153,1.5232,1.5277,1.5173,1.5151,1.5198,1.5119,1.497,3.1664,3.1561,3.1592,3.1353,3.0947,3.0596,3.0167,2.9779,2.9464,2.8695,2.775,2.7708,2.7685,2.7614,2.7195,2.7214,2.7567,2.7108,2.735,2.8045,2.7983,2.7717,2.7266,2.6776,2.59,2.4723,2.4277,2.3808,2.3439,2.3415,2.3415,2.3415,2.3415,2.3358,2.3254,2.314,2.3061,2.3007,2.2326,2.1915,2.1847,2.1522,2.1251,2.1154,2.116,2.1055,2.0799,2.0792,2.0671,2.037,2.04,2.0532,2.0814,2.0669,2.0727,2.1031,2.0909,2.0818,2.0818,2.0818,2.0737,2.0621,2.0613,2.0569,2.0443,2.015,1.9943,1.978,1.978,1.9717,1.9605,1.9508,1.9338,1.9162,1.9012,1.8822,1.8644,1.8537,1.8488,1.8488,1.8488,1.8488,1.8488,1.8396,1.8307,1.8183,1.7835,1.7424,1.6968,1.7018,1.689,1.634,1.6211,1.6152,1.6034,1.5942,1.5862,1.5858,1.5713,1.5492,1.528,1.5566,1.5607,1.5496,1.5625,1.5756,1.5734,1.5602,1.5513,1.5457,1.5379,1.5323,1.5221,1.4969,1.4649,3.2921,3.2401,3.2816,3.2531,3.1807,3.1807,3.1446,3.0939,3.1509,3.0923,2.9574,2.9288,2.9265,2.9296,2.8529,2.8579,2.9113,2.8622,2.8652,2.9178,2.8938,2.8466,2.7845,2.7433,2.6531,2.5397,2.5158,2.4721,2.4181,2.4127,2.4127,2.4104,2.3868,2.3768,2.3763,2.3515,2.3415,2.3387,2.2987,2.2734,2.2612,2.2599,2.2538,2.2432,2.2463,2.2364,2.2097,2.2073,2.1977,2.1746,2.1731,2.1748,2.1773,2.1564,2.141,2.1395,2.1166,2.0974,2.0917,2.0835,2.0818,2.0818,2.0818,2.0818,2.0769,2.0426,2.0148,2.0096,2.0087,2.0061,1.9937,1.9827,1.9669,1.9435,1.9269,1.9097,1.887,1.8711,1.8595,1.8581,1.8659,1.867,1.8525,1.8496,1.8408,1.816,1.7922,1.7666,1.7475,1.7365,1.6943,1.6517,1.6252,1.6323,1.6377,1.6298,1.6296,1.6364,1.6463,1.6377,1.627,1.6234,1.6214,1.6116,1.6026,1.6008,1.6179,1.6077,1.5903,1.5859,1.5669,1.5457,1.5255,1.4807,1.4463,3.4042,3.3887,3.3286,3.2531,3.1862,3.1844,3.1794,3.1719,3.1794,3.1727,3.1447,3.0759,3.0808,3.1262,3.0523,3.0546,3.1206,3.1176,3.1085,3.1036,3.0406,2.9972,2.9685,2.8398,2.7653,2.7348,2.6715,2.6291,2.6127,2.6197,2.6274,2.6179,2.5339,2.4836,2.4747,2.3897,2.3427,2.3415,2.3346,2.3206,2.2952,2.2718,2.2576,2.2494,2.2555,2.2582,2.2518,2.2592,2.2477,2.2195,2.2126,2.2039,2.184,2.1783,2.1768,2.1744,2.1714,2.1595,2.1262,2.0974,2.0811,2.0818,2.0818,2.0818,2.0818,2.0745,2.0628,2.0443,2.0359,2.0213,1.9859,1.9767,1.9693,1.9548,1.9435,1.9349,1.9284,1.9045,1.886,1.886,1.9127,1.9119,1.8787,1.8981,1.8911,1.816,1.7726,1.7385,1.7266,1.7007,1.6704,1.6478,1.6393,1.658,1.6832,1.6686,1.6594,1.6936,1.7094,1.6909,1.6619,1.6201,1.5915,1.6184,1.5867,1.5768,1.6065,1.6166,1.614,1.6024,1.5807,1.5524,1.5163,1.4842,1.461,3.4609,3.4561,3.4131,3.3394,3.2617,3.3014,3.2946,3.255,3.3014,3.3218,3.3101,3.2324,3.1868,3.1691,3.1299,3.1308,3.1525,3.1458,3.1428,3.1366,3.0589,3.0216,3.0081,2.9048,2.8282,2.7829,2.7462,2.7071,2.668,2.6607,2.6607,2.6583,2.6145,2.5711,2.5249,2.4811,2.4358,2.3894,2.3708,2.3578,2.3445,2.309,2.279,2.2579,2.2579,2.2616,2.2616,2.2636,2.2605,2.2504,2.2473,2.245,2.235,2.2148,2.2032,2.2025,2.1891,2.1646,2.1317,2.1167,2.1014,2.0835,2.0818,2.0818,2.0818,2.0818,2.0753,2.0662,2.0603,2.0468,2.0239,2.0166,2.0034,1.9833,1.9717,1.959,1.9419,1.9284,1.9185,1.9229,1.9648,1.9937,1.9691,1.9694,1.9406,1.8656,1.8041,1.7587,1.7279,1.7218,1.7142,1.6881,1.6621,1.648,1.6689,1.6581,1.666,1.7039,1.7222,1.7076,1.6615,1.637,1.6209,1.6306,1.5988,1.5889,1.6271,1.6084,1.5959,1.5948,1.6051,1.5846,1.5457,1.5494,1.5402,3.5083,3.4884,3.4727,3.4231,3.3573,3.4128,3.4072,3.3624,3.4147,3.4379,3.43,3.3681,3.3099,3.2519,3.2093,3.198,3.2102,3.2077,3.207,3.1978,3.1213,3.0864,3.0754,2.9782,2.9139,2.8765,2.8356,2.7818,2.7304,2.7268,2.7249,2.7226,2.7029,2.6521,2.5792,2.554,2.5007,2.4249,2.4001,2.3858,2.3764,2.3462,2.3109,2.2784,2.2665,2.2626,2.2636,2.2626,2.2663,2.2709,2.2705,2.2705,2.2699,2.2477,2.2334,2.2313,2.2077,2.1818,2.1546,2.1471,2.1324,2.1103,2.1055,2.1039,2.0958,2.0933,2.0852,2.0703,2.0662,2.0594,2.0535,2.0458,2.0321,2.012,2.0001,1.9854,1.9696,1.9706,1.9814,1.9844,2.0508,2.0907,2.0813,2.0362,1.9703,1.924,1.85,1.7965,1.7615,1.7682,1.7606,1.733,1.6842,1.6575,1.6573,1.6411,1.662,1.7003,1.7222,1.7091,1.6608,1.6467,1.6323,1.6222,1.6127,1.6016,1.5984,1.5806,1.5762,1.5848,1.6069,1.6282,1.6133,1.6285,1.6185,3.56,3.4955,3.4898,3.4846,3.4818,3.4827,3.4832,3.4694,3.4822,3.4821,3.4767,3.4724,3.4634,3.4372,3.3268,3.3065,3.3601,3.3621,3.3584,3.3511,3.2775,3.2467,3.2381,3.0938,3.0497,3.0809,2.97,2.901,2.8919,2.8834,2.8908,2.8834,2.8117,2.7334,2.6576,2.5883,2.5026,2.4373,2.4262,2.4082,2.3832,2.3761,2.3537,2.3114,2.2842,2.2712,2.2699,2.2692,2.2709,2.2705,2.2705,2.2705,2.2699,2.2685,2.2648,2.2628,2.2354,2.2188,2.211,2.1904,2.1736,2.1714,2.1661,2.1586,2.1309,2.127,2.1055,2.0586,2.0571,2.0545,2.0564,2.0499,2.0424,2.0287,2.027,2.0235,2.0281,2.0512,2.072,2.089,2.157,2.2079,2.2075,2.0754,2.0117,1.9655,1.8796,1.8113,1.8227,1.7941,1.7735,1.7558,1.7209,1.6817,1.7039,1.6697,1.6608,1.7069,1.7393,1.7175,1.6804,1.648,1.6281,1.5967,1.5418,1.5235,1.5444,1.5568,1.5631,1.5892,1.6472,1.6681,1.6562,1.6507,1.6455,3.5944,3.5094,3.5094,3.5023,3.4913,3.4908,3.4908,3.4908,3.4908,3.4879,3.4955,3.5371,3.5245,3.4698,3.4738,3.4577,3.432,3.4285,3.4243,3.4155,3.3416,3.3043,3.2931,3.1891,3.1455,3.153,3.1068,3.0699,3.0405,2.9519,2.9262,2.958,2.8956,2.8172,2.7444,2.7095,2.6311,2.5112,2.4975,2.4697,2.4104,2.3896,2.3692,2.3541,2.3157,2.2963,2.2946,2.2803,2.2705,2.2705,2.2705,2.2705,2.2705,2.2705,2.2705,2.2692,2.2588,2.2426,2.222,2.2124,2.1984,2.1811,2.1781,2.1759,2.1631,2.1572,2.1378,2.1039,2.0869,2.0887,2.0937,2.0655,2.0349,2.0313,2.0311,2.0496,2.0881,2.1166,2.1427,2.1806,2.2468,2.3031,2.3087,2.2378,2.1401,2.0727,1.9773,1.9032,1.8606,1.8489,1.8468,1.8233,1.8007,1.788,1.7977,1.7207,1.6858,1.7447,1.773,1.7334,1.6937,1.6293,1.5988,1.5926,1.5224,1.4855,1.5221,1.5552,1.5607,1.5821,1.6437,1.6995,1.6898,1.6989,1.6973,3.5904,3.5354,3.5308,3.5222,3.5102,3.5089,3.5094,3.5132,3.5365,3.5466,3.5624,3.6272,3.6274,3.588,3.6311,3.6069,3.5238,3.474,3.4489,3.4433,3.3931,3.3692,3.3542,3.2867,3.2552,3.2603,3.2309,3.1939,3.1348,3.0295,2.9959,3.0118,2.9629,2.8827,2.7976,2.7811,2.7095,2.6017,2.5778,2.5411,2.467,2.4409,2.4187,2.3907,2.3524,2.3236,2.3102,2.2849,2.2705,2.2705,2.2705,2.2795,2.3026,2.306,2.306,2.3054,2.3054,2.2842,2.244,2.2347,2.2281,2.2132,2.2094,2.2049,2.1948,2.1899,2.1781,2.1661,2.1593,2.1648,2.188,2.1633,2.1243,2.1,2.0749,2.0903,2.1535,2.1957,2.2395,2.2892,2.3303,2.3764,2.4014,2.3448,2.2551,2.1555,2.0669,1.9886,1.916,1.9096,1.9241,1.8964,1.8907,1.8844,1.8874,1.8366,1.7717,1.8125,1.8266,1.7765,1.7248,1.6489,1.5968,1.5828,1.5503,1.5097,1.5087,1.5453,1.5676,1.5823,1.6531,1.7264,1.7375,1.7578,1.7462,3.5535,3.5509,3.5516,3.5617,3.5554,3.5554,3.554,3.5757,3.6318,3.6554,3.6734,3.7525,3.7754,3.7762,3.7729,3.7392,3.6453,3.5395,3.4749,3.4558,3.4486,3.4472,3.4402,3.3732,3.3712,3.4202,3.342,3.2481,3.1685,3.1342,3.0931,3.0399,3.0295,2.9549,2.7958,2.8062,2.7548,2.6864,2.668,2.6209,2.5526,2.5373,2.5046,2.4408,2.4091,2.3778,2.3286,2.2935,2.2766,2.2758,2.279,2.3067,2.3698,2.3819,2.3819,2.3795,2.3795,2.3416,2.2834,2.27,2.2635,2.2612,2.2642,2.2477,2.2258,2.2269,2.237,2.2475,2.2588,2.2818,2.3296,2.326,2.2903,2.2384,2.1685,2.1596,2.2218,2.2886,2.3533,2.3989,2.4132,2.4167,2.4157,2.3805,2.3087,2.2099,2.1328,2.0747,2.0009,1.9914,1.9788,1.9695,1.9657,1.9614,1.9664,1.9629,1.9131,1.8783,1.8748,1.8509,1.8079,1.7444,1.6869,1.6612,1.591,1.5494,1.5313,1.5666,1.6045,1.6323,1.7029,1.745,1.7543,1.7639,1.7804,3.6,3.5673,3.6754,3.6869,3.6365,3.633,3.6657,3.7138,3.6907,3.7016,3.7662,3.8493,3.8508,3.8174,3.8497,3.8323,3.7481,3.6978,3.6199,3.5175,3.4991,3.4986,3.491,3.4715,3.4666,3.4588,3.3711,3.3276,3.311,3.2247,3.1683,3.1728,3.1274,3.0803,3.0197,2.9732,2.9053,2.8295,2.7708,2.7034,2.6324,2.6222,2.608,2.5871,2.5581,2.5369,2.517,2.3916,2.3218,2.32,2.3532,2.4006,2.4513,2.4619,2.4629,2.4567,2.407,2.3743,2.3457,2.2981,2.2705,2.2705,2.2705,2.2655,2.262,2.298,2.3139,2.3086,2.3335,2.3811,2.4033,2.3752,2.3374,2.2785,2.2285,2.2297,2.2987,2.3588,2.4025,2.423,2.4286,2.426,2.4101,2.3738,2.3122,2.2571,2.1754,2.1042,2.1051,2.0926,2.0842,2.0503,2.0428,2.0109,1.9854,1.9707,1.9485,1.9158,1.9103,1.9089,1.8717,1.8295,1.7754,1.7212,1.6507,1.6071,1.5881,1.5944,1.6349,1.6689,1.7199,1.741,1.7491,1.7594,1.7716,3.6404,3.61,3.7061,3.7215,3.6734,3.6715,3.7215,3.7853,3.743,3.768,3.853,3.9381,3.9442,3.9058,3.9458,3.9169,3.8442,3.8385,3.76,3.6332,3.6166,3.5876,3.5305,3.5186,3.5513,3.5538,3.4522,3.4205,3.4668,3.3426,3.2702,3.2638,3.2132,3.1641,3.1409,3.0895,3.0246,2.9488,2.8937,2.816,2.7291,2.7047,2.6906,2.6622,2.6441,2.6344,2.6249,2.5177,2.4509,2.442,2.4672,2.5119,2.5659,2.5659,2.5591,2.5423,2.4776,2.4139,2.3795,2.3112,2.2705,2.274,2.2957,2.3112,2.3237,2.3732,2.404,2.4223,2.4478,2.487,2.5159,2.5,2.4524,2.413,2.3528,2.3469,2.4038,2.4477,2.4722,2.4769,2.4639,2.4584,2.4458,2.4106,2.3461,2.3136,2.2494,2.1704,2.1858,2.1679,2.1335,2.0956,2.0643,2.0273,1.9818,1.9714,1.9714,1.9551,1.9415,1.9387,1.9229,1.8777,1.8276,1.7897,1.731,1.7024,1.6816,1.6635,1.683,1.7133,1.729,1.7316,1.7371,1.745,1.7543,3.6806,3.6726,3.6892,3.7081,3.7004,3.7004,3.7542,3.8142,3.8088,3.8569,3.9419,4.0073,4.0396,4.0416,4.0335,3.9935,3.9373,3.9269,3.8737,3.8016,3.7781,3.7167,3.5802,3.5626,3.6197,3.6848,3.5794,3.5421,3.581,3.4942,3.3986,3.3493,3.3129,3.2437,3.199,3.1574,3.0968,3.0338,3.0063,2.9145,2.7934,2.7866,2.7585,2.6919,2.6903,2.691,2.69,2.675,2.6438,2.6039,2.5947,2.6279,2.6834,2.6804,2.668,2.6613,2.5665,2.486,2.4067,2.3512,2.305,2.3119,2.3578,2.3853,2.3967,2.4513,2.5093,2.551,2.5687,2.5954,2.6421,2.6446,2.626,2.6017,2.4982,2.4786,2.5354,2.5462,2.5351,2.5358,2.517,2.5034,2.5339,2.5025,2.4616,2.4121,2.3754,2.3272,2.2493,2.2193,2.1576,2.122,2.0976,2.0475,2.004,1.9717,1.9708,1.9678,1.9584,1.9569,1.9587,1.9189,1.8843,1.8479,1.8157,1.7914,1.7609,1.7323,1.7111,1.717,1.7235,1.7222,1.7251,1.7356,1.7371,3.7977,3.7073,3.8747,3.9165,3.8665,3.8627,3.9069,3.9704,3.9165,3.9361,4.0112,4.04,4.0492,4.0492,4.0492,4.0354,4.0154,4.0112,3.9665,3.8988,3.9474,3.8665,3.7343,3.7005,3.7213,3.7545,3.7127,3.6977,3.6966,3.6569,3.6139,3.5715,3.4853,3.4392,3.3944,3.2303,3.1372,3.0913,2.9837,2.9244,2.8846,2.8656,2.8583,2.8436,2.8326,2.8314,2.8345,2.8363,2.7926,2.7103,2.7007,2.7226,2.7723,2.7716,2.7643,2.7496,2.6732,2.6083,2.5684,2.4885,2.4406,2.4402,2.4562,2.4688,2.4705,2.5311,2.5725,2.5992,2.6253,2.6588,2.6699,2.6708,2.6632,2.6479,2.574,2.5403,2.568,2.5637,2.5519,2.55,2.5418,2.5446,2.5519,2.5546,2.5422,2.5073,2.4901,2.4691,2.3701,2.3132,2.2738,2.1835,2.1348,2.0773,2.0283,1.9908,1.9717,1.9708,1.9678,1.9669,1.9678,1.9542,1.9257,1.9001,1.8731,1.8487,1.8027,1.7653,1.7503,1.7362,1.7282,1.7303,1.7243,1.7275,1.7277,3.8918,3.8149,3.9496,3.9783,3.9348,3.9314,3.9765,4.0246,3.9665,3.9746,4.0358,4.0492,4.0492,4.0492,4.0492,4.0492,4.0492,4.0492,4.0188,3.9869,4.0111,3.969,3.8795,3.819,3.806,3.8648,3.8037,3.7869,3.7918,3.7636,3.7076,3.6372,3.5866,3.5281,3.4484,3.3431,3.2293,3.1795,3.0644,2.9879,2.9543,2.917,2.8987,2.8987,2.8987,2.8987,2.8987,2.8987,2.8679,2.8178,2.8075,2.8191,2.8417,2.836,2.8315,2.8265,2.7353,2.6753,2.6602,2.5895,2.5348,2.53,2.5502,2.5658,2.567,2.6174,2.6621,2.6523,2.6753,2.6816,2.68,2.6733,2.6716,2.6641,2.6272,2.6066,2.6226,2.6127,2.6007,2.5962,2.5879,2.5852,2.5961,2.6003,2.5884,2.5754,2.5668,2.5296,2.4734,2.4357,2.3683,2.2572,2.1721,2.1177,2.0736,2.0354,2.0048,1.9986,1.978,1.9771,1.9753,1.9744,1.9581,1.9362,1.9213,1.8979,1.8514,1.8108,1.7888,1.774,1.757,1.7406,1.7344,1.7292,1.7282,3.9704,3.9598,3.9569,3.9538,3.9578,3.9494,3.9903,4.0292,3.9808,3.9858,4.04,4.0492,4.0492,4.0492,4.0492,4.0492,4.0492,4.0492,4.0495,4.0342,4.0375,4.0151,3.9909,3.8835,3.8973,3.9713,3.861,3.8601,3.8799,3.8208,3.7417,3.6935,3.6419,3.551,3.487,3.4202,3.3525,3.2563,3.1495,3.0655,3.002,2.9409,2.9005,2.8987,2.8987,2.8987,2.8987,2.8987,2.8938,2.8963,2.8987,2.8915,2.8923,2.8743,2.8651,2.8516,2.7833,2.7277,2.7115,2.6636,2.6076,2.6056,2.6675,2.69,2.6641,2.7088,2.739,2.7083,2.7054,2.7055,2.6949,2.6842,2.6767,2.6716,2.6632,2.6674,2.6708,2.6708,2.6708,2.6683,2.6367,2.6401,2.6454,2.6411,2.6166,2.6173,2.6071,2.565,2.5087,2.4458,2.3736,2.2823,2.2124,2.1589,2.1187,2.0828,2.0547,2.0326,1.9989,1.9871,1.9821,1.9809,1.9744,1.9623,1.9444,1.925,1.8988,1.8649,1.8378,1.8108,1.7938,1.771,1.7529,1.7465,1.7434,4.0308,3.9739,4.0256,4.0507,4.0487,4.0441,4.0498,4.0607,4.036,4.0311,4.0466,4.0504,4.0531,4.0546,4.0558,4.0492,4.0566,4.0535,4.0468,4.0424,4.0353,4.0318,4.0277,3.9733,3.9943,4.0172,3.9981,3.9847,3.9843,3.9619,3.9436,3.8852,3.747,3.6812,3.6163,3.4431,3.3353,3.2743,3.1596,3.0778,3.0276,2.9531,2.906,2.8999,2.8987,2.8987,2.8987,2.8987,2.8987,2.8987,2.8987,2.8987,2.8964,2.8929,2.8893,2.8803,2.8524,2.8224,2.8156,2.7805,2.7574,2.7451,2.7598,2.7812,2.7729,2.7738,2.7793,2.7587,2.7595,2.7472,2.7268,2.7141,2.7013,2.6849,2.675,2.6733,2.6708,2.6716,2.6708,2.6674,2.6632,2.6607,2.6666,2.6641,2.6547,2.6564,2.632,2.5933,2.5364,2.473,2.3975,2.3234,2.2498,2.1955,2.1495,2.115,2.0885,2.0654,2.0335,2.0102,2.0076,1.9953,1.9916,1.9815,1.9654,1.9463,1.926,1.9129,1.8841,1.8577,1.8334,1.8177,1.8022,1.7838,1.7676,4.0781,4.0445,4.1163,4.1266,4.0975,4.1206,4.1117,4.079,4.068,4.0646,4.0646,4.0646,4.0862,4.119,4.0838,4.0784,4.0994,4.0677,4.0695,4.0812,4.063,4.0336,4.0315,4.032,4.032,4.0325,4.0282,4.032,4.032,4.0258,3.9905,3.9431,3.8194,3.7113,3.6545,3.4896,3.4081,3.3556,3.2426,3.149,3.09,3.0048,2.9299,2.9073,2.8987,2.8987,2.8987,2.8987,2.8987,2.8987,2.8987,2.8987,2.8987,2.8987,2.8987,2.8958,2.8887,2.8785,2.8731,2.8639,2.8416,2.8341,2.8432,2.8334,2.8262,2.8188,2.8127,2.7943,2.7847,2.7775,2.7535,2.7459,2.7305,2.7195,2.7004,2.7013,2.7076,2.6898,2.6708,2.6708,2.6683,2.6674,2.6708,2.6708,2.67,2.6624,2.6624,2.6286,2.6126,2.5455,2.4622,2.3847,2.3004,2.2343,2.1825,2.1455,2.1167,2.0934,2.0721,2.0562,2.0486,2.0316,2.0144,1.996,1.9762,1.9663,1.9466,1.938,1.9241,1.8955,1.8745,1.8678,1.8533,1.8266,1.8147,4.1108,4.1145,4.183,4.1749,4.1329,4.1694,4.1576,4.1125,4.0992,4.1097,4.106,4.1104,4.1757,4.2019,4.1554,4.1582,4.1622,4.1502,4.1455,4.1421,4.1255,4.0899,4.072,4.0621,4.0487,4.0353,4.0306,4.032,4.032,4.0282,4.0005,3.9208,3.8372,3.7556,3.6464,3.559,3.4898,3.4351,3.3438,3.2659,3.1875,3.0862,2.9851,2.9133,2.8987,2.8987,2.8987,2.8987,2.8987,2.8987,2.8987,2.8987,2.8987,2.8987,2.8987,2.8987,2.8964,2.8952,2.894,2.8934,2.8839,2.8682,2.8827,2.8743,2.8469,2.8475,2.8443,2.8255,2.8099,2.7954,2.7793,2.7739,2.7735,2.7624,2.7415,2.7446,2.7512,2.7172,2.6972,2.6791,2.675,2.6708,2.6708,2.6708,2.6708,2.6708,2.6708,2.6623,2.642,2.6048,2.5144,2.4485,2.3672,2.3111,2.2613,2.1825,2.1526,2.1324,2.1119,2.099,2.0869,2.0663,2.0436,2.0039,1.9836,1.9756,1.9684,1.959,1.9435,1.9246,1.9176,1.9115,1.8926,1.8664,1.8597,4.1108,4.1108,4.1239,4.1625,4.2028,4.1511,4.1639,4.2001,4.195,4.189,4.1975,4.2612,4.2937,4.308,4.3071,4.2654,4.2343,4.2244,4.2213,4.1999,4.1903,4.1806,4.1178,4.1003,4.0811,4.0443,4.031,4.032,4.032,4.0282,4.0091,3.9866,3.914,3.823,3.7339,3.6624,3.5721,3.5111,3.4238,3.3545,3.2715,3.124,2.9954,2.9095,2.8987,2.8987,2.8987,2.8987,2.8987,2.8987,2.8987,2.8987,2.8987,2.8987,2.8987,2.8987,2.8987,2.8987,2.8987,2.8981,2.8988,2.8959,2.8982,2.8999,2.8851,2.8845,2.8743,2.8563,2.8372,2.8253,2.814,2.8072,2.7926,2.7786,2.7683,2.7664,2.7691,2.7557,2.7367,2.7186,2.6955,2.6733,2.6783,2.6791,2.6783,2.6758,2.6708,2.6505,2.6218,2.5913,2.5406,2.4864,2.4383,2.3926,2.3487,2.2578,2.1932,2.1762,2.1564,2.1393,2.1245,2.1015,2.0713,2.0446,2.012,1.9945,1.9871,1.9753,1.9659,1.9481,1.9508,1.9545,1.9328,1.9091,1.9021,4.1362,4.181,4.2241,4.269,4.3037,4.3118,4.3029,4.3009,4.2965,4.2932,4.3049,4.338,4.3828,4.3994,4.3666,4.3388,4.3388,4.2662,4.2599,4.2425,4.1986,4.1498,4.1079,4.0987,4.0672,4.038,4.031,4.032,4.032,4.032,4.011,3.9599,3.9159,3.8572,3.7731,3.6854,3.6495,3.5968,3.5353,3.4392,3.335,3.1291,2.9709,2.9214,2.8992,2.8987,2.8987,2.8987,2.8987,2.8987,2.8987,2.8987,2.8987,2.8987,2.8987,2.8987,2.8987,2.8987,2.8987,2.8987,2.8999,2.8999,2.8987,2.8987,2.8987,2.8958,2.8917,2.8761,2.8663,2.8556,2.8422,2.8377,2.8304,2.8183,2.8027,2.8007,2.8052,2.7865,2.7742,2.7614,2.7457,2.725,2.6997,2.6964,2.6874,2.6791,2.6733,2.6488,2.6182,2.6013,2.58,2.511,2.4611,2.4022,2.3564,2.281,2.2192,2.2036,2.1939,2.1766,2.1667,2.1462,2.1245,2.0983,2.0664,2.0268,1.9898,1.9735,1.9717,1.9732,1.9672,1.9621,1.9612,1.9548,1.9411,4.1616,4.2454,4.3157,4.3626,4.4016,4.4484,4.4406,4.4036,4.3956,4.3935,4.3997,4.421,4.4676,4.4924,4.464,4.4391,4.4666,4.3359,4.338,4.3173,4.2361,4.1412,4.1002,4.0634,4.0551,4.0351,4.031,4.0325,4.032,4.032,3.9885,3.9542,3.9221,3.8572,3.7731,3.6905,3.7077,3.6767,3.6624,3.5353,3.3455,3.134,2.9608,2.9158,2.9084,2.9128,2.9378,2.9102,2.9176,2.9189,2.9128,2.8987,2.8987,2.8987,2.8987,2.8987,2.8987,2.8987,2.8987,2.8987,2.8987,2.8987,2.8987,2.8987,2.8987,2.8975,2.8959,2.8846,2.881,2.8749,2.8625,2.8612,2.8593,2.853,2.8339,2.8248,2.8337,2.8271,2.8117,2.8027,2.7936,2.772,2.7421,2.7289,2.7235,2.7228,2.7148,2.6997,2.6723,2.6702,2.6346,2.5438,2.4723,2.4013,2.3418,2.2774,2.2332,2.2157,2.2094,2.201,2.2003,2.195,2.1682,2.1362,2.1055,2.064,2.0174,1.9827,1.988,1.9889,1.9773,1.9708,1.9681,1.9672,1.9599,4.1616,4.2434,4.2552,4.343,4.4659,4.4271,4.4328,4.4836,4.4855,4.4855,4.4894,4.5558,4.591,4.5966,4.5964,4.5466,4.5118,4.5034,4.4731,4.4228,4.3702,4.3023,4.2583,4.1818,4.0943,4.0472,4.0328,4.0306,4.0306,4.031,4.0205,3.9885,3.9279,3.8553,3.7716,3.7039,3.616,3.5812,3.6131,3.5538,3.3963,3.2551,3.1026,3.0108,2.9607,2.9739,3.0122,2.971,2.9406,2.9872,2.9347,2.9042,2.8987,2.8987,2.8987,2.8987,2.8987,2.8987,2.8987,2.8987,2.8987,2.8987,2.8987,2.8987,2.8987,2.8999,2.8976,2.8911,2.8893,2.8834,2.8724,2.8675,2.8644,2.86,2.8531,2.8481,2.8555,2.8486,2.8364,2.8364,2.8271,2.8052,2.7779,2.7691,2.7617,2.7612,2.7552,2.7384,2.7221,2.7125,2.6944,2.6065,2.4982,2.4214,2.3573,2.2895,2.2408,2.2238,2.2211,2.2209,2.217,2.2104,2.1921,2.1607,2.1338,2.1142,2.0829,2.0531,2.026,2.0059,1.9945,1.9818,1.9708,1.9723,1.9708,4.3079,4.3859,4.3879,4.4581,4.5617,4.5305,4.5364,4.5675,4.5753,4.5753,4.5792,4.6086,4.6301,4.6301,4.6301,4.6078,4.5691,4.5605,4.5241,4.469,4.421,4.3496,4.2549,4.1961,4.1266,4.0676,4.0366,4.031,4.0329,4.0277,4.0129,3.9637,3.9561,3.9011,3.7755,3.7349,3.7024,3.6489,3.5808,3.5407,3.4954,3.3334,3.1757,3.1689,3.1135,3.1104,3.1056,3.0458,3.0065,3.0248,2.9543,2.9005,2.8987,2.8987,2.8987,2.8987,2.8987,2.8987,2.8987,2.8992,2.8987,2.8987,2.8987,2.8987,2.8987,2.8999,2.8982,2.8911,2.8905,2.8858,2.8779,2.8712,2.87,2.8662,2.8631,2.8612,2.8606,2.86,2.8562,2.8587,2.8581,2.8342,2.8128,2.802,2.7858,2.7704,2.771,2.7692,2.7503,2.7334,2.7112,2.6727,2.5546,2.4406,2.3816,2.3185,2.2523,2.2299,2.2278,2.2258,2.2268,2.2173,2.2027,2.1991,2.1881,2.167,2.1448,2.1039,2.0623,2.0354,2.0113,1.9997,1.9887,1.9717,1.9717,4.4406,4.5011,4.5011,4.55,4.6281,4.6301,4.6262,4.6281,4.6262,4.6281,4.6301,4.6301,4.6301,4.6301,4.6301,4.624,4.6241,4.5617,4.5327,4.4911,4.4295,4.3607,4.2979,4.239,4.1538,4.0883,4.0499,4.0543,4.0595,4.0366,3.9885,3.903,3.883,3.8472,3.765,3.7043,3.6814,3.7368,3.5821,3.5876,3.6382,3.4068,3.3215,3.2949,3.2756,3.2265,3.2288,3.1499,3.1011,3.1182,3.0219,2.968,2.9632,2.9391,2.9238,2.9201,2.9201,2.9195,2.9154,2.9093,2.9015,2.8987,2.8987,2.8987,2.8987,2.8999,2.8988,2.8934,2.8947,2.8893,2.8834,2.8767,2.8767,2.8724,2.8675,2.8644,2.8625,2.8619,2.8606,2.86,2.86,2.86,2.8427,2.8337,2.8136,2.7851,2.7826,2.7925,2.7798,2.7587,2.7222,2.6897,2.5925,2.4758,2.406,2.3455,2.2805,2.2373,2.2352,2.231,2.2296,2.2289,2.2202,2.2218,2.2228,2.2125,2.1849,2.1393,2.0958,2.0829,2.0624,2.026,2.005,1.9863,1.9717,4.4933,4.5011,4.5011,4.55,4.6301,4.6301,4.6301,4.6301,4.6301,4.6301,4.6301,4.6301,4.6301,4.6301,4.6301,4.6301,4.6281,4.6242,4.6081,4.5755,4.5241,4.4645,4.395,4.3,4.2011,4.158,4.1056,4.1015,4.105,4.0336,3.9762,3.9049,3.8453,3.7268,3.6542,3.6298,3.6642,3.7139,3.6337,3.6581,3.7047,3.5859,3.4664,3.3948,3.3196,3.272,3.3402,3.2552,3.2223,3.2724,3.1288,3.0523,3.0329,2.9801,2.9511,2.945,2.9628,2.9604,2.9471,2.9228,2.9044,2.9004,2.8987,2.8987,2.8987,2.8987,2.8999,2.8988,2.8982,2.8964,2.8911,2.8887,2.884,2.8798,2.8743,2.8712,2.8681,2.8619,2.8607,2.8606,2.86,2.86,2.8593,2.8479,2.8435,2.8179,2.8166,2.8266,2.8066,2.7844,2.7373,2.6882,2.6069,2.5152,2.4362,2.3711,2.3111,2.2672,2.2504,2.2401,2.2303,2.2303,2.2279,2.2282,2.2278,2.2275,2.2247,2.1812,2.1478,2.1378,2.1126,2.0673,2.0243,1.998,1.9827,4.4524,4.4991,4.5011,4.55,4.6301,4.6301,4.6301,4.6301,4.6301,4.6301,4.6301,4.6301,4.6301,4.6301,4.6301,4.6301,4.6301,4.6301,4.6301,4.622,4.5854,4.5436,4.4766,4.4076,4.3227,4.2257,4.1604,4.109,4.0815,4.0258,3.9177,3.8425,3.8526,3.8109,3.7345,3.6031,3.6337,3.6852,3.6738,3.6714,3.8548,3.7215,3.6088,3.6233,3.5439,3.477,3.4511,3.3609,3.3431,3.3048,3.1845,3.1308,3.0909,3.0161,2.9776,2.979,3.01,3.0138,2.9776,2.9506,2.9319,2.9176,2.9095,2.9046,2.9142,2.9046,2.9011,2.8987,2.9022,2.8998,2.8964,2.8923,2.8887,2.8852,2.8822,2.8779,2.8797,2.8772,2.8802,2.8868,2.8715,2.86,2.86,2.8587,2.8581,2.8543,2.8556,2.8531,2.8319,2.8161,2.7764,2.7341,2.6581,2.5808,2.5015,2.4246,2.3478,2.308,2.2721,2.2562,2.246,2.231,2.2303,2.2303,2.232,2.2289,2.2247,2.2113,2.1915,2.1669,2.1347,2.0967,2.0564,2.0182,1.9989,4.3665,4.423,4.4503,4.5265,4.6242,4.6301,4.6301,4.6301,4.6301,4.6301,4.6301,4.6301,4.6301,4.6301,4.6301,4.6301,4.6301,4.6301,4.6301,4.6261,4.6162,4.591,4.5469,4.482,4.3962,4.2857,4.2196,4.1698,4.1174,4.0156,3.9755,3.9684,3.968,3.9008,3.7345,3.639,3.6199,3.668,3.6642,3.6657,3.8873,3.7612,3.66,3.6925,3.6186,3.5609,3.5054,3.4439,3.421,3.3767,3.2889,3.1885,3.1272,3.073,3.0254,3.0386,3.0612,3.0839,3.0576,2.9846,2.9612,2.9395,2.9689,2.9617,2.9549,2.9538,2.9733,2.9545,2.9357,2.9078,2.9038,2.8952,2.8953,2.8929,2.887,2.8852,2.9035,2.9107,2.9137,2.9173,2.8936,2.8693,2.8681,2.8681,2.8637,2.863,2.8593,2.8587,2.8512,2.839,2.8288,2.785,2.7326,2.6561,2.5768,2.4903,2.4093,2.3712,2.3333,2.2851,2.2668,2.2569,2.2453,2.246,2.2449,2.2338,2.2268,2.2211,2.2041,2.1849,2.1531,2.1229,2.0999,2.0623,2.0268,4.2473,4.2552,4.3392,4.47,4.6125,4.6281,4.6281,4.6301,4.6301,4.6301,4.6301,4.6301,4.6301,4.6301,4.6301,4.6301,4.6301,4.6301,4.6301,4.6301,4.6301,4.6223,4.5909,4.5312,4.4396,4.358,4.2716,4.2085,4.1714,4.0877,4.0776,4.0658,4.0165,3.9257,3.6827,3.6519,3.65,3.6538,3.65,3.7077,3.7574,3.7135,3.6886,3.6504,3.6084,3.5606,3.5193,3.5028,3.4846,3.4624,3.3956,3.3146,3.256,3.1802,3.1409,3.1417,3.1524,3.1917,3.237,3.07,3.0029,2.987,3.0239,3.0415,3.0648,3.0704,3.0433,2.9965,2.967,2.9262,2.9104,2.904,2.9074,2.9015,2.8968,2.9112,2.9314,2.9454,2.9503,2.9824,2.9326,2.8858,2.8822,2.8791,2.8729,2.8674,2.8624,2.8593,2.8587,2.8562,2.8473,2.8303,2.786,2.7338,2.6508,2.5487,2.4742,2.4355,2.4068,2.3769,2.3364,2.3193,2.3032,2.2816,2.2744,2.279,2.257,2.233,2.2176,2.202,2.1787,2.1522,2.1323,2.1079,2.0722,4.1888,4.2415,4.2708,4.384,4.5304,4.5441,4.5753,4.6223,4.6301,4.6301,4.6301,4.6301,4.6301,4.6301,4.6281,4.6281,4.6262,4.6301,4.6301,4.6301,4.6242,4.6301,4.6027,4.5361,4.4496,4.3649,4.2801,4.2013,4.1254,4.0976,4.0504,4.0242,4.0129,3.9173,3.8059,3.7364,3.6691,3.7077,3.6905,3.6867,3.754,3.733,3.6948,3.6485,3.6065,3.5683,3.5244,3.5186,3.5186,3.5129,3.4464,3.3895,3.3414,3.2726,3.2317,3.2474,3.2669,3.3242,3.3287,3.2329,3.1387,3.1057,3.0894,3.089,3.0241,3.0654,3.047,3.0198,2.9948,2.9594,2.9415,2.9438,2.9423,2.9244,2.9261,2.9524,2.9737,2.9825,2.996,3.0526,3.0447,2.988,2.9624,2.9284,2.9119,2.8772,2.865,2.8606,2.8593,2.8593,2.8562,2.8562,2.8289,2.7917,2.7272,2.6363,2.5733,2.5392,2.5228,2.5085,2.4634,2.4074,2.4023,2.4038,2.3622,2.3246,2.3008,2.2753,2.2419,2.2187,2.1981,2.1772,2.1546,2.1378,2.1182,4.144,4.1927,4.1947,4.2767,4.4093,4.4737,4.55,4.6203,4.6301,4.6301,4.6301,4.6301,4.6086,4.6008,4.6145,4.6008,4.5949,4.6203,4.6301,4.6242,4.593,4.5813,4.5578,4.5187,4.4267,4.3489,4.298,4.2359,4.1161,4.1016,4.0712,4.0262,3.9818,3.9795,3.9062,3.8138,3.6982,3.7001,3.65,3.6141,3.6566,3.66,3.6485,3.6122,3.5874,3.574,3.5358,3.5186,3.5186,3.5033,3.4751,3.4258,3.3933,3.3566,3.3142,3.3394,3.3891,3.4331,3.4189,3.3597,3.2731,3.2359,3.2056,3.1724,3.1181,3.1618,3.1575,3.1213,3.0474,3.0368,3.0359,3.0349,3.0307,3.016,3.0258,3.0554,3.0945,3.1107,3.1044,3.1568,3.1532,3.0986,3.0295,2.9929,2.9581,2.9125,2.8687,2.865,2.8606,2.86,2.86,2.86,2.86,2.8292,2.7894,2.7381,2.6826,2.6428,2.6228,2.6052,2.564,2.5072,2.5158,2.5141,2.4693,2.4188,2.3596,2.3213,2.2804,2.2462,2.2178,2.1981,2.1773,2.1669,2.1562,4.1108,4.1108,4.1108,4.1655,4.2629,4.4191,4.5363,4.6125,4.6145,4.6105,4.6125,4.5988,4.5598,4.5207,4.5774,4.5715,4.5343,4.5852,4.6027,4.5949,4.55,4.5226,4.4952,4.4679,4.3742,4.3157,4.2668,4.2121,4.1204,4.1332,4.1178,4.0945,4.0808,4.0602,3.9924,3.8845,3.7631,3.7048,3.6273,3.5844,3.5817,3.553,3.5568,3.5435,3.5396,3.5358,3.5186,3.5186,3.5186,3.5148,3.511,3.4674,3.4335,3.4071,3.4048,3.4239,3.4789,3.4961,3.4942,3.4254,3.4078,3.3737,3.3836,3.3933,3.3393,3.2594,3.238,3.2178,3.1665,3.1739,3.1784,3.1812,3.1817,3.177,3.1769,3.2152,3.2637,3.27,3.2531,3.2547,3.2341,3.178,3.0723,3.0234,3.0124,2.9174,2.8755,2.8688,2.8662,2.8606,2.86,2.86,2.86,2.86,2.8256,2.7912,2.7749,2.7306,2.6958,2.6724,2.6351,2.6158,2.618,2.6065,2.5683,2.5133,2.4441,2.3741,2.3119,2.279,2.2498,2.2286,2.2113,2.2051,2.1937,4.1108,4.1108,4.1108,4.1596,4.2512,4.3587,4.4232,4.4446,4.4446,4.4446,4.4446,4.4446,4.4407,4.4114,4.4329,4.4641,4.4953,4.5207,4.5304,4.5168,4.4913,4.4543,4.4094,4.3547,4.2864,4.2454,4.2084,4.187,4.142,4.1557,4.1843,4.1824,4.1525,4.1252,4.0493,3.9504,3.853,3.7516,3.6588,3.5873,3.5385,3.5252,3.5229,3.5205,3.5209,3.519,3.5186,3.5186,3.5186,3.5186,3.5186,3.4957,3.4938,3.4846,3.4866,3.4866,3.5091,3.5167,3.5171,3.4999,3.4808,3.4751,3.477,3.4021,3.3463,3.3073,3.2978,3.2877,3.2529,3.2378,3.2648,3.281,3.2813,3.2773,3.2792,3.3039,3.3487,3.3749,3.3645,3.3987,3.3777,3.2926,3.1789,3.1054,3.0791,2.9558,2.8846,2.8852,2.8743,2.8705,2.8607,2.8625,2.8612,2.8619,2.86,2.831,2.831,2.8189,2.7785,2.755,2.7537,2.739,2.7255,2.7001,2.6646,2.5976,2.5183,2.4531,2.3997,2.3239,2.2873,2.2645,2.2495,2.2572,2.2473,4.0786,4.109,4.1108,4.1401,4.1908,4.2435,4.267,4.2787,4.3392,4.3705,4.3705,4.3744,4.3529,4.3294,4.3587,4.3822,4.3879,4.4289,4.4484,4.4406,4.4191,4.3644,4.3039,4.265,4.2259,4.1888,4.1732,4.1655,4.146,4.1516,4.1769,4.168,4.1752,4.143,4.0821,4.0248,3.9551,3.8429,3.7369,3.6431,3.5878,3.5425,3.5264,3.5218,3.5222,3.5226,3.5194,3.519,3.5205,3.5186,3.5186,3.5186,3.5163,3.5167,3.5167,3.5148,3.5167,3.5186,3.5186,3.5186,3.5167,3.5186,3.5186,3.4728,3.4117,3.3692,3.3727,3.3711,3.3131,3.281,3.3306,3.37,3.3643,3.3589,3.3654,3.3738,3.4125,3.4548,3.4981,3.5479,3.5114,3.4317,3.3441,3.2551,3.1489,3.0304,2.9604,2.9473,2.9235,2.8937,2.8779,2.8657,2.8656,2.865,2.8625,2.86,2.8527,2.8473,2.8382,2.8256,2.8473,2.8357,2.7974,2.779,2.7636,2.6868,2.6047,2.5585,2.5018,2.4254,2.3774,2.386,2.3756,2.357,2.3345,4.0211,4.098,4.1074,4.1115,4.1112,4.1209,4.1226,4.1284,4.2729,4.3451,4.3373,4.3431,4.2904,4.2494,4.2826,4.2923,4.306,4.3372,4.3587,4.3568,4.3099,4.2629,4.2396,4.2219,4.1791,4.1616,4.1635,4.1753,4.1558,4.1791,4.1962,4.1309,4.1587,4.1498,4.107,4.0845,4.0283,3.9549,3.8219,3.7099,3.6435,3.5867,3.5315,3.5219,3.525,3.5262,3.5234,3.5218,3.5213,3.5209,3.5186,3.5186,3.5186,3.5186,3.5186,3.5186,3.5186,3.5186,3.5186,3.5186,3.5186,3.5186,3.5186,3.5053,3.4632,3.4044,3.4006,3.4308,3.3872,3.3815,3.4212,3.4441,3.4462,3.4441,3.4463,3.4507,3.4676,3.5241,3.5965,3.6385,3.637,3.5544,3.4591,3.3664,3.2726,3.1323,3.0511,3.0318,3.0082,2.9661,2.9332,2.9077,2.8754,2.8736,2.8626,2.86,2.86,2.8582,2.8618,2.86,2.8545,2.8563,2.86,2.8339,2.8071,2.7655,2.7009,2.6455,2.5901,2.5343,2.5034,2.5233,2.5107,2.4822,2.4243,3.9316,4.0152,4.082,4.1112,4.1111,4.1099,4.1109,4.1128,4.15,4.1792,4.1733,4.1753,4.1714,4.1675,4.1772,4.1947,4.2434,4.2513,4.2669,4.2708,4.2356,4.1947,4.1577,4.1557,4.1304,4.1245,4.144,4.2065,4.2533,4.2807,4.3001,4.2959,4.2787,4.2258,4.1163,4.1026,4.0765,4.0344,3.9481,3.8017,3.6951,3.6497,3.6063,3.5576,3.5339,3.5312,3.5266,3.5285,3.5281,3.5273,3.5218,3.5209,3.5186,3.5186,3.5186,3.5186,3.5186,3.5186,3.5186,3.5186,3.5186,3.5186,3.5186,3.5186,3.4919,3.4354,3.422,3.4602,3.4827,3.4866,3.4942,3.5091,3.5186,3.5186,3.5205,3.5205,3.5224,3.6008,3.6803,3.7091,3.7282,3.6611,3.5633,3.4706,3.3832,3.2863,3.1879,3.1417,3.1324,3.102,3.0528,3.0088,2.9071,2.8857,2.8844,2.8819,2.8904,2.8752,2.8709,2.8667,2.8618,2.86,2.8593,2.8593,2.8403,2.7997,2.7602,2.7116,2.6584,2.626,2.6198,2.6374,2.6409,2.6192,2.5413,3.8635,3.9844,4.0695,4.105,4.1072,4.1092,4.1106,4.1104,4.1115,4.1108,4.1108,4.1108,4.1108,4.1108,4.1108,4.1265,4.183,4.1811,4.1831,4.183,4.1849,4.1538,4.1226,4.1108,4.1128,4.1147,4.1596,4.2318,4.3119,4.3509,4.3529,4.3256,4.306,4.2553,4.1245,4.1087,4.107,4.0955,4.0429,3.9391,3.78,3.7205,3.6621,3.6007,3.5631,3.5471,3.5316,3.5312,3.5316,3.5296,3.5245,3.5209,3.5186,3.5186,3.5186,3.5186,3.5186,3.5186,3.5186,3.5186,3.5186,3.5186,3.5186,3.5186,3.5186,3.4694,3.4694,3.5014,3.4999,3.5037,3.5053,3.5167,3.5186,3.5186,3.5301,3.5381,3.5725,3.6358,3.7004,3.7431,3.7419,3.7077,3.6108,3.5148,3.4296,3.3542,3.2695,3.2508,3.2413,3.2312,3.1841,3.1329,3.043,2.9916,3.006,2.9773,2.9378,2.9171,2.8994,2.8788,2.8739,2.8636,2.8593,2.8684,2.8648,2.8418,2.8017,2.7652,2.7652,2.7501,2.7463,2.7493,2.7465,2.7351,2.6702,3.8166,3.9814,4.0673,4.0985,4.0991,4.105,4.1093,4.1094,4.1106,4.1116,4.1115,4.1111,4.1109,4.1108,4.1108,4.1108,4.1167,4.1343,4.1226,4.1207,4.1206,4.1187,4.1187,4.1108,4.1108,4.1284,4.1675,4.2064,4.2572,4.3158,4.3334,4.2611,4.2318,4.2103,4.1401,4.1087,4.1072,4.1048,4.0758,4.0516,3.936,3.809,3.734,3.6703,3.6097,3.5551,3.5424,3.5346,3.5346,3.5293,3.5258,3.5238,3.5226,3.5222,3.5213,3.5213,3.5186,3.5186,3.5186,3.5186,3.5186,3.5186,3.5186,3.5186,3.5186,3.5186,3.5163,3.5167,3.5148,3.5148,3.5167,3.5186,3.5186,3.5205,3.5339,3.5454,3.5969,3.6504,3.702,3.7531,3.7451,3.7194,3.6588,3.5622,3.493,3.4168,3.3739,3.3594,3.3464,3.3366,3.3084,3.2762,3.2206,3.1808,3.1246,3.0706,3.0096,2.9998,2.9821,2.9297,2.8951,2.9083,2.9059,2.8859,2.8805,2.86,2.8527,2.8289,2.8381,2.8345,2.8232,2.8037,2.8005,2.7895,2.7844,3.8114,3.9799,4.0638,4.0971,4.0981,4.1006,4.1019,4.1023,4.1074,4.1112,4.111,4.1099,4.1108,4.1108,4.1108,4.1108,4.1108,4.1108,4.1108,4.1128,4.1108,4.1108,4.1108,4.1108,4.1108,4.1304,4.1557,4.1792,4.2591,4.3313,4.3275,4.2473,4.3217,4.265,4.1284,4.1107,4.1084,4.107,4.1071,4.0866,4.0631,3.9459,3.8281,3.7528,3.6806,3.6211,3.5797,3.551,3.5444,3.5378,3.5308,3.5301,3.5285,3.5254,3.5257,3.5218,3.519,3.5186,3.5186,3.5186,3.5186,3.5186,3.5186,3.5186,3.5186,3.5186,3.5186,3.5186,3.5167,3.5167,3.5186,3.5186,3.5186,3.5186,3.5263,3.5284,3.5524,3.611,3.6695,3.7096,3.7307,3.7207,3.7083,3.6391,3.6005,3.5311,3.4793,3.4643,3.4353,3.431,3.4205,3.3932,3.3616,3.2607,3.1615,3.1398,3.0962,3.0857,3.0672,3.0225,2.9908,2.9784,2.9705,2.9554,2.9077,2.8726,2.869,2.8744,2.8575,2.849,2.8533,2.8475,2.8429,2.844,2.8385]}]]